[[{"header":{"parameterUnit":"m.s-1","parameterCategory":1,"la1":31.0,"la2":29.5877,"lo1":-88.7671,"lo2":-86.6584,"dy":0.0162,"dx":0.0185,"nx":115,"ny":88,"refTime":"2023-04-14T06:00:00:Z","depth":0,"parameterNumber":2,"parameterNumberName":"U-component_of_WINDS"},"data":[0.0,0.0,0.0,0.0,0.0,0.0,0.0,0.0,0.0,0.0,0.0,0.0,0.0,0.0,0.0,0.0,0.0,0.0,0.0,0.0,0.0,0.0,0.0,0.0,0.0,0.0,0.0,0.0,0.0,0.0,0.0,0.0,0.0,0.0,0.0,0.0,0.0,0.0,0.0,0.0,0.0,0.0,0.0,0.0,0.0,0.0,0.0,0.0,0.0,0.0,0.0,0.0,0.0,0.0,0.0,0.0,0.0,0.0,0.0,0.0,0.0,0.0,0.0,0.0,0.0,0.0,0.0,0.0,0.0,0.0,0.0,0.0,0.0,0.0,0.0,0.0,0.0,0.0,0.0,0.0,0.0,0.0,0.0,0.0,0.0,0.0,0.0,0.0,0.0,0.0,0.0,0.0,0.0,0.0,0.0,0.0,0.0,0.0,0.0,0.0,0.0,0.0,0.0,0.0,0.0,0.0,0.0,0.0,0.0,0.0,0.0,0.0,0.0,0.0,0.0,0.0,0.0,0.0,0.0,0.0,0.0,0.0,0.0,0.0,0.0,0.0,0.0,0.0,0.0,0.0,0.0,0.0,0.0,0.0,0.0,0.0,0.0,0.0,0.0,0.0,0.0,0.0,0.0,0.0,0.0,0.0,0.0,0.0,0.0,0.0,0.0,0.0,0.0,0.0,0.0,0.0,0.0,0.0,0.0,0.0,0.0,0.0,0.0,0.0,0.0,0.0,0.0,0.0,0.0,0.0,0.0,0.0,0.0,0.0,0.0,0.0,0.0,0.0,0.0,0.0,0.0,0.0,0.0,0.0,0.0,0.0,0.0,0.0,0.0,0.0,0.0,0.0,0.0,0.0,0.0,0.0,0.0,0.0,0.0,0.0,0.0,0.0,0.0,0.0,0.0,0.0,0.0,0.0,0.0,0.0,0.0,0.0,0.0,0.0,0.0,0.0,0.0,0.0,0.0,0.0,0.0,0.0,0.0,0.0,0.0,0.0,0.0,0.0,0.0,0.0,0.0,0.0,0.0,0.0,0.0,0.0,0.0,0.0,0.0,0.0,0.0,0.0,0.0,0.0,0.0,0.0,0.0,0.0,0.0,0.0,0.0,0.0,0.0,0.0,0.0,0.0,0.0,0.0,0.0,0.0,0.0,0.0,0.0,0.0,0.0,0.0,0.0,0.0,0.0,0.0,0.0,0.0,0.0,0.0,0.0,0.0,0.0,0.0,0.0,0.0,0.0,0.0,0.0,0.0,0.0,0.0,0.0,0.0,0.0,0.0,0.0,0.0,0.0,0.0,0.0,0.0,0.0,0.0,0.0,0.0,0.0,0.0,0.0,0.0,0.0,0.0,0.0,0.0,0.0,0.0,0.0,0.0,0.0,0.0,0.0,0.0,0.0,0.0,0.0,0.0,0.0,0.0,0.0,0.0,0.0,0.0,0.0,0.0,0.0,0.0,0.0,0.0,0.0,0.0,0.0,0.0,0.0,0.0,0.0,0.0,0.0,0.0,0.0,0.0,0.0,0.0,0.0,0.0,0.0,0.0,0.0,0.0,0.0,0.0,0.0,0.0,0.0,0.0,0.0,0.0,0.0,0.0,0.0,0.0,0.0,0.0,0.0,0.0,0.0,0.0,0.0,0.0,0.0,0.0,0.0,0.0,0.0,0.0,0.0,0.0,0.0,0.0,0.0,0.0,0.0,0.0,0.0,0.0,0.0,0.0,0.0,0.0,0.0,0.0,0.0,0.0,0.0,0.0,0.0,0.0,0.0,0.0,0.0,0.0,0.0,0.0,0.0,0.0,0.0,0.0,0.0,0.0,0.0,0.0,0.0,0.0,0.0,0.0,0.0,0.0,0.0,0.0,0.0,0.0,0.0,0.0,0.0,0.0,0.0,0.0,0.0,0.0,0.0,0.0,0.0,0.0,0.0,0.0,0.0,0.0,0.0,0.0,0.0,0.0,0.0,0.0,0.0,0.0,0.0,0.0,0.0,0.0,0.0,0.0,0.0,0.0,0.0,0.0,0.0,0.0,0.0,0.0,0.0,0.0,0.0,0.0,0.0,0.0,0.0,0.0,0.0,0.0,0.0,0.0,0.0,0.0,0.0,0.0,0.0,0.0,0.0,0.0,0.0,0.0,0.0,0.0,0.0,0.0,0.0,0.0,0.0,0.0,0.0,0.0,0.0,0.0,0.0,0.0,0.0,0.0,0.0,0.0,0.0,0.0,0.0,0.0,0.0,0.0,0.0,0.0,0.0,0.0,0.0,0.0,0.0,0.0,0.0,0.0,0.0,0.0,0.0,0.0,0.0,0.0,0.0,0.0,0.0,0.0,0.0,0.0,0.0,0.0,0.0,0.0,0.0,0.0,0.0,0.0,0.0,0.0,0.0,0.0,0.0,0.0,0.0,0.0,0.0,0.0,0.0,0.0,0.0,0.0,0.0,0.0,0.0,0.0,0.0,0.0,0.0,0.0,0.0,0.0,0.0,0.0,0.0,0.0,0.0,0.0,0.0,0.0,0.0,0.0,0.0,0.0,0.0,0.0,0.0,0.0,0.0,0.0,0.0,0.0,0.0,0.0,0.0,0.0,0.0,0.0,0.0,0.0,0.0,0.0,0.0,0.0,0.0,0.0,0.0,0.0,0.0,0.0,0.0,0.0,0.0,0.0,0.0,0.0,0.0,0.0,0.0,0.0,0.0,0.0,0.0,0.0,0.0,0.0,0.0,0.0,0.0,0.0,0.0,0.0,0.0,0.0,0.0,0.0,0.0,0.0,0.0,0.0,0.0,0.0,0.0,0.0,0.0,0.0,0.0,0.0,0.0,0.0,0.0,0.0,0.0,0.0,0.0,0.0,0.0,0.0,0.0,0.0,0.0,0.0,0.0,0.0,0.0,0.0,0.0,0.0,0.0,0.0,0.0,0.0,0.0,0.0,0.0,0.0,0.0,0.0,0.0,0.0,0.0,0.0,0.0,0.0,0.0,0.0,0.0,0.0,0.0,0.0,0.0,0.0,0.0,0.0,0.0,0.0,0.0,0.0,0.0,0.0,0.0,0.0,0.0,0.0,0.0,0.0,0.0,0.0,0.0,0.0,0.0,0.0,0.0,0.0,0.0,0.0,0.0,0.0,0.0,0.0,0.0,0.0,0.0,0.0,0.0,0.0,0.0,0.0,0.0,0.0,0.0,0.0,0.0,0.0,0.0,0.0,0.0,0.0,0.0,0.0,0.0,0.0,0.0,0.0,0.0,0.0,0.0,0.0,0.0,0.0,0.0,0.0,0.0,0.0,0.0,0.0,0.0,0.0,0.0,0.0,0.0,0.0,0.0,0.0,0.0,0.0,0.0,0.0,0.0,0.0,0.0,0.0,0.0,0.0,0.0,0.0,0.0,0.0,0.0,0.0,0.0,0.0,0.0,0.0,0.0,0.0,0.0,0.0,0.0,0.0,0.0,0.0,0.0,0.0,0.0,0.0,0.0,0.0,0.0,0.0,0.0,0.0,0.0,0.0,0.0,0.0,0.0,0.0,0.0,0.0,0.0,0.0,0.0,0.0,0.0,0.0,0.0,0.0,0.0,0.0,0.0,0.0,0.0,0.0,0.0,0.0,0.0,0.0,0.0,0.0,0.0,0.0,0.0,0.0,0.0,0.0,0.0,0.0,0.0,0.0,0.0,0.0,0.0,0.0,0.0,0.0,0.0,0.0,0.0,0.0,0.0,0.0,0.0,0.0,0.0,0.0,0.0,0.0,0.0,0.0,0.0,0.0,0.0,0.0,0.0,0.0,0.0,0.0,0.0,0.0,0.0,0.0,0.0,0.0,0.0,0.0,0.0,0.0,0.0,0.0,0.0,0.0,0.0,0.0,0.0,0.0,0.0,0.0,0.0,0.0,0.0,0.0,0.0,0.0,0.0,0.0,0.0,0.0,0.0,0.0,0.0,0.0,0.0,0.0,0.0,0.0,0.0,0.0,0.0,0.0,0.0,0.0,0.0,0.0,0.0,0.0,0.0,0.0,0.0,0.0,0.0,0.0,0.0,0.0,0.0,0.0,0.0,0.0,0.0,0.0,0.0,0.0,0.0,0.0,0.0,0.0,0.0,0.0,0.0,0.0,0.0,0.0,0.0,0.0,0.0,0.0,0.0,0.0,0.0,0.0,0.0,0.0,0.0,0.0,0.0,0.0,0.0,0.0,0.0,0.0,0.0,0.0,0.0,0.0,0.0,0.0,0.0,0.0,0.0,0.0,0.0,0.0,0.0,0.0,0.0,0.0,-0.2421,0.0,0.0,0.0,0.0,0.0,0.0,0.0,0.0,0.0,0.0,0.0,0.0,0.0,0.0,0.0,0.0,0.0,0.0,0.0,0.0,0.0,0.0,0.0,0.0,0.0,0.0,0.0,0.0,0.0,0.0,0.0,0.0,0.0,0.0,0.0,0.0,0.0,0.0,0.0,0.0,0.0,0.0,0.0,0.0,0.0,0.0,0.0,0.0,0.0,0.0,0.0,0.0,0.0,0.0,0.0,0.0,0.0,0.0,0.0,0.0,0.0,0.0,0.0,0.0,0.0,0.0,0.0,0.0,0.0,0.0,0.0,0.0,0.0,0.0,0.0,0.0,0.0,0.0,0.0,0.0,0.0,0.0,0.0,0.0,0.0,0.0,0.0,0.0,0.0,0.0,0.0,0.0,0.0,0.0,0.0,0.0,0.0,0.0,0.0,0.0,0.0,0.0,0.0,0.0,0.0,0.0,0.0,0.0,0.0,0.0,-0.1314,-0.1617,-0.212,-0.2421,-0.2421,0.0,0.0,0.0,0.0,0.0,0.0,0.0,0.0,0.0,0.0,0.0,0.0,0.0,0.0,0.0,0.0,0.0,0.0,0.0,0.0,0.0,0.0,0.0,0.0,0.0,0.0,0.0,0.0,0.0,0.0,0.0,0.0,0.0,0.0,0.0,0.0,0.0,0.0,0.0,0.0,0.0,0.0,0.0,0.0,0.0,0.0,0.0,0.0,0.0,0.0,0.0,0.0,0.0,0.0,0.0,0.0,0.0,0.0,0.0,0.0,0.0,0.0,0.0,0.0,0.0,0.0,0.0,0.0,0.0,0.0,0.0,0.0,0.0,0.0,0.0,0.0,0.0,0.0,0.0,0.0,0.0,0.0,0.0,0.0,0.0,0.0,0.0,0.0,0.0,0.0,0.0,0.0,0.0,0.0,0.0,0.0,0.0,0.0,0.0,0.0,0.0,0.0,0.0,0.0,0.0,0.0,0.0,0.0,0.0,0.0,0.0,0.0,-0.212,-0.2521,-0.2823,0.0,0.0,0.0,0.0,0.0,0.0,0.0,0.0,0.0,0.0,0.0,0.0,0.0,0.0,0.0,0.0,0.0,0.0,0.0,0.0,0.0,0.0,0.0,0.0,0.0,0.0,0.0,0.0,0.0,0.0,0.0,0.0,0.0,0.0,0.0,0.0,0.0,0.0,0.0,0.0,0.0,0.0,0.0,0.0,0.0,0.0,0.0,0.0,0.0,0.0,0.0,0.0,0.0,0.0,0.0,0.0,0.0,0.0,0.0,0.0,0.0,0.0,0.0,0.0,0.0,0.0,0.0,0.0,0.0,0.0,0.0,0.0,0.0,0.0,0.0,0.0,0.0,0.0,0.0,0.0,0.0,0.0,0.0,0.0,0.0,0.0,0.0,0.0,0.0,0.0,0.0,0.0,0.0,0.0,0.0,0.0,0.0,0.0,0.0,0.0,0.0,0.0,0.0,0.0,0.0,0.0,0.0,0.0,0.0,0.0,-0.1617,-0.1617,-0.212,0.0,-0.3833,0.0,0.0,0.0,0.0,0.0,0.0,0.0,0.0,0.0,0.0,0.0,0.0,0.0,0.0,0.0,0.0,0.0,0.0,0.0,0.0,0.0,0.0,0.0,0.0,0.0,0.0,0.0,0.0,0.0,0.0,0.0,0.0,0.0,0.0,0.0,0.0,0.0,0.0,0.0,0.0,0.0,0.0,0.0,0.0,0.0,0.0,0.0,0.0,0.0,0.0,0.0,0.0,0.0,0.0,0.0,0.0,0.0,0.0,0.0,0.0,0.0,0.0,0.0,0.0,0.0,0.0,0.0,0.0,0.0,0.0,0.0,0.0,0.0,0.0,0.0,0.0,0.0,0.0,0.0,0.0,0.0,0.0,0.0,0.0,0.0,0.0,0.0,0.0,0.0,0.0,0.0,0.0,0.0,0.0,0.0,0.0,0.0,0.0,0.0,0.0,0.0,0.0,0.0,0.0,0.0,0.0,0.0,0.0,0.0,0.0,-0.1617,-0.1617,-0.2322,-0.3027,0.0,0.0,0.0,0.0,0.0,0.0,0.0,0.0,0.0,0.0,0.0,0.0,0.0,0.0,0.0,0.0,0.0,0.0,0.0,0.0,0.0,0.0,0.0,0.0,0.0,0.0,0.0,0.0,0.0,0.0,0.0,0.0,0.0,0.0,0.0,0.0,0.0,0.0,0.0,0.0,0.0,0.0,0.0,0.0,0.0,0.0,0.0,0.0,0.0,0.0,0.0,0.0,0.0,0.0,0.0,0.0,0.0,0.0,0.0,0.0,0.0,0.0,0.0,0.0,0.0,0.0,0.0,0.0,0.0,0.0,0.0,0.0,0.0,0.0,0.0,0.0,0.0,0.0,0.0,0.0,0.0,0.0,0.0,0.0,0.0,0.0,0.0,0.0,0.0,0.0,0.0,0.0,0.0,0.0,0.0,0.0,0.0,0.0,0.0,0.0,0.0,0.0,0.0,0.0,0.0,0.0,0.0,0.0,0.0,0.0,-0.1314,-0.1617,-0.1817,-0.2423,-0.3229,-0.3934,0.0,0.0,0.0,0.0,0.0,0.0,0.0,0.0,0.0,0.0,0.0,0.0,0.0,0.0,0.0,0.0,0.0,0.0,0.0,0.0,0.0,0.0,0.0,0.0,0.0,0.0,0.0,0.0,0.0,0.0,0.0,0.0,0.0,0.0,0.0,0.0,0.0,0.0,0.0,0.0,0.0,0.0,0.0,0.0,0.0,0.0,0.0,0.0,0.0,0.0,0.0,0.0,0.0,0.0,0.0,0.0,0.0,0.0,0.0,0.0,0.0,0.0,0.0,0.0,0.0,0.0,0.0,0.0,0.0,0.0,0.0,0.0,0.0,0.0,0.0,0.0,0.0,0.0,0.0,0.0,0.0,0.0,0.0,0.0,0.0,0.0,0.0,0.0,0.0,0.0,0.0,0.0,0.0,0.0,0.0,0.0,0.0,0.0,0.0,0.0,0.0,0.0,0.0,0.0,0.0,0.0,0.0,0.0,-0.0808,-0.1314,-0.1817,-0.232,-0.2624,-0.3229,0.0,0.0,0.0,0.0,0.0,0.0,0.0,0.0,0.0,0.0,0.0,0.0,0.0,0.0,0.0,0.0,0.0,0.0,0.0,0.0,0.0,0.0,0.0,0.0,0.0,0.0,0.0,0.0,0.0,0.0,0.0,0.0,0.0,0.0,0.0,0.0,0.0,0.0,0.0,0.0,0.0,0.0,0.0,0.0,0.0,0.0,0.0,0.0,0.0,0.0,0.0,0.0,0.0,0.0,0.0,0.0,0.0,0.0,0.0,0.0,0.0,0.0,0.0,0.0,0.0,0.0,0.0,0.0,0.0,0.0,0.0,0.0,0.0,0.0,0.0,0.0,0.0,0.0,0.0,0.0,0.0,0.0,0.0,0.0,0.0,0.0,0.0,0.0,0.0,0.0,0.0,0.0,0.0,0.0,0.0,0.0,0.0,0.0,0.0,0.0,0.0,0.0,0.0,0.0,0.0,0.0,0.0,0.0,0.0,-0.0808,-0.1314,-0.1817,-0.2421,-0.2826,-0.333,0.0,0.0,0.0,0.0,0.0,0.0,0.0,0.0,0.0,0.0,0.0,0.0,0.0,0.0,0.0,0.0,0.0,0.0,0.0,0.0,0.0,0.0,0.0,0.0,0.0,0.0,0.0,0.0,0.0,0.0,0.0,0.0,0.0,0.0,0.0,0.0,0.0,0.0,0.0,0.0,0.0,0.0,0.0,0.0,0.0,0.0,0.0,0.0,0.0,0.0,0.0,0.0,0.0,0.0,0.0,0.0,0.0,0.0,0.0,0.0,0.0,0.0,0.0,0.0,0.0,0.0,0.0,0.0,0.0,0.0,0.0,0.0,0.0,0.0,0.0,0.0,0.0,0.0,0.0,0.0,0.0,0.0,0.0,0.0,0.0,0.0,0.0,0.0,0.0,0.0,0.0,0.0,0.0,0.0,0.0,0.0,0.0,0.0,0.0,0.0,0.0,0.0,0.0,0.0,0.0,0.0,0.0,0.0,0.0,-0.1112,0.0,-0.1817,-0.2421,-0.2927,-0.343,0.0,0.0,0.0,0.0,0.0,0.0,0.0,0.0,0.0,0.0,0.0,0.0,0.0,0.0,0.0,0.0,0.0,0.0,0.0,0.0,0.0,0.0,0.0,0.0,0.0,0.0,0.0,0.0,0.0,0.0,0.0,0.0,0.0,0.0,0.0,0.0,0.0,0.0,0.0,0.0,0.0,0.0,0.0,0.0,0.0,0.0,0.0,0.0,0.0,0.0,0.0,0.0,0.0,0.0,0.0,0.0,0.0,0.0,0.0,0.0,0.0,0.0,0.0,0.0,0.0,0.0,0.0,0.0,0.0,0.0,0.0,0.0,0.0,0.0,0.0,0.0,0.0,0.0,0.0,0.0,0.0,0.0,0.0,0.0,0.0,0.0,0.0,0.0,0.0,0.0,0.0,0.0,0.0,0.0,0.0,0.0,0.0,0.0,0.0,0.0,0.0,0.0,0.0,0.0,0.0,0.0,0.0,0.0,-0.1112,-0.1516,-0.1617,-0.1817,-0.2421,-0.2927,-0.343,0.0,0.0,0.0,0.0,0.0,0.0,0.0,0.0,0.0,0.0,0.0,0.0,0.0,0.0,0.0,0.0,0.0,0.0,0.0,0.0,0.0,0.0,0.0,0.0,0.0,0.0,0.0,0.0,0.0,0.0,0.0,0.0,0.0,0.0,0.0,0.0,0.0,0.0,0.0,0.0,0.0,0.0,0.0,0.0,0.0,0.0,0.0,0.0,0.0,0.0,0.0,0.0,0.0,0.0,0.0,0.0,0.0,0.0,0.0,0.0,0.0,0.0,0.0,0.0,0.0,0.0,0.0,0.0,0.0,0.0,0.0,0.0,0.0,0.0,0.0,0.0,0.0,0.0,0.0,0.0,0.0,0.0,0.0,0.0,0.0,0.0,0.0,0.0,0.0,0.0,0.0,0.0,0.0,0.0,0.0,0.0,0.0,0.0,0.0,0.0,0.0,0.0,0.0,0.0,0.0,0.0,0.0,0.0,0.0,-0.1617,-0.1617,-0.1817,-0.2421,-0.2927,-0.343,0.0,0.0,0.0,0.0,0.0,0.0,0.0,0.0,0.0,0.0,0.0,0.0,0.0,0.0,0.0,0.0,0.0,0.0,0.0,0.0,0.0,0.0,0.0,0.0,0.0,0.0,0.0,0.0,0.0,0.0,0.0,0.0,0.0,0.0,0.0,0.0,0.0,0.0,0.0,0.0,0.0,0.0,0.0,0.0,0.0,0.0,0.0,0.0,0.0,0.0,0.0,0.0,0.0,0.0,0.0,0.0,0.0,0.0,0.0,0.0,0.0,0.0,0.0,0.0,0.0,0.0,0.0,0.0,0.0,0.0,0.0,0.0,0.0,0.0,0.0,0.0,0.0,0.0,0.0,0.0,0.0,0.0,0.0,0.0,0.0,0.0,0.0,0.0,0.0,0.0,0.0,0.0,0.0,0.0,0.0,0.0,0.0,0.0,0.0,0.0,0.0,0.0,0.0,0.0,0.0,0.0,0.0,0.0,0.0,-0.1651,-0.1753,-0.2062,-0.2472,-0.3091,-0.3708,-0.4116,0.0,0.0,0.0,0.0,0.0,0.0,0.0,0.0,0.0,0.0,0.0,0.0,0.0,0.0,0.0,0.0,0.0,0.0,0.0,0.0,0.0,0.0,0.0,0.0,0.0,0.0,0.0,0.0,0.0,0.0,0.0,0.0,0.0,0.0,0.0,0.0,0.0,0.0,0.0,0.0,0.0,0.0,0.0,0.0,0.0,0.0,0.0,0.0,0.0,0.0,0.0,0.0,0.0,0.0,0.0,0.0,0.0,0.0,0.0,0.0,0.0,0.0,0.0,0.0,0.0,0.0,0.0,0.0,0.0,0.0,0.0,0.0,0.0,0.0,0.0,0.0,0.0,0.0,0.0,0.0,0.0,0.0,0.0,0.0,0.0,0.0,0.0,0.0,0.0,0.0,0.0,0.0,0.0,0.0,0.0,0.0,0.0,0.0,0.0,0.0,0.0,0.0,0.0,0.0,0.0,0.0,0.0,0.0,-0.1819,-0.2032,-0.2348,-0.2662,-0.3406,-0.4047,0.0,0.0,0.0,0.0,0.0,0.0,0.0,0.0,0.0,0.0,0.0,0.0,0.0,0.0,0.0,0.0,0.0,0.0,0.0,0.0,0.0,0.0,0.0,0.0,0.0,0.0,0.0,0.0,0.0,0.0,0.0,0.0,0.0,0.0,0.0,0.0,0.0,0.0,0.0,0.0,0.0,0.0,0.0,0.0,0.0,0.0,0.0,0.0,0.0,0.0,0.0,0.0,0.0,0.0,0.0,0.0,0.0,0.0,0.0,0.0,0.0,0.0,0.0,0.0,0.0,0.0,0.0,0.0,0.0,0.0,0.0,0.0,0.0,0.0,0.0,0.0,0.0,0.0,0.0,0.0,0.0,0.0,0.0,0.0,0.0,0.0,0.0,0.0,0.0,0.0,0.0,0.0,0.0,0.0,0.0,0.0,0.0,0.0,0.0,0.0,0.0,0.0,0.0,0.0,0.0,0.0,0.0,0.0,0.0,-0.1771,-0.2104,-0.2297,-0.2562,-0.3409,-0.4047,0.0,0.0,0.0,0.0,0.0,0.0,0.0,0.0,0.0,0.0,0.0,0.0,0.0,0.0,0.0,0.0,0.0,0.0,0.0,0.0,0.0,0.0,0.0,0.0,0.0,0.0,0.0,0.0,0.0,0.0,0.0,0.0,0.0,0.0,0.0,0.0,0.0,0.0,0.0,0.0,0.0,0.0,0.0,0.0,0.0,0.0,0.0,0.0,0.0,0.0,0.0,0.0,0.0,0.0,0.0,0.0,0.0,0.0,0.0,0.0,0.0,0.0,0.0,0.0,0.0,0.0,0.0,0.0,0.0,0.0,0.0,0.0,0.0,0.0,0.0,0.0,0.0,0.0,0.0,0.0,0.0,0.0,0.0,0.0,0.0,0.0,0.0,0.0,0.0,0.0,0.0,0.0,0.0,0.0,0.0,0.0,0.0,0.0,0.0,0.0,0.0,0.0,0.0,0.0,0.0,0.0,0.0,0.0,-0.1221,-0.1794,-0.202,-0.2335,-0.2617,-0.3485,-0.4029,0.0,0.0,0.0,0.0,0.0,0.0,0.0,0.0,0.0,0.0,0.0,0.0,0.0,0.0,0.0,0.0,0.0,0.0,0.0,0.0,0.0,0.0,0.0,0.0,0.0,0.0,0.0,0.0,0.0,0.0,0.0,0.0,0.0,0.0,0.0,0.0,0.0,0.0,0.0,0.0,0.0,0.0,0.0,0.0,0.0,0.0,0.0,0.0,0.0,0.0,0.0,0.0,0.0,0.0,0.0,0.0,0.0,0.0,0.0,0.0,0.0,0.0,0.0,0.0,0.0,0.0,0.0,0.0,0.0,0.0,0.0,0.0,0.0,0.0,0.0,0.0,0.0,0.0,0.0,0.0,0.0,0.0,0.0,0.0,0.0,0.0,0.0,0.0,0.0,0.0,0.0,0.0,0.0,0.0,0.0,0.0,0.0,0.0,0.0,0.0,0.0,0.0,0.0,0.0,0.0,0.0,0.0,0.0,-0.1234,-0.1794,-0.202,-0.2356,-0.2692,-0.3589,-0.4148,0.0,0.0,0.0,0.0,0.0,0.0,0.0,0.0,0.0,0.0,0.0,0.0,0.0,0.0,0.0,0.0,0.0,0.0,0.0,0.0,0.0,0.0,0.0,0.0,0.0,0.0,0.0,0.0,0.0,0.0,0.0,0.0,0.0,0.0,0.0,0.0,0.0,0.0,0.0,0.0,0.0,0.0,0.0,0.0,0.0,0.0,0.0,0.0,0.0,0.0,0.0,0.0,0.0,0.0,0.0,0.0,0.0,0.0,0.0,0.0,0.0,0.0,0.0,0.0,0.0,0.0,0.0,0.0,0.0,0.0,0.0,0.0,0.0,0.0,0.0,0.0,0.0,0.0,0.0,0.0,0.0,0.0,0.0,0.0,0.0,0.0,0.0,0.0,0.0,0.0,0.0,0.0,0.0,0.0,0.0,0.0,0.0,0.0,0.0,0.0,0.0,0.0,0.0,0.0,0.0,0.0,0.0,0.0,-0.1234,-0.1794,-0.202,-0.2356,-0.2692,-0.3589,-0.4148,0.0,0.0,0.0,0.0,0.0,0.0,0.0,0.0,0.0,0.0,0.0,0.0,0.0,0.0,0.0,0.0,0.0,0.0,0.0,0.0,0.0,0.0,0.0,0.0,0.0,0.0,0.0,0.0,0.0,0.0,0.0,0.0,0.0,0.0,0.0,0.0,0.0,0.0,0.0,0.0,0.0,0.0,0.0,0.0,0.0,0.0,0.0,0.0,-3.5524,0.0,0.0,0.0,0.0,0.0,0.0,0.0,0.0,0.0,0.0,0.0,0.0,0.0,0.0,0.0,0.0,0.0,0.0,0.0,0.0,0.0,0.0,0.0,0.0,0.0,0.0,0.0,0.0,0.0,0.0,0.0,0.0,0.0,0.0,0.0,0.0,0.0,0.0,0.0,0.0,0.0,0.0,0.0,0.0,0.0,0.0,0.0,0.0,0.0,0.0,0.0,0.0,0.0,0.0,0.0,0.0,0.0,0.0,0.0,-0.1234,-0.1794,-0.202,-0.2356,-0.258,-0.3477,-0.4148,0.0,0.0,0.0,0.0,0.0,0.0,0.0,0.0,0.0,0.0,0.0,0.0,0.0,0.0,0.0,0.0,0.0,0.0,0.0,0.0,0.0,0.0,0.0,0.0,0.0,0.0,0.0,0.0,0.0,0.0,0.0,0.0,0.0,0.0,0.0,0.0,0.0,0.0,0.0,0.0,0.0,0.0,0.0,0.0,0.0,0.0,0.0,0.0,0.0,0.0,0.0,0.0,0.0,0.0,0.0,0.0,0.0,0.0,0.0,0.0,0.0,0.0,0.0,0.0,0.0,0.0,0.0,0.0,0.0,0.0,0.0,0.0,0.0,0.0,0.0,0.0,0.0,0.0,0.0,0.0,0.0,0.0,0.0,0.0,0.0,0.0,0.0,0.0,0.0,0.0,0.0,0.0,0.0,0.0,0.0,0.0,0.0,0.0,0.0,0.0,0.0,0.0,0.0,0.0,0.0,0.0,0.0,-0.0561,-0.1235,-0.1801,-0.214,-0.2369,-0.2487,-0.3495,-0.4276,-0.4497,0.0,0.0,0.0,0.0,0.0,0.0,0.0,0.0,0.0,0.0,0.0,0.0,0.0,0.0,0.0,0.0,0.0,0.0,0.0,0.0,0.0,0.0,0.0,0.0,0.0,0.0,0.0,0.0,0.0,0.0,0.0,0.0,0.0,0.0,0.0,0.0,0.0,0.0,-2.8119,-2.9981,0.0,0.0,0.0,0.0,0.0,0.0,0.0,0.0,-3.5716,0.0,0.0,0.0,0.0,0.0,0.0,0.0,0.0,0.0,0.0,0.0,0.0,0.0,0.0,0.0,0.0,0.0,0.0,0.0,0.0,0.0,0.0,0.0,0.0,0.0,0.0,0.0,0.0,0.0,0.0,0.0,0.0,0.0,0.0,0.0,0.0,0.0,0.0,0.0,0.0,0.0,0.0,0.0,0.0,0.0,0.0,0.0,0.0,0.0,0.0,0.0,0.0,0.0,0.0,0.0,0.0,-0.0,-0.0561,-0.1242,-0.1832,-0.2403,-0.2764,-0.2801,-0.3917,-0.4576,-0.4572,0.0,0.0,0.0,0.0,0.0,0.0,0.0,0.0,0.0,0.0,0.0,0.0,0.0,0.0,0.0,0.0,0.0,0.0,0.0,0.0,0.0,0.0,0.0,0.0,0.0,0.0,0.0,0.0,0.0,0.0,0.0,0.0,0.0,0.0,0.0,0.0,0.0,0.0,0.0,-3.0824,-3.1724,0.0,0.0,0.0,0.0,0.0,0.0,0.0,0.0,-3.5716,0.0,0.0,0.0,0.0,0.0,0.0,0.0,0.0,0.0,0.0,0.0,0.0,0.0,0.0,0.0,0.0,0.0,0.0,0.0,0.0,0.0,0.0,0.0,0.0,0.0,0.0,0.0,0.0,0.0,0.0,0.0,0.0,0.0,0.0,0.0,0.0,0.0,0.0,0.0,0.0,0.0,0.0,0.0,0.0,0.0,0.0,0.0,0.0,0.0,0.0,0.0,0.0,0.0,0.0,0.0,-0.0,-0.0561,-0.1244,-0.1839,-0.2528,-0.2894,-0.3058,-0.4088,-0.4749,0.0,0.0,0.0,0.0,0.0,0.0,0.0,0.0,0.0,0.0,0.0,0.0,0.0,0.0,0.0,0.0,0.0,0.0,0.0,0.0,0.0,0.0,0.0,0.0,0.0,0.0,0.0,0.0,0.0,0.0,0.0,0.0,0.0,0.0,0.0,0.0,0.0,0.0,0.0,0.0,-3.1068,-3.1834,-3.2443,0.0,0.0,0.0,0.0,0.0,0.0,-3.6064,-3.6554,0.0,0.0,0.0,0.0,0.0,0.0,0.0,0.0,0.0,0.0,0.0,0.0,0.0,0.0,0.0,0.0,0.0,0.0,0.0,0.0,0.0,0.0,0.0,0.0,0.0,0.0,0.0,0.0,0.0,0.0,0.0,0.0,0.0,0.0,0.0,0.0,0.0,0.0,0.0,0.0,0.0,0.0,0.0,0.0,0.0,0.0,0.0,0.0,0.0,0.0,0.0,0.0,0.0,0.0,0.0,-0.0336,-0.0675,-0.125,-0.1849,-0.2549,-0.2924,-0.3208,-0.4145,-0.4932,0.0,0.0,0.0,0.0,0.0,0.0,0.0,0.0,0.0,0.0,0.0,0.0,0.0,0.0,0.0,0.0,0.0,0.0,0.0,0.0,0.0,0.0,0.0,0.0,0.0,0.0,0.0,0.0,0.0,0.0,0.0,0.0,0.0,0.0,0.0,0.0,0.0,0.0,0.0,0.0,0.0,-3.1819,-3.26,-3.3027,0.0,0.0,0.0,0.0,-3.5985,-3.6748,0.0,0.0,0.0,0.0,0.0,0.0,0.0,0.0,0.0,0.0,0.0,0.0,0.0,0.0,0.0,0.0,0.0,0.0,0.0,0.0,0.0,0.0,0.0,0.0,0.0,0.0,0.0,0.0,0.0,0.0,0.0,0.0,0.0,0.0,0.0,0.0,0.0,0.0,0.0,0.0,0.0,0.0,0.0,0.0,0.0,0.0,0.0,0.0,0.0,0.0,0.0,0.0,0.0,0.0,0.0,0.0,-0.1571,-0.1138,-0.1272,-0.188,-0.2499,-0.2899,-0.3066,-0.4116,-0.4892,0.0,0.0,0.0,0.0,0.0,0.0,0.0,0.0,0.0,0.0,0.0,0.0,0.0,0.0,0.0,0.0,0.0,0.0,0.0,0.0,0.0,0.0,0.0,0.0,0.0,0.0,0.0,0.0,0.0,0.0,0.0,0.0,0.0,0.0,0.0,0.0,0.0,0.0,0.0,0.0,0.0,-3.1979,-3.2967,-3.3218,-3.3765,0.0,0.0,-3.5703,-3.6314,-3.6767,0.0,0.0,0.0,0.0,0.0,0.0,0.0,0.0,0.0,0.0,0.0,0.0,0.0,0.0,0.0,0.0,0.0,0.0,0.0,0.0,0.0,0.0,0.0,0.0,0.0,0.0,0.0,0.0,0.0,0.0,0.0,0.0,0.0,0.0,0.0,0.0,0.0,0.0,0.0,0.0,0.0,0.0,0.0,0.0,0.0,0.0,0.0,0.0,0.0,0.0,0.0,0.0,0.0,0.0,0.0,-0.0561,-0.1795,-0.1596,-0.1622,-0.1885,-0.2512,-0.3037,-0.333,-0.4291,-0.509,0.0,0.0,0.0,0.0,0.0,0.0,0.0,0.0,0.0,0.0,0.0,0.0,0.0,0.0,0.0,0.0,0.0,0.0,0.0,0.0,0.0,0.0,0.0,0.0,0.0,0.0,0.0,0.0,0.0,0.0,0.0,0.0,0.0,0.0,0.0,0.0,0.0,0.0,0.0,0.0,0.0,0.0,-3.3101,-3.3429,0.0,0.0,0.0,-3.6247,-3.674,0.0,0.0,0.0,0.0,0.0,0.0,0.0,0.0,0.0,0.0,0.0,0.0,0.0,0.0,0.0,0.0,0.0,0.0,0.0,0.0,0.0,0.0,0.0,0.0,0.0,0.0,0.0,0.0,0.0,0.0,0.0,0.0,0.0,0.0,0.0,0.0,0.0,0.0,0.0,0.0,0.0,0.0,0.0,0.0,0.0,0.0,0.0,0.0,0.0,0.0,0.0,0.0,0.0,0.0,0.0,0.0,0.0,-0.1581,-0.1836,-0.1983,-0.2015,-0.2648,-0.3169,-0.3576,-0.4441,0.0,0.0,0.0,0.0,0.0,0.0,0.0,0.0,0.0,0.0,0.0,0.0,0.0,0.0,0.0,0.0,0.0,0.0,0.0,0.0,0.0,0.0,0.0,0.0,0.0,0.0,0.0,-2.149,0.0,0.0,0.0,0.0,0.0,0.0,0.0,0.0,0.0,0.0,0.0,0.0,0.0,0.0,-3.3232,-3.3563,-3.3877,-3.457,0.0,0.0,-3.679,-3.7397,-3.8258,-3.8841,0.0,0.0,0.0,0.0,0.0,0.0,0.0,0.0,0.0,0.0,0.0,0.0,0.0,0.0,0.0,0.0,0.0,0.0,0.0,0.0,0.0,0.0,0.0,0.0,0.0,0.0,0.0,0.0,0.0,0.0,0.0,0.0,0.0,0.0,0.0,0.0,0.0,0.0,0.0,0.0,0.0,0.0,0.0,0.0,0.0,0.0,0.0,0.0,0.0,0.0,0.0,0.0,0.0,0.0,0.0,-0.1033,-0.1633,-0.2015,-0.2406,-0.2812,-0.3202,-0.382,-0.4561,-0.5262,0.0,0.0,0.0,0.0,0.0,0.0,0.0,0.0,0.0,0.0,0.0,0.0,0.0,0.0,0.0,0.0,0.0,0.0,0.0,0.0,0.0,0.0,0.0,0.0,0.0,0.0,0.0,0.0,0.0,0.0,0.0,0.0,0.0,0.0,0.0,0.0,0.0,0.0,0.0,0.0,0.0,-3.3475,-3.4482,-3.4594,-3.5205,0.0,0.0,-3.7287,-3.8137,-3.8607,-3.8945,-3.9258,0.0,0.0,0.0,0.0,0.0,0.0,0.0,0.0,0.0,0.0,0.0,0.0,0.0,0.0,0.0,0.0,0.0,0.0,0.0,0.0,0.0,0.0,0.0,0.0,0.0,0.0,0.0,0.0,0.0,0.0,0.0,0.0,0.0,0.0,0.0,0.0,0.0,0.0,0.0,0.0,0.0,0.0,0.0,0.0,0.0,0.0,0.0,0.0,0.0,0.0,0.0,0.0,0.0,-0.0339,-0.1035,-0.1637,-0.2138,-0.2409,-0.2815,-0.333,-0.4192,-0.4807,-0.5651,0.0,0.0,0.0,0.0,0.0,0.0,0.0,0.0,0.0,0.0,0.0,0.0,0.0,0.0,0.0,0.0,0.0,0.0,0.0,0.0,0.0,0.0,0.0,0.0,0.0,0.0,0.0,0.0,-2.4088,-2.4912,-2.5798,0.0,0.0,0.0,0.0,0.0,0.0,0.0,0.0,0.0,0.0,-3.4508,-3.4661,-3.5256,0.0,0.0,-3.7251,-3.7679,-3.8315,-3.8631,-3.8945,-3.9258,-3.949,0.0,0.0,0.0,0.0,0.0,0.0,0.0,0.0,0.0,0.0,0.0,0.0,0.0,0.0,0.0,0.0,0.0,0.0,0.0,0.0,0.0,0.0,0.0,0.0,0.0,0.0,0.0,0.0,0.0,0.0,0.0,0.0,0.0,0.0,0.0,0.0,0.0,0.0,0.0,0.0,0.0,0.0,0.0,0.0,0.0,0.0,0.0,0.0,0.0,0.0,0.0,0.0,-0.0685,-0.105,-0.1652,-0.2153,-0.2548,-0.2821,-0.3453,-0.4561,-0.5053,-0.5916,0.0,0.0,0.0,0.0,0.0,0.0,0.0,0.0,0.0,0.0,0.0,0.0,0.0,0.0,0.0,0.0,0.0,0.0,0.0,0.0,0.0,0.0,0.0,0.0,0.0,0.0,0.0,0.0,-2.4739,-2.5609,-2.6861,0.0,0.0,0.0,0.0,0.0,0.0,0.0,0.0,0.0,0.0,-3.5328,-3.493,-3.5722,-3.6495,-3.7012,-3.7358,-3.7809,-3.8421,-3.8631,-3.8945,-3.9362,0.0,0.0,0.0,0.0,0.0,0.0,0.0,0.0,0.0,0.0,0.0,0.0,0.0,0.0,0.0,0.0,0.0,0.0,0.0,0.0,0.0,0.0,0.0,0.0,0.0,0.0,0.0,0.0,0.0,0.0,0.9361,0.0,0.0,0.0,0.0,0.0,0.0,0.0,0.0,0.0,0.0,0.0,0.0,0.0,0.0,0.0,0.0,0.0,0.0,0.0,0.0,0.0,0.0,-0.1635,-0.1084,-0.1687,-0.2308,-0.2956,-0.296,-0.3576,-0.481,-0.5176,-0.5912,-0.6903,0.0,0.0,0.0,0.0,0.0,0.0,0.0,0.0,0.0,0.0,0.0,0.0,0.0,0.0,0.0,0.0,0.0,0.0,0.0,0.0,0.0,0.0,0.0,0.0,0.0,0.0,-2.4727,-2.5863,-2.6717,0.0,0.0,0.0,0.0,0.0,0.0,0.0,0.0,0.0,0.0,-3.4296,-3.5353,-3.5378,-3.595,-3.6495,-3.7012,-3.7358,-3.7916,-3.8631,-3.8841,-3.905,0.0,0.0,0.0,0.0,0.0,0.0,0.0,0.0,0.0,0.0,0.0,0.0,0.0,0.0,0.0,0.0,0.0,0.0,0.0,0.0,0.0,0.0,0.0,0.0,0.0,0.0,0.0,1.0532,1.0301,0.0,0.0,0.0,0.0,0.0,0.0,0.0,0.0,0.0,0.0,0.0,0.6898,0.6162,0.0,0.0,0.0,0.0,0.0,0.0,0.0,0.0,0.0,0.0,0.0,0.0,-0.1891,-0.1688,-0.2173,-0.2553,-0.296,-0.333,-0.4069,-0.4933,-0.5667,-0.6771,-0.8122,0.0,0.0,0.0,0.0,0.0,0.0,0.0,0.0,0.0,0.0,0.0,0.0,0.0,0.0,0.0,0.0,0.0,0.0,0.0,0.0,0.0,0.0,0.0,0.0,0.0,-2.459,0.0,0.0,0.0,0.0,0.0,0.0,0.0,0.0,0.0,0.0,0.0,-3.1566,-3.3246,-3.4626,-3.5576,-3.595,-3.6472,-3.7036,0.0,0.0,0.0,0.0,0.0,0.0,0.0,0.0,0.0,0.0,0.0,0.0,0.0,0.0,-4.1555,-4.1379,-4.1329,-4.1455,-4.1806,0.0,0.0,0.0,0.0,0.0,0.0,0.0,0.0,0.0,0.0,0.0,0.0,0.0,0.0,1.0824,0.0,1.0119,0.0,0.0,0.0,0.0,0.0,0.0,0.0,0.0,0.8,0.751,0.7021,0.653,0.6039,0.0,0.493,0.4148,0.0,0.0,0.0,0.0,0.0,0.0,0.0,0.0,-0.1797,-0.1945,-0.2312,-0.2688,-0.2958,-0.3574,-0.4192,-0.4933,-0.6162,-0.7383,-0.8854,-0.9579,-1.0422,0.0,0.0,0.0,0.0,0.0,0.0,0.0,0.0,0.0,0.0,0.0,0.0,0.0,0.0,0.0,0.0,0.0,0.0,0.0,0.0,0.0,0.0,0.0,-2.5255,0.0,0.0,0.0,0.0,0.0,0.0,0.0,0.0,0.0,-3.1221,-3.1755,-3.2529,-3.3857,-3.4891,-3.5666,-3.6168,0.0,0.0,0.0,0.0,0.0,0.0,0.0,-4.0483,-4.0696,-4.0533,-4.0674,-4.1764,-4.194,-4.2032,-4.2384,0.0,0.0,-4.1982,-4.1907,-4.2007,-4.2359,-4.2459,-4.2559,-4.2911,-4.2986,-4.2986,0.0,0.0,0.0,0.0,0.0,0.0,0.0,0.0,1.1647,1.1163,0.0,1.0429,0.0,0.0,0.0,0.0,0.0,0.9477,0.0,0.0,0.8512,0.8011,0.7398,0.7035,0.6544,0.5921,0.5186,0.4564,0.3937,0.3279,0.0,0.0,0.0,0.0,0.0,0.0,-0.1338,-0.1974,-0.2344,-0.2714,-0.296,-0.3576,-0.4315,-0.5056,-0.6526,-0.7877,-0.8854,-0.9822,-1.0664,-1.1269,-1.2234,0.0,0.0,0.0,0.0,0.0,0.0,0.0,0.0,0.0,0.0,0.0,0.0,0.0,0.0,0.0,0.0,0.0,0.0,0.0,0.0,-2.5017,0.0,0.0,0.0,0.0,0.0,0.0,0.0,0.0,0.0,0.0,-3.2427,-3.2823,-3.3458,-3.4336,0.0,0.0,0.0,0.0,-3.7463,-3.8285,-3.8924,-3.9682,-4.0389,-4.0814,-4.1031,-4.1247,0.0,0.0,-4.2823,-4.2982,-4.2936,-4.2961,-4.2961,-4.2986,-4.2961,-4.2911,-4.2936,-4.2961,-4.2936,-4.2986,-4.2986,-4.2986,-4.2986,1.8209,0.0,0.0,0.0,0.0,1.428,1.3509,1.3004,1.2507,1.1945,1.1333,1.0971,0.0,0.0,0.0,0.0,0.0,0.0,0.9513,0.9136,0.889,0.8254,0.7617,0.7243,0.6827,0.6389,0.5511,0.4732,0.4192,0.3439,0.2691,0.1948,0.0,0.0,0.0,0.0,-0.1353,-0.1975,-0.2592,-0.296,-0.296,-0.4069,-0.5179,-0.6285,-0.7505,-0.8477,-0.9214,-1.0186,-1.1027,-1.1872,-1.2475,0.0,0.0,0.0,0.0,0.0,0.0,0.0,0.0,0.0,0.0,0.0,0.0,0.0,0.0,0.0,0.0,0.0,0.0,0.0,-2.4684,-2.5569,-2.6227,0.0,0.0,0.0,0.0,0.0,0.0,0.0,0.0,0.0,-3.3135,-3.339,-3.379,0.0,0.0,-3.6633,-3.682,-3.7581,-3.8299,-3.89,-3.9672,0.0,-4.0765,-4.133,-4.1798,-4.1907,-4.2233,-4.2585,-4.2922,-4.3022,-4.2986,-4.2986,-4.2986,-4.2986,-4.2986,-4.2986,-4.2986,-4.2986,-4.2986,-4.2986,-4.2986,-4.2986,-4.2986,1.9101,1.8001,1.7036,1.615,1.5428,1.4721,1.3931,1.3295,1.2918,1.2357,1.1643,1.1268,1.0959,1.05,1.0225,0.0,0.0,0.0,0.9761,0.95,0.9124,0.8742,0.8098,0.7591,0.7174,0.6737,0.5847,0.5175,0.4726,0.3608,0.2855,0.2344,0.0,0.0,-0.0,-0.0617,-0.1359,-0.1977,-0.2716,-0.3083,-0.3207,-0.4564,-0.5794,-0.6898,-0.7872,-0.872,-0.9335,-1.0308,-1.1269,-1.2113,-1.2603,-1.3444,0.0,0.0,0.0,0.0,0.0,0.0,0.0,0.0,0.0,0.0,0.0,-2.05,-2.1203,0.0,0.0,0.0,-2.3456,-2.4178,-2.5558,-2.6131,0.0,0.0,0.0,0.0,0.0,0.0,0.0,-3.1196,-3.2076,-3.2868,-3.3459,-3.3961,-3.445,-3.5268,-3.6128,-3.6874,-3.7317,0.0,-3.8742,-3.9807,-4.0367,-4.0991,-4.1519,-4.2038,-4.2484,-4.2484,-4.276,-4.2961,-4.2986,-4.2986,-4.2986,-4.2986,-4.2986,-4.2986,-4.2986,-4.2986,-4.2986,-4.2986,-4.2986,-4.3037,-4.3237,-4.3313,-4.3363,2.0075,1.9323,1.7926,1.67,1.5839,1.4984,1.414,1.3491,1.3095,1.2455,1.1822,1.1568,1.1187,1.0806,1.0424,0.0,1.0317,1.0317,1.0183,0.9793,0.9538,0.9154,0.8776,0.813,0.7611,0.7217,0.6194,0.5511,0.5052,0.3791,0.3137,0.2966,0.235,0.136,-0.0,-0.0617,-0.1358,-0.2099,-0.2716,-0.3207,-0.3579,-0.5179,-0.6285,-0.6898,-0.7872,-0.872,-0.9335,-1.0301,-1.1269,-1.2234,-1.2844,-1.3684,-1.453,0.0,0.0,0.0,0.0,0.0,0.0,0.0,0.0,0.0,0.0,0.0,0.0,0.0,0.0,0.0,-2.4211,0.0,-2.6264,-2.6879,0.0,0.0,0.0,-2.9405,-2.9964,-3.0697,-3.1277,-3.1636,0.0,0.0,-3.3636,-3.4423,-3.5091,-3.54,-3.5995,-3.6835,-3.7715,-3.8342,-3.9187,-4.0634,-4.1188,-4.1632,-4.2339,-4.2799,-4.2936,-4.2936,-4.2986,-4.2986,-4.2986,-4.2986,-4.2986,-4.2986,-4.2986,-4.2986,-4.2986,-4.2986,-4.2986,-4.2986,-4.3037,-4.3212,-4.3639,-4.3815,-4.3991,2.0946,2.0011,1.9094,1.8083,1.7198,1.6308,1.542,1.4735,1.3935,1.3276,1.2764,1.2114,1.16,1.0955,1.0568,1.05,1.0616,1.0616,1.0484,1.009,0.9695,0.9432,0.903,0.8371,0.7802,0.7331,0.6549,0.585,0.5127,0.4232,0.3565,0.3015,0.2388,0.1374,-0.0,-0.0617,-0.1482,-0.2467,-0.2839,-0.3455,-0.4564,-0.5667,-0.6648,-0.7266,-0.8238,-0.9214,-1.0065,-1.0793,-1.1631,-1.2475,-1.3204,-1.3923,-1.453,-1.5472,0.0,0.0,0.0,0.0,0.0,0.0,0.0,0.0,0.0,-2.1306,-2.2251,0.0,-2.363,0.0,-2.5652,-2.6487,-2.6636,-2.7486,0.0,0.0,-2.9468,-2.985,-3.0532,-3.1137,-3.1856,-3.2406,-3.3098,-3.3749,-3.4177,-3.4869,-3.5533,-3.6059,-3.6928,-3.7645,-3.7895,-3.9268,-4.0401,-4.1052,-4.1731,-4.2389,-4.2824,-4.2986,-4.2986,-4.2986,-4.2986,-4.2986,-4.2986,-4.2986,-4.2986,-4.2986,-4.2986,-4.2986,-4.2986,-4.2986,-4.2986,-4.3011,-4.3313,-4.3639,-4.379,-4.4116,-4.4468,2.1695,2.0894,2.0063,1.9358,1.8561,1.6996,1.6057,1.5366,1.4584,1.3944,1.3451,1.2444,1.1709,1.1112,1.0726,1.0636,1.0717,1.0717,1.0591,1.0459,0.9927,0.9528,0.9389,0.859,0.8025,0.7441,0.6775,0.5935,0.5206,0.4296,0.3622,0.306,0.2423,0.1392,-0.0,-0.0991,-0.1852,-0.259,-0.333,-0.4069,-0.4933,-0.6039,-0.6893,-0.7388,-0.8366,-0.9335,-1.0308,-1.0906,-1.1752,-1.2724,-1.3444,-1.4172,-1.453,-1.5709,-1.6301,0.0,0.0,0.0,0.0,0.0,0.0,0.0,0.0,0.0,0.0,0.0,-2.4315,-2.5327,-2.6273,-2.7,-2.7089,-2.81,-2.9032,-2.9738,-3.0045,-3.0527,-3.1082,-3.1532,-3.2133,-3.282,-3.3296,-3.3861,-3.4401,-3.4958,-3.5621,-3.63,-3.7449,-3.8359,-3.854,-3.985,-4.1013,-4.1619,-4.2114,-4.265,-4.2986,-4.2986,-4.2986,-4.2986,-4.2986,-4.2986,-4.2986,-4.2986,-4.2986,-4.2986,-4.2986,-4.2986,-4.2986,-4.2986,-4.2986,-4.3037,-4.3413,-4.384,-4.4116,-4.4618,-4.5045,2.2355,2.1678,2.0828,2.025,1.9413,1.7612,1.646,1.5739,1.4873,1.4327,1.3771,1.2519,1.1836,1.1311,1.0912,1.0778,1.0778,1.0778,1.0778,1.0778,1.0092,0.9685,0.9685,0.9001,0.8189,0.7526,0.6857,0.6011,0.528,0.4232,0.3415,0.3107,0.233,0.1412,-0.0,-0.1374,-0.2231,-0.259,-0.3822,-0.4564,-0.4933,-0.6162,-0.7021,-0.7505,-0.8366,-0.9342,-1.0308,-1.1035,-1.1752,-1.2715,-1.3684,-1.4411,-1.465,-1.5828,-1.6537,0.0,-1.775,0.0,0.0,0.0,0.0,0.0,0.0,0.0,0.0,-2.4032,-2.5008,-2.6179,-2.6777,-2.7329,-2.7777,-2.8719,-2.9621,-3.0198,-3.0743,-3.1228,-3.1672,-3.1787,-3.2248,-3.3182,-3.3523,-3.3861,-3.4513,-3.5202,-3.573,-3.6432,-3.7699,-3.8729,-3.9276,-4.0314,-4.1345,-4.2037,-4.2425,-4.2737,-4.2986,-4.2986,-4.2986,-4.2986,-4.2986,-4.2986,-4.2986,-4.2986,-4.2986,-4.2986,-4.2986,-4.2986,-4.2986,-4.2986,-4.2986,-4.2986,-4.3413,-4.3915,-4.4367,-4.497,-4.5623,2.279,2.2393,2.1234,2.0519,1.9708,1.8769,1.7798,1.6619,1.5484,1.4327,1.3505,1.2643,1.2201,1.2035,1.1351,1.1077,1.1077,1.1077,1.1077,1.1077,1.0276,0.982,0.9808,0.9035,0.8189,0.7526,0.7121,0.6309,0.5359,0.4557,0.386,0.3152,0.2494,0.1433,-0.0,0.0,0.0,0.0,-0.4195,-0.481,-0.4933,-0.6162,-0.7143,-0.775,-0.8488,0.0,-1.0671,-1.139,-1.2001,-1.2724,-1.3813,0.0,0.0,0.0,0.0,0.0,0.0,0.0,0.0,0.0,0.0,0.0,-2.2961,-2.3444,-2.3867,-2.5463,-2.685,-2.7551,-2.7926,-2.8282,-2.8737,-2.9399,-3.0081,-3.0684,-3.1015,-3.1325,-3.1787,-3.2018,-3.2592,-3.3409,-3.3861,-3.4311,-3.5091,-3.573,-3.6277,-3.6843,-3.7793,-3.8776,-3.9757,-4.094,-4.1938,-4.24,-4.2625,-4.2874,-4.2986,-4.2986,-4.2986,-4.2986,-4.2986,-4.2986,-4.2986,-4.2986,-4.2986,-4.2986,-4.2986,-4.2986,-4.2986,-4.2986,-4.2986,-4.2986,-4.3413,-4.384,-4.3966,-4.4769,-4.5522,2.3216,0.0,2.1946,2.1065,0.0,1.9547,1.8649,1.7278,1.6091,1.497,1.3775,1.2804,1.2343,1.2268,1.1579,1.1165,1.1165,1.1165,1.1165,1.1158,1.0397,0.9954,0.9948,0.9137,0.8272,0.7598,0.7009,0.6317,0.5379,0.444,0.3756,0.3195,0.2532,0.1587,0.0391,-0.1294,-0.2425,-0.2995,-0.4209,-0.4933,-0.4933,-0.6162,-0.7266,-0.7872,0.0,0.0,0.0,0.0,0.0,0.0,0.0,0.0,0.0,0.0,0.0,-1.766,-1.8401,-1.9322,-2.0214,-2.097,-2.1925,-2.2842,-2.3978,-2.4711,-2.5076,-2.6349,-2.7315,-2.79,-2.8498,-2.882,-2.8947,-2.9728,-3.0294,-3.0801,-3.1112,-3.1441,-3.1787,-3.2248,-3.282,-3.3501,-3.3974,-3.4534,-3.5312,-3.595,-3.6495,-3.7059,-3.8024,-3.8984,-4.0062,-4.1041,-4.1879,-4.2575,-4.2874,-4.2986,-4.2986,-4.2986,-4.2986,-4.2986,-4.2986,-4.2986,-4.2986,-4.2986,-4.2986,-4.2986,-4.2986,-4.2986,-4.2986,-4.2986,-4.2986,-4.3011,-4.3187,-4.3388,-4.3438,-4.4292,-4.507,2.3606,2.3108,2.2668,2.1776,2.0352,2.0146,1.9151,1.7622,0.0,0.0,0.0,1.2982,1.2485,1.2358,1.1657,1.1246,1.124,1.1246,1.124,1.124,1.0525,1.0095,1.0089,0.9268,0.8376,0.7669,0.6914,0.6065,0.5379,0.4171,0.3362,0.3094,0.2558,0.1606,0.0397,-0.1304,-0.2446,-0.3052,-0.425,-0.4823,-0.4937,-0.6162,-0.7266,-0.7872,-0.8488,-0.9457,-1.0785,-1.139,-1.2122,-1.2724,-1.3933,-1.4769,-1.5235,-1.6098,-1.7054,-1.7973,-1.8684,-1.9676,-2.0765,-2.1589,-2.2334,-2.334,-2.4857,-2.5855,-2.6205,-2.6935,-2.7418,-2.802,-2.8737,-2.9057,-2.9183,-2.9846,-3.0509,-3.1015,-3.1228,-3.1556,-3.1903,-3.2477,-3.3048,-3.3501,-3.4177,-3.4869,-3.54,-3.6059,-3.6603,-3.719,-3.8013,-3.9213,-4.0365,-4.1299,-4.2004,-4.2774,-4.2986,-4.2986,-4.2986,-4.2986,-4.2986,-4.2986,-4.2986,-4.2986,-4.2986,-4.2986,-4.2986,-4.2986,-4.2986,-4.2986,-4.2986,-4.2986,-4.2986,-4.2986,-4.2986,-4.2986,-4.3062,-4.3689,-4.4317,2.3722,2.3387,2.2955,2.2042,2.0614,2.058,1.9446,1.7622,1.5845,1.4893,1.4441,1.3294,1.2708,1.2686,1.1837,1.1552,1.1558,1.1558,1.1558,1.1552,1.0715,1.0235,1.0229,0.926,0.8454,0.7679,0.6979,0.6118,0.5386,0.39,0.3228,0.3094,0.2558,0.121,-0.067,-0.172,-0.2494,-0.3144,-0.4082,-0.4624,-0.4937,-0.6162,-0.7266,-0.7872,-0.861,-0.9464,-1.0785,-1.139,-1.2242,-1.3084,-1.4052,-1.5007,-1.5946,-1.6492,-1.7349,-1.874,-1.9524,-2.0451,-2.1533,-2.2391,-2.3435,-2.4734,-2.5594,-2.6327,-2.6952,-2.7539,-2.8037,-2.8397,-2.8975,-2.9549,-2.9785,-3.0138,-3.0762,-3.154,-3.1712,-3.1903,-3.2133,-3.2727,-3.3296,-3.3636,-3.4423,-3.5069,-3.5708,-3.6472,-3.7036,-3.7489,-3.8238,-3.9038,-4.0557,-4.1988,-4.2724,-4.2961,-4.2986,-4.2986,-4.2986,-4.2986,-4.2986,-4.2986,-4.2986,-4.2986,-4.2986,-4.2986,-4.2986,-4.2986,-4.2986,-4.2986,-4.2986,-4.2986,-4.2986,-4.2986,-4.2986,-4.2986,-4.2986,-4.3187,-4.325,2.4188,2.3451,2.329,2.2335,2.0877,1.9839,1.8854,1.7679,1.6131,1.5102,1.4625,1.3325,1.2753,1.2753,1.19,1.1619,1.1619,1.1619,1.1619,1.1613,1.083,1.037,1.0352,0.9242,0.8318,0.7845,0.6819,0.6061,0.5311,0.3947,0.3253,0.3096,0.2154,0.0673,-0.1076,-0.1873,-0.2524,-0.3165,-0.4002,-0.469,-0.4994,-0.6234,-0.7197,-0.7872,-0.8726,-0.97,-1.0785,-1.1631,-1.2354,-1.3204,-1.4279,-1.5304,-1.6275,-1.6983,-1.8033,-1.928,-2.0028,-2.0859,-2.1894,-2.3142,-2.4363,-2.5365,-2.6205,-2.6935,-2.7539,-2.7779,-2.8259,-2.8755,-2.9331,-2.9785,-2.9865,-3.0372,-3.1035,-3.1696,-3.1848,-3.2018,-3.2477,-3.3048,-3.3636,-3.4065,-3.4758,-3.5423,-3.6036,-3.6712,-3.7251,-3.7643,-3.8621,-3.9898,-4.0956,-4.2148,-4.2986,-4.2986,-4.2986,-4.2986,-4.2986,-4.2986,-4.2986,-4.2986,-4.2986,-4.2986,-4.2986,-4.2986,-4.2986,-4.2986,-4.2986,-4.2986,-4.2986,-4.2986,-4.2986,-4.2986,-4.2986,-4.2986,-4.2986,-4.2986,-4.3037,2.4455,2.3438,2.3438,2.2558,2.0898,1.9211,1.8249,1.791,1.6277,1.55,1.4914,1.3546,1.279,1.2753,1.19,1.1619,1.1619,1.1619,1.1619,1.1476,1.0894,1.0455,1.0305,0.9204,0.8297,0.7846,0.6782,0.5869,0.5388,0.3989,0.3137,0.283,0.1749,0.0404,-0.1077,-0.1885,-0.2545,-0.3179,-0.406,-0.4643,-0.5069,-0.6328,-0.7296,-0.7959,-0.894,-0.9924,-1.0904,-1.1874,-1.2725,-1.3471,-1.4597,-1.5666,-1.6652,-1.7491,-1.858,-1.9649,-2.0486,-2.1368,-2.2452,-2.3867,-2.498,-2.5717,-2.6587,-2.7315,-2.79,-2.814,-2.8498,-2.9094,-2.9568,-2.9884,-2.9944,-3.047,-3.1132,-3.1772,-3.1828,-3.2133,-3.2706,-3.3275,-3.384,-3.4401,-3.4958,-3.5643,-3.6277,-3.682,-3.7358,-3.8011,-3.9428,-4.0582,-4.1214,-4.2283,-4.2911,-4.2986,-4.2986,-4.2986,-4.2986,-4.2986,-4.2986,-4.2986,-4.2986,-4.2986,-4.2986,-4.2986,-4.2986,-4.2986,-4.2986,-4.2986,-4.2986,-4.2986,-4.2986,-4.2986,-4.2986,-4.2986,-4.2986,-4.2986,-4.2986,2.4455,2.3464,2.3438,2.2558,2.091,1.9218,1.8481,1.813,1.6628,1.5773,1.5406,1.3775,1.2902,1.2768,1.1907,1.1626,1.1619,1.1619,1.1619,1.1476,1.0887,1.0455,1.0455,0.9285,0.8371,0.7865,0.6847,0.5951,0.5457,0.4008,0.3002,0.2293,0.1481,0.0404,-0.1077,-0.1885,-0.2556,-0.3222,-0.3887,-0.4625,-0.5151,-0.6554,-0.7439,-0.8193,-0.9203,-1.0229,-1.1225,-1.2247,-1.3242,-1.4126,-1.5132,-1.6145,-1.7168,-1.8132,-1.9025,-2.0047,-2.1034,-2.2215,-2.3728,-2.461,-2.5349,-2.5961,-2.6692,-2.7435,-2.802,-2.8517,-2.9094,-2.9468,-2.9686,-2.9884,-2.9944,-3.049,-3.1112,-3.1712,-3.1808,-3.2133,-3.2955,-3.3409,-3.3861,-3.4423,-3.5091,-3.5753,-3.6472,-3.6928,-3.7596,-3.8518,-3.9511,-4.0582,-4.1372,-4.2283,-4.2986,-4.2986,-4.2986,-4.2986,-4.2986,-4.2986,-4.2986,-4.2986,-4.2986,-4.2986,-4.2986,-4.2986,-4.2986,-4.2986,-4.2986,-4.2986,-4.2986,-4.2986,-4.2986,-4.2986,-4.2986,-4.2986,-4.2986,-4.2986,-4.2986,2.4599,2.3451,2.3438,2.2558,2.091,1.9249,1.8441,1.8049,1.6688,1.5824,1.5193,1.3917,1.3148,1.2902,1.2032,1.1701,1.1619,1.1619,1.1619,1.1476,1.0887,1.0455,1.0311,0.9013,0.8271,0.7949,0.6645,0.5743,0.5097,0.3751,0.2742,0.2181,0.1893,0.0808,-0.0943,-0.1885,-0.2558,-0.3228,-0.3897,-0.4678,-0.5423,-0.6549,-0.7528,-0.8231,-0.9373,-1.0517,-1.1538,-1.254,-1.3546,-1.4558,-1.5554,-1.6506,-1.7531,-1.8644,-1.9537,-2.0433,-2.1783,-2.2981,-2.4363,-2.498,-2.5717,-2.6571,-2.7297,-2.7797,-2.8295,-2.9075,-2.9822,-3.0024,-3.0192,-3.0255,-3.049,-3.0859,-3.1344,-3.1828,-3.2038,-3.2498,-3.3296,-3.3749,-3.4199,-3.4958,-3.5511,-3.6168,-3.6843,-3.7369,-3.8048,-3.9145,-3.9888,-4.0671,-4.1672,-4.2484,-4.2911,-4.2986,-4.2986,-4.2986,-4.2986,-4.2986,-4.2986,-4.2986,-4.2986,-4.2986,-4.2986,-4.2986,-4.2986,-4.2986,-4.2986,-4.2986,-4.2986,-4.2986,-4.2986,-4.2986,-4.2986,-4.2986,-4.2986,-4.2986,-4.2986,2.4605,2.3578,2.3042,2.2109,2.0921,1.9249,1.8329,1.7873,1.6662,1.5819,1.5236,1.4166,1.3409,1.3008,1.2206,1.1816,1.1694,1.1674,1.1509,1.1338,1.075,1.0455,1.0167,0.8874,0.8155,0.786,0.6551,0.5499,0.4715,0.3511,0.2637,0.2072,0.2046,0.1083,-0.0947,-0.189,-0.2558,-0.3228,-0.39,-0.4705,-0.5637,-0.6784,-0.7631,-0.8199,-0.9613,-1.0899,-1.2059,-1.3071,-1.3961,-1.4974,-1.6022,-1.7008,-1.792,-1.9218,-2.0348,-2.1235,-2.2606,-2.3728,-2.4734,-2.5568,-2.6371,-2.7227,-2.8026,-2.8581,-2.8998,-2.9841,-3.0475,-3.0838,-3.093,-3.1013,-3.1329,-3.1564,-3.1956,-3.2601,-3.2793,-3.3078,-3.3925,-3.4361,-3.4971,-3.5714,-3.6339,-3.702,-3.7651,-3.8024,-3.8419,-3.9766,-4.0597,-4.1065,-4.2048,-4.261,-4.2986,-4.2986,-4.2986,-4.2986,-4.2986,-4.2986,-4.2986,-4.2986,-4.2986,-4.2986,-4.2986,-4.2986,-4.2986,-4.2986,-4.2986,-4.2986,-4.2986,-4.2986,-4.2986,-4.2986,-4.2986,-4.2986,-4.2986,-4.2986,-4.2986,2.457,2.3669,2.1916,2.1222,2.0921,1.9249,1.8329,1.7873,1.6662,1.6042,1.5412,1.4176,1.3632,1.3453,1.2571,1.1972,1.1837,1.1809,1.1451,1.1063,1.0606,1.0311,0.9879,0.8729,0.8155,0.786,0.6551,0.5069,0.3723,0.3284,0.2412,0.1261,0.166,0.0961,-0.0959,-0.1899,-0.2558,-0.3228,-0.3897,-0.4836,-0.5912,-0.6982,-0.7636,-0.8143,-0.9757,-1.1344,-1.2676,-1.3726,-1.4754,-1.5404,-1.6711,-1.7765,-1.8547,-1.9839,-2.1222,-2.2731,-2.3619,-2.4363,-2.5167,-2.629,-2.7339,-2.7761,-2.8853,-2.9723,-3.0002,-3.0709,-3.1256,-3.1642,-3.1886,-3.2211,-3.2293,-3.2455,-3.3015,-3.3974,-3.4031,-3.4282,-3.4891,-3.5388,-3.6121,-3.6767,-3.736,-3.8101,-3.9148,-3.8547,-3.9141,-4.0498,-4.1932,-4.2604,-4.2308,-4.266,-4.2936,-4.2986,-4.2986,-4.2986,-4.2986,-4.2986,-4.2986,-4.2986,-4.2986,-4.2986,-4.2986,-4.2986,-4.2986,-4.2986,-4.2986,-4.2986,-4.2986,-4.2986,-4.2986,-4.2986,-4.2986,-4.2986,-4.2986,-4.2986,-4.2986,2.4315,2.3142,2.1707,2.091,2.0447,1.9249,1.8035,1.7111,1.651,1.5897,1.5122,1.4199,1.3707,1.3647,1.2671,1.221,1.1986,1.1877,1.1657,1.116,1.0787,1.0311,0.9735,0.8729,0.8005,0.757,0.6406,0.4944,0.362,0.2874,0.2142,0.0994,-0.014,-0.0832,-0.1238,-0.2189,-0.2853,-0.3232,-0.4168,-0.4973,-0.5912,-0.7254,-0.8189,-0.8839,-1.0047,-1.138,-1.27,-1.3875,-1.4922,-1.6104,-1.7012,-1.7916,-1.8956,-2.0602,-2.1978,-2.3135,-2.4299,-2.5312,-2.5842,-2.7152,-2.8105,-2.8622,-2.9457,-3.0185,-3.0594,-3.1399,-3.1941,-3.2227,-3.2832,-3.3322,-3.3574,-3.3214,-3.3256,-3.4015,-3.4351,-3.4825,-3.5488,-3.5954,-3.6534,-3.7337,-3.8132,-3.903,-3.9633,-3.9671,-4.0037,-4.1285,-4.2298,-4.2796,-4.2846,-4.2886,-4.2986,-4.2986,-4.2986,-4.2986,-4.2986,-4.2986,-4.2986,-4.2986,-4.2986,-4.2986,-4.2986,-4.2986,-4.2986,-4.2986,-4.2986,-4.2986,-4.2986,-4.2986,-4.2986,-4.2986,-4.2986,-4.2986,-4.2986,-4.2986,-4.2986,2.396,2.2594,2.1522,2.0748,2.0124,1.9088,1.7873,1.6806,1.6357,1.5744,1.4814,1.4053,1.359,1.3428,1.2811,1.24,1.2203,1.2054,1.1656,1.1154,1.073,1.0233,0.9646,0.8599,0.786,0.7421,0.597,0.4662,0.3498,0.2749,0.1873,0.1151,-0.1137,-0.2109,-0.1673,-0.2497,-0.316,-0.353,-0.4333,-0.5268,-0.6321,-0.7383,-0.859,-0.951,-1.0585,-1.1776,-1.3227,-1.4277,-1.5323,-1.6364,-1.7411,-1.8466,-2.008,-2.1624,-2.3073,-2.3933,-2.514,-2.6165,-2.6843,-2.7899,-2.8881,-2.9529,-3.0265,-3.0946,-3.1233,-3.196,-3.2488,-3.2816,-3.3348,-3.4047,-3.4198,-3.4003,-3.4024,-3.4627,-3.4987,-3.5465,-3.6317,-3.6788,-3.7488,-3.8436,-3.9282,-3.9914,-4.0561,-4.0867,-4.1373,-4.2077,-4.2649,-4.2961,-4.2986,-4.2986,-4.2986,-4.2986,-4.2986,-4.2986,-4.2986,-4.2986,-4.2986,-4.2986,-4.2986,-4.2986,-4.2986,-4.2986,-4.2986,-4.2986,-4.2986,-4.2986,-4.2986,-4.2986,-4.2986,-4.2986,-4.2986,-4.2986,-4.2986,-4.2986,-4.2986,2.3491,2.2295,2.1372,2.0586,1.9801,1.8936,1.7883,1.6806,1.6357,1.559,1.4515,1.3898,1.3428,1.312,1.2656,1.2488,1.244,1.2318,1.1737,1.1014,1.0724,1.0216,0.9465,0.8499,0.7869,0.7276,0.5241,0.3935,0.35,0.277,0.1894,0.0873,-0.1008,-0.2145,-0.2288,-0.282,-0.3343,-0.3858,-0.4532,-0.5594,-0.6866,-0.7818,-0.8895,-1.0219,-1.129,-1.2616,-1.4077,-1.495,-1.5844,-1.6655,-1.7821,-1.9732,-2.1639,-2.2964,-2.4232,-2.537,-2.5992,-2.6918,-2.7984,-2.8801,-2.9538,-3.032,-3.1267,-3.1907,-3.227,-3.2708,-3.298,-3.3359,-3.3757,-3.4047,-3.4548,-3.4964,-3.5396,-3.589,-3.6131,-3.6617,-3.7287,-3.7954,-3.8812,-3.9896,-4.0429,-4.1033,-4.172,-4.1938,-4.2164,-4.2637,-4.2936,-4.2986,-4.2986,-4.2986,-4.2986,-4.2986,-4.2986,-4.2986,-4.2986,-4.2986,-4.2986,-4.2986,-4.2986,-4.2986,-4.2986,-4.2986,-4.2986,-4.2986,-4.2986,-4.2986,-4.2986,-4.2986,-4.2986,-4.2986,-4.2986,-4.2986,-4.2986,-4.2986,-4.2986,2.3352,2.1834,2.1372,2.0447,1.938,1.8785,1.7731,1.651,1.6203,1.5599,1.4515,1.3898,1.3436,1.312,1.2656,1.2501,1.2494,1.2447,1.1893,1.1151,1.0865,1.0162,0.9203,0.8568,0.7628,0.6268,0.4517,0.3646,0.3356,0.2627,0.1898,0.1021,-0.0582,-0.1733,-0.2293,-0.2991,-0.3531,-0.3909,-0.5153,-0.6387,-0.7598,-0.856,-0.9793,-1.1159,-1.2384,-1.3477,-1.4684,-1.5478,-1.6316,-1.738,-1.8557,-2.0241,-2.2428,-2.3796,-2.4759,-2.588,-2.6761,-2.7665,-2.8486,-2.955,-3.0295,-3.1084,-3.1835,-3.2403,-3.2676,-3.3038,-3.3418,-3.367,-3.4047,-3.4423,-3.5046,-3.5418,-3.5932,-3.6178,-3.6789,-3.7374,-3.7998,-3.8953,-3.9896,-4.0479,-4.1057,-4.1516,-4.1972,-4.2037,-4.2351,-4.2849,-4.2986,-4.2986,-4.2986,-4.2986,-4.2986,-4.2986,-4.2986,-4.3112,-4.3237,-4.3313,-4.3313,-4.3212,-4.3112,-4.2986,-4.2986,-4.2986,-4.2986,-4.2986,-4.2986,-4.2986,-4.2986,-4.2986,-4.2986,-4.2986,-4.2986,-4.2986,-4.2986,-4.2986,-4.2986,2.3187,2.1672,2.1222,2.0145,1.8916,1.8633,1.7731,1.6357,1.6203,1.5437,1.4207,1.3898,1.3428,1.2965,1.2656,1.2501,1.2501,1.2501,1.1991,1.1281,1.1005,1.0289,0.9004,0.8035,0.7072,0.5693,0.4228,0.3502,0.3648,0.2773,0.1752,0.073,-0.0584,-0.1744,-0.2596,-0.3169,-0.3723,-0.4387,-0.5648,-0.6894,-0.798,-0.9226,-1.0474,-1.1848,-1.3086,-1.4318,-1.5526,-1.6358,-1.7335,-1.8392,-1.9735,-2.1582,-2.3562,-2.4654,-2.5612,-2.6679,-2.7604,-2.8387,-2.9362,-3.0219,-3.1009,-3.1653,-3.2166,-3.2676,-3.2931,-3.3292,-3.367,-3.3922,-3.4298,-3.4797,-3.5294,-3.5809,-3.63,-3.6789,-3.7132,-3.7736,-3.8596,-3.9638,-4.0363,-4.0826,-4.1287,-4.1745,-4.2061,-4.21,-4.2413,-4.2849,-4.2986,-4.2986,-4.2986,-4.2986,-4.3062,-4.3187,-4.3338,-4.3489,-4.3614,-4.3664,-4.3639,-4.3489,-4.3313,-4.3112,-4.2986,-4.2986,-4.2986,-4.2986,-4.2986,-4.2986,-4.2986,-4.2986,-4.2986,-4.2986,-4.3087,-4.2986,-4.2986,-4.2986,-4.2986,2.3187,2.1522,2.121,1.9984,1.8431,1.8481,1.7731,1.6357,1.6203,1.5283,1.4045,1.3744,1.3274,1.2656,1.2501,1.2501,1.2501,1.2347,1.2037,1.1374,1.098,1.0292,0.902,0.736,0.6363,0.556,0.4241,0.3652,0.3648,0.2627,0.146,0.0146,-0.0876,-0.1898,-0.2912,-0.3352,-0.4054,-0.5015,-0.6008,-0.7106,-0.8433,-0.9538,-1.0935,-1.2321,-1.37,-1.522,-1.6596,-1.7912,-1.8676,-1.9201,-2.1224,-2.312,-2.4525,-2.5642,-2.6703,-2.7587,-2.8279,-2.9213,-3.0195,-3.0843,-3.1525,-3.191,-3.2422,-3.2931,-3.3058,-3.3623,-3.4041,-3.4167,-3.4709,-3.521,-3.5728,-3.6368,-3.6961,-3.7483,-3.7824,-3.8238,-3.9167,-3.9919,-4.0597,-4.1177,-4.1565,-4.1956,-4.2673,-4.2411,-4.2612,-4.3075,-4.3237,-4.3288,-4.3288,-4.3413,-4.3413,-4.3589,-4.3815,-4.3915,-4.4091,-4.4116,-4.4091,-4.3966,-4.379,-4.3589,-4.3388,-4.3363,-4.3363,-4.3313,-4.3212,-4.3137,-4.3187,-4.3363,-4.3388,-4.3463,-4.3388,-4.3112,-4.3162,-4.3338,-4.3388,2.3035,2.1222,2.1071,2.0145,1.8633,1.8643,1.7731,1.6357,1.6203,1.5283,1.3898,1.3744,1.3274,1.2501,1.2501,1.2501,1.2501,1.2192,1.1882,1.1256,1.0922,1.007,0.8607,0.6978,0.5982,0.5327,0.4288,0.3533,0.321,0.2192,0.1022,-0.0,-0.1315,-0.2335,-0.3063,-0.3644,-0.4364,-0.5219,-0.6661,-0.7805,-0.9066,-1.0191,-1.1484,-1.2909,-1.4305,-1.57,-1.7256,-1.9611,-2.0885,-2.1129,-2.2647,-2.3997,-2.5293,-2.6377,-2.7338,-2.8328,-2.8592,-2.923,-3.0473,-3.1156,-3.1672,-3.2166,-3.2753,-3.3058,-3.3564,-3.4092,-3.4632,-3.5093,-3.5824,-3.6517,-3.715,-3.7777,-3.8649,-3.9566,-3.9311,-3.914,-3.9895,-4.0693,-4.1399,-4.2031,-4.2647,-4.3143,-4.3466,-4.3292,-4.3193,-4.3901,-4.4116,-4.4091,-4.3991,-4.4016,-4.4066,-4.4242,-4.4418,-4.4468,-4.4518,-4.4543,-4.4543,-4.4468,-4.4252,-4.4177,-4.4077,-4.4192,-4.4217,-4.4242,-4.3991,-4.389,-4.4066,-4.4242,-4.4166,-4.394,-4.3991,-4.3915,-4.4091,-4.4242,-4.4192,2.2955,2.122,2.1117,2.0156,1.8643,1.8491,1.7578,1.6357,1.605,1.513,1.3898,1.3744,1.3274,1.2501,1.2501,1.2501,1.2501,1.2037,1.1727,1.1107,1.033,0.9336,0.8166,0.6876,0.5758,0.5095,0.4043,0.3582,0.3115,0.1917,0.0588,-0.0588,-0.1756,-0.2627,-0.3209,-0.3789,-0.4662,-0.5677,-0.7127,-0.8435,-0.9735,-1.1031,-1.2459,-1.3888,-1.5168,-1.6583,-1.8552,-2.078,-2.2082,-2.2672,-2.3718,-2.4902,-2.5996,-2.6934,-2.7849,-2.8905,-2.9236,-2.9979,-3.1132,-3.1911,-3.2543,-3.3062,-3.345,-3.3836,-3.4408,-3.4863,-3.5369,-3.6049,-3.666,-3.7403,-3.8186,-3.917,-3.9916,-4.0541,-4.0634,-4.0644,-4.0999,-4.1638,-4.2279,-4.2964,-4.3512,-4.406,-4.4319,-4.3954,-4.407,-4.4427,-4.5092,-4.49,-4.4709,-4.4669,-4.4769,-4.4895,-4.502,-4.5095,-4.5271,-4.5347,-4.5296,-4.5196,-4.4978,-4.4903,-4.4703,-4.4819,-4.4694,-4.4669,-4.4644,-4.4669,-4.4744,-4.4744,-4.4518,-4.4418,-4.4593,-4.4669,-4.4694,-4.4869,-4.4819,2.2899,2.1414,2.1174,2.0156,1.8643,1.8177,1.7264,1.6203,1.5744,1.4976,1.3898,1.3744,1.3281,1.2501,1.2501,1.2501,1.2501,1.2037,1.1572,1.0796,0.9703,0.8576,0.7894,0.6803,0.5676,0.4709,0.3942,0.3482,0.3014,0.1794,0.0447,-0.104,-0.2065,-0.2789,-0.3527,-0.3953,-0.4965,-0.6275,-0.757,-0.8863,-1.0305,-1.1749,-1.3325,-1.475,-1.65,-1.8237,-2.0087,-2.1761,-2.2979,-2.3653,-2.4703,-2.5667,-2.6744,-2.7531,-2.8527,-2.9372,-3.0073,-3.0725,-3.2074,-3.3294,-3.3898,-3.4085,-3.4478,-3.4969,-3.5281,-3.5731,-3.635,-3.6867,-3.7294,-3.821,-3.9226,-4.0265,-4.093,-4.1345,-4.1962,-4.2326,-4.2567,-4.276,-4.319,-4.3831,-4.4184,-4.4469,-4.4703,-4.4794,-4.4844,-4.5078,-4.5582,-4.5582,-4.5389,-4.5246,-4.5372,-4.5522,-4.5648,-4.5748,-4.5974,-4.62,-4.6125,-4.6024,-4.5924,-4.5773,-4.5347,-4.5338,-4.502,-4.497,-4.5221,-4.5246,-4.5121,-4.502,-4.4895,-4.4995,-4.5246,-4.5095,-4.492,-4.5196,-4.5271,2.2899,2.1414,2.0849,1.9844,1.8643,1.7883,1.6968,1.6203,1.5744,1.4814,1.3898,1.3744,1.3281,1.2501,1.2501,1.2501,1.2347,1.1727,1.1107,1.0175,0.9246,0.8301,0.7648,0.6711,0.5587,0.4619,0.3993,0.3364,0.258,0.1665,0.0302,-0.1205,-0.2554,-0.3454,-0.3746,-0.4601,-0.5468,-0.6635,-0.7906,-0.9323,-1.0624,-1.2065,-1.3642,-1.5212,-1.7755,-2.0071,-2.1802,-2.3258,-2.4399,-2.5322,-2.5992,-2.683,-2.7645,-2.8906,-2.9969,-3.0338,-3.0519,-3.1123,-3.2858,-3.4335,-3.5093,-3.4429,-3.4956,-3.5381,-3.5661,-3.6636,-3.7301,-3.7775,-3.8569,-3.9455,-4.0612,-4.1443,-4.2131,-4.2584,-4.3103,-4.3668,-4.4036,-4.3966,-4.4108,-4.466,-4.5171,-4.5565,-4.5779,-4.5824,-4.5849,-4.5924,-4.5949,-4.6144,-4.6043,-4.5799,-4.5874,-4.5949,-4.5999,-4.605,-4.615,-4.6401,-4.6381,-4.6456,-4.6577,-4.6602,-4.632,-4.6069,-4.5874,-4.5899,-4.5999,-4.5874,-4.5598,-4.5748,-4.5723,-4.5824,-4.5849,-4.5723,-4.5648,-4.5748,-4.5723,2.2496,2.1574,2.0591,1.9542,1.8491,1.7578,1.6815,1.605,1.5283,1.4515,1.3737,1.3583,1.3127,1.2501,1.2501,1.2501,1.2347,1.1727,1.0796,0.9864,0.909,0.8154,0.7213,0.6584,0.5624,0.4199,0.3886,0.3252,0.2312,0.1226,-0.0,-0.1374,-0.2737,-0.3629,-0.4086,-0.5109,-0.6141,-0.7327,-0.8627,-1.0064,-1.1231,-1.2692,-1.472,-1.6596,-1.9162,-2.1174,-2.2561,-2.387,-2.5144,-2.6424,-2.7385,-2.8122,-2.8542,-2.9783,-3.0701,-3.1361,-3.1208,-3.1899,-3.3535,-3.4969,-3.5815,-3.5312,-3.5692,-3.611,-3.6659,-3.741,-3.802,-3.8629,-3.9432,-4.0388,-4.1678,-4.242,-4.2949,-4.3451,-4.395,-4.4446,-4.4915,-4.4817,-4.4767,-4.53,-4.5739,-4.5985,-4.618,-4.6451,-4.6351,-4.6225,-4.62,-4.6371,-4.62,-4.61,-4.615,-4.6225,-4.625,-4.6301,-4.6351,-4.6502,-4.6581,-4.6756,-4.6932,-4.7057,-4.7129,-4.6979,-4.6878,-4.6728,-4.6451,-4.6276,-4.61,-4.6301,-4.6376,-4.62,-4.615,-4.6276,-4.625,-4.6075,-4.6169,2.2078,2.1699,2.0331,1.9239,1.8491,1.7273,1.651,1.605,1.4976,1.4207,1.3744,1.3274,1.2965,1.2501,1.2501,1.2501,1.2037,1.1572,1.0641,0.9553,0.909,0.8154,0.706,0.6431,0.5489,0.3925,0.392,0.3447,0.2345,0.0934,-0.0464,-0.1545,-0.276,-0.3672,-0.4421,-0.5616,-0.6823,-0.8031,-0.9495,-1.0971,-1.2317,-1.38,-1.5865,-1.8571,-2.0474,-2.1993,-2.3209,-2.4657,-2.5924,-2.7305,-2.8818,-2.9486,-3.0015,-3.0463,-3.13,-3.2286,-3.2105,-3.2911,-3.4237,-3.5549,-3.6307,-3.6539,-3.6614,-3.7018,-3.7575,-3.8067,-3.8618,-3.9473,-4.0345,-4.1365,-4.2303,-4.3275,-4.3781,-4.426,-4.4736,-4.5207,-4.5576,-4.5699,-4.5846,-4.5942,-4.6284,-4.6506,-4.6581,-4.6778,-4.6627,-4.6527,-4.6527,-4.6527,-4.6502,-4.6552,-4.6677,-4.6803,-4.6903,-4.6954,-4.6979,-4.7004,-4.7032,-4.7132,-4.7382,-4.7732,-4.7857,-4.7631,-4.7355,-4.7004,-4.6753,-4.6677,-4.6702,-4.6878,-4.6828,-4.6527,-4.6451,-4.6552,-4.6476,-4.6351,-4.6471,2.2152,2.1471,1.9962,1.9098,1.8339,1.6968,1.6203,1.605,1.4822,1.4207,1.3744,1.3274,1.2811,1.2656,1.2501,1.2192,1.1572,1.1107,1.0486,0.9402,0.8934,0.8154,0.69,0.6431,0.5332,0.4238,0.3925,0.3454,0.2199,0.0784,-0.0781,-0.219,-0.3433,-0.4206,-0.481,-0.5871,-0.7213,-0.8583,-1.0044,-1.1502,-1.2991,-1.4778,-1.7064,-1.9992,-2.163,-2.3177,-2.4674,-2.5909,-2.7256,-2.8392,-2.9583,-3.0701,-3.1477,-3.2036,-3.2731,-3.3211,-3.3431,-3.3879,-3.516,-3.6268,-3.6598,-3.6674,-3.7099,-3.7657,-3.8191,-3.8765,-3.9533,-4.0476,-4.1589,-4.27,-4.2982,-4.4115,-4.5039,-4.547,-4.5906,-4.6308,-4.681,-4.701,-4.6886,-4.6909,-4.6982,-4.7079,-4.7154,-4.7255,-4.723,-4.723,-4.7403,-4.7305,-4.728,-4.738,-4.7506,-4.7606,-4.7707,-4.7707,-4.7732,-4.7707,-4.7782,-4.7633,-4.7958,-4.8484,-4.851,-4.8158,-4.7881,-4.7682,-4.7531,-4.7456,-4.7481,-4.7481,-4.733,-4.7079,-4.6954,-4.6853,-4.6803,-4.6753,-4.6844,2.1808,2.1261,1.9648,1.8643,1.8025,1.6815,1.605,1.5744,1.4515,1.3898,1.359,1.312,1.2656,1.2501,1.2501,1.2037,1.1417,1.1262,1.033,0.9246,0.8778,0.7998,0.6744,0.6431,0.5335,0.4238,0.3925,0.3297,0.1886,0.0628,-0.1099,-0.2828,-0.377,-0.4241,-0.5176,-0.6393,-0.777,-0.9141,-1.0632,-1.2119,-1.3627,-1.5887,-1.8509,-2.0511,-2.2485,-2.4035,-2.5437,-2.6808,-2.8114,-2.925,-3.0409,-3.152,-3.2508,-3.3249,-3.3757,-3.4149,-3.4471,-3.4865,-3.5606,-3.6463,-3.6849,-3.7254,-3.7799,-3.8367,-3.8988,-3.9805,-4.0935,-4.1968,-4.2713,-4.3748,-4.4267,-4.5171,-4.5734,-4.6166,-4.67,-4.7104,-4.7457,-4.7583,-4.7808,-4.7883,-4.7757,-4.7682,-4.7682,-4.7757,-4.7708,-4.7908,-4.8133,-4.8158,-4.8033,-4.8083,-4.8159,-4.8109,-4.8134,-4.8134,-4.8209,-4.8309,-4.8335,-4.8209,-4.8435,-4.8964,-4.909,-4.8812,-4.8736,-4.8812,-4.8611,-4.8159,-4.7908,-4.7757,-4.7682,-4.7631,-4.7531,-4.7431,-4.7305,-4.7277,-4.7395,2.1619,2.1182,1.9323,1.8339,1.7731,1.6662,1.5897,1.5437,1.4199,1.3744,1.359,1.2965,1.2501,1.2501,1.2347,1.2037,1.1262,1.1262,1.033,0.909,0.8778,0.7994,0.6744,0.5962,0.5332,0.4081,0.377,0.2983,0.1413,0.0157,-0.157,-0.3142,-0.377,-0.4552,-0.5802,-0.6889,-0.8306,-0.9708,-1.1107,-1.2649,-1.4952,-1.7388,-1.9822,-2.1349,-2.3017,-2.4555,-2.6073,-2.7643,-2.8972,-3.013,-3.1296,-3.2506,-3.3465,-3.4248,-3.4667,-3.4826,-3.5205,-3.5739,-3.6465,-3.7072,-3.7698,-3.8065,-3.8656,-3.9323,-4.0103,-4.1238,-4.2416,-4.359,-4.4233,-4.4495,-4.5279,-4.6045,-4.6529,-4.6987,-4.7499,-4.7932,-4.8006,-4.8359,-4.8534,-4.856,-4.8385,-4.836,-4.8435,-4.851,-4.8611,-4.8611,-4.8863,-4.8686,-4.8661,-4.856,-4.8586,-4.8485,-4.846,-4.846,-4.8586,-4.8837,-4.8862,-4.871,-4.8885,-4.9366,-4.9492,-4.9414,-4.9464,-4.9339,-4.9038,-4.8611,-4.8335,-4.8184,-4.8284,-4.8309,-4.8159,-4.8082,-4.7929,-4.8002,-4.8197,2.1363,2.048,1.9108,1.8187,1.7426,1.651,1.5897,1.5437,1.4199,1.3744,1.359,1.2965,1.2501,1.2501,1.2501,1.2037,1.1572,1.1262,1.033,0.8934,0.8778,0.7838,0.6431,0.5805,0.5022,0.3927,0.3772,0.2828,0.1256,-0.0314,-0.2043,-0.3458,-0.4243,-0.5025,-0.6288,-0.7385,-0.8769,-1.0336,-1.1895,-1.406,-1.713,-1.9411,-2.1083,-2.2643,-2.4266,-2.5758,-2.6978,-2.8607,-3.0076,-3.1121,-3.2339,-3.3568,-3.463,-3.5222,-3.5773,-3.6123,-3.6368,-3.6489,-3.7509,-3.8185,-3.8738,-3.9069,-3.9646,-4.0392,-4.1451,-4.2415,-4.3462,-4.3854,-4.4774,-4.5512,-4.6085,-4.6944,-4.7758,-4.8305,-4.8546,-4.8957,-4.9135,-4.881,-4.9113,-4.9188,-4.8987,-4.9138,-4.9264,-4.9339,-4.9414,-4.9414,-4.9389,-4.9289,-4.9213,-4.9088,-4.9038,-4.8962,-4.8937,-4.8937,-4.8912,-4.9188,-4.9238,-4.9135,-4.9286,-4.959,-4.959,-4.959,-4.959,-4.9439,-4.9213,-4.9138,-4.9038,-4.8987,-4.9038,-4.8912,-4.8711,-4.8611,-4.848,-4.8629,-4.8906,2.1074,1.9995,1.8946,1.8035,1.7111,1.651,1.5744,1.4822,1.4053,1.359,1.3274,1.2811,1.2501,1.2501,1.2501,1.2037,1.1417,1.1262,1.033,0.909,0.8622,0.7838,0.6587,0.5805,0.5022,0.4084,0.3615,0.2514,0.0942,-0.0314,-0.1728,-0.3772,-0.4562,-0.5361,-0.6802,-0.7914,-0.9529,-1.1464,-1.3691,-1.6199,-1.8532,-2.0539,-2.2071,-2.3606,-2.5389,-2.6664,-2.8073,-2.9462,-3.0759,-3.194,-3.2982,-3.4141,-3.5284,-3.5955,-3.6569,-3.7307,-3.7701,-3.8039,-3.8227,-3.8786,-3.9343,-3.9938,-4.0594,-4.1538,-4.2809,-4.3827,-4.4635,-4.5372,-4.5959,-4.6428,-4.6777,-4.77,-4.8347,-4.8862,-4.9401,-4.9481,-4.9586,-4.9615,-4.9515,-4.9565,-4.964,-4.9766,-4.9841,-4.9791,-4.969,-4.9515,-4.949,-4.9464,-4.9439,-4.9414,-4.9414,-4.9464,-4.9439,-4.9464,-4.9414,-4.949,-4.9439,-4.9464,-4.9464,-4.959,-4.959,-4.959,-4.959,-4.959,-4.9464,-4.9464,-4.959,-4.9515,-4.9339,-4.9289,-4.9238,-4.9166,-4.9165,-4.972,-5.0021,2.068,1.9401,1.8795,1.7883,1.6662,1.6357,1.559,1.4361,1.3898,1.3428,1.312,1.2656,1.2501,1.2501,1.2501,1.2037,1.1262,1.1262,1.033,0.9246,0.8622,0.7838,0.6587,0.5648,0.4865,0.377,0.3458,0.2204,0.0473,-0.1105,-0.2845,-0.4261,-0.4765,-0.589,-0.7194,-0.865,-1.0115,-1.2569,-1.5289,-1.7511,-1.9406,-2.1135,-2.2853,-2.4431,-2.6031,-2.7611,-2.8822,-3.03,-3.1514,-3.2719,-3.3639,-3.4827,-3.6035,-3.6657,-3.7334,-3.8127,-3.8728,-3.9106,-3.9152,-3.9573,-3.9868,-4.0667,-4.1624,-4.2842,-4.4208,-4.5187,-4.5731,-4.6288,-4.6736,-4.716,-4.763,-4.8279,-4.9232,-4.9594,-4.9906,-4.9937,-5.0017,-5.0092,-5.0193,-5.0343,-5.0368,-5.0243,-5.0268,-5.0142,-4.9967,-4.9665,-4.959,-4.964,-4.9665,-4.9715,-4.9665,-4.969,-4.964,-4.964,-4.9615,-4.9615,-4.9615,-4.959,-4.959,-4.959,-4.959,-4.959,-4.959,-4.959,-4.959,-4.959,-4.959,-4.959,-4.959,-4.949,-4.9439,-4.9746,-4.9977,-5.0588,-5.0891,2.0375,1.8643,1.8643,1.7731,1.6203,1.6203,1.5437,1.4361,1.3898,1.3428,1.2965,1.2656,1.2501,1.2501,1.2501,1.2037,1.1262,1.1262,1.0175,0.9246,0.8622,0.7838,0.6587,0.5492,0.4711,0.3774,0.3152,0.1743,-0.0478,-0.3043,-0.3999,-0.4476,-0.5145,-0.6304,-0.7787,-0.9577,-1.1678,-1.3975,-1.6535,-1.8423,-2.0148,-2.1859,-2.3581,-2.5009,-2.6696,-2.8388,-2.9625,-3.1045,-3.2525,-3.388,-3.461,-3.5519,-3.6791,-3.7251,-3.7932,-3.87,-3.9445,-3.9921,-4.0248,-4.0471,-4.1121,-4.2031,-4.3053,-4.4228,-4.5051,-4.5688,-4.6206,-4.6997,-4.7542,-4.7604,-4.8125,-4.8851,-4.9884,-5.0688,-5.0845,-5.0745,-5.0745,-5.0845,-5.0971,-5.1122,-5.1021,-5.082,-5.077,-5.067,-5.0494,-5.0218,-5.0092,-5.0142,-5.0017,-5.0017,-4.9866,-4.9816,-4.9715,-4.969,-4.964,-4.964,-4.9615,-4.959,-4.959,-4.959,-4.959,-4.959,-4.959,-4.959,-4.959,-4.959,-4.959,-4.959,-4.959,-4.959,-4.9719,-4.9976,-5.0487,-5.112,-5.1497,1.993,1.8501,1.8035,1.7273,1.6203,1.5897,1.513,1.4053,1.3744,1.3281,1.2811,1.2501,1.2501,1.2501,1.2501,1.2037,1.1417,1.1262,1.0175,0.9246,0.8622,0.7838,0.6587,0.5341,0.4567,0.3803,0.286,0.1598,-0.0161,-0.3574,-0.4571,-0.5066,-0.5706,-0.7022,-0.8512,-1.0863,-1.3349,-1.548,-1.7755,-1.9855,-2.1442,-2.3344,-2.4931,-2.6208,-2.7819,-2.9329,-3.0422,-3.1896,-3.318,-3.4255,-3.5157,-3.6201,-3.7255,-3.7696,-3.8448,-3.9215,-3.9775,-4.0473,-4.1214,-4.1376,-4.1735,-4.2786,-4.4197,-4.553,-4.5966,-4.6724,-4.7483,-4.8076,-4.8411,-4.8608,-4.8401,-4.9499,-5.0697,-5.1607,-5.1841,-5.1582,-5.1423,-5.1523,-5.1523,-5.1574,-5.1398,-5.1147,-5.1172,-5.1197,-5.0996,-5.077,-5.0695,-5.0594,-5.0494,-5.0419,-5.0368,-5.0268,-5.0193,-5.0117,-5.0117,-4.9891,-4.9665,-4.964,-4.9665,-4.9665,-4.969,-4.959,-4.959,-4.959,-4.959,-4.959,-4.959,-4.959,-4.959,-4.959,-4.9847,-5.0232,-5.0867,-5.1622,-5.1996,1.9542,1.8491,1.7578,1.6815,1.6203,1.5744,1.4814,1.3898,1.3744,1.3281,1.2501,1.2501,1.2501,1.2501,1.2501,1.2037,1.1417,1.1107,1.0175,0.9402,0.8622,0.7838,0.6595,0.5516,0.4599,0.3835,0.2894,0.1617,-0.0163,-0.3462,-0.4633,-0.5294,-0.6437,-0.7604,-0.9448,-1.2326,-1.5036,-1.7018,-1.8818,-2.0769,-2.235,-2.4111,-2.57,-2.7107,-2.87,-3.0098,-3.1162,-3.2571,-3.3634,-3.4707,-3.5605,-3.6516,-3.7402,-3.8155,-3.8779,-3.9585,-4.0266,-4.1152,-4.1834,-4.2411,-4.287,-4.4013,-4.5292,-4.6288,-4.6982,-4.7907,-4.8344,-4.8827,-4.9422,-4.9534,-4.9179,-5.0333,-5.1455,-5.2261,-5.2287,-5.2076,-5.2026,-5.2076,-5.2,-5.1975,-5.185,-5.19,-5.1925,-5.195,-5.1523,-5.1272,-5.1021,-5.0971,-5.0971,-5.0946,-5.1021,-5.0921,-5.082,-5.0745,-5.067,-5.0519,-5.0343,-4.9675,-4.9651,-4.9761,-4.9711,-4.9636,-4.964,-4.959,-4.959,-4.959,-4.959,-4.9615,-4.959,-4.959,-4.995,-5.0308,-5.0968,-5.1596,-5.2094,1.939,1.8491,1.7264,1.651,1.6203,1.5744,1.4822,1.3744,1.359,1.312,1.2501,1.2501,1.2501,1.2501,1.2501,1.2037,1.1417,1.1262,1.033,0.909,0.8802,0.7846,0.6623,0.5554,0.4806,0.401,0.2751,0.1145,-0.0165,-0.2984,-0.4498,-0.5688,-0.702,-0.8356,-0.9716,-1.288,-1.553,-1.7337,-1.9144,-2.092,-2.2694,-2.4455,-2.6056,-2.7633,-2.9197,-3.0608,-3.1686,-3.3044,-3.4105,-3.5007,-3.5903,-3.6812,-3.7421,-3.836,-3.9248,-4.0111,-4.1088,-4.2064,-4.3191,-4.4084,-4.4782,-4.5386,-4.6561,-4.726,-4.7842,-4.8491,-4.9163,-4.9745,-5.0035,-5.0308,-5.0654,-5.1173,-5.2191,-5.2553,-5.2578,-5.2578,-5.2528,-5.2503,-5.2427,-5.2377,-5.2653,-5.2854,-5.2829,-5.2703,-5.2176,-5.18,-5.1423,-5.1348,-5.1473,-5.1599,-5.1699,-5.1599,-5.1498,-5.1322,-5.1247,-5.1197,-5.0888,-5.0166,-4.9942,-5.0106,-5.0087,-5.0012,-4.9992,-4.9741,-4.9741,-4.9866,-4.9741,-4.9615,-4.9744,-4.9847,-5.0028,-5.0486,-5.1042,-5.1695,-5.2192,1.9098,1.8501,1.6968,1.6357,1.605,1.513,1.4361,1.3744,1.312,1.2811,1.2501,1.2501,1.2501,1.2501,1.2501,1.2037,1.1417,1.1262,1.033,0.8944,0.885,0.7769,0.6529,0.562,0.4867,0.3758,0.2304,0.0496,-0.0669,-0.3174,-0.4686,-0.605,-0.8227,-1.0065,-1.1558,-1.388,-1.6024,-1.7828,-1.9785,-2.1728,-2.3336,-2.5104,-2.6702,-2.8118,-2.9664,-3.1055,-3.2146,-3.35,-3.4556,-3.5456,-3.6386,-3.7164,-3.7977,-3.8935,-3.9965,-4.0772,-4.1647,-4.3109,-4.4414,-4.5508,-4.6334,-4.6848,-4.7489,-4.8216,-4.8778,-4.9578,-5.0095,-5.0489,-5.0832,-5.1157,-5.1418,-5.2092,-5.2779,-5.2804,-5.2829,-5.2829,-5.2804,-5.2829,-5.2804,-5.2754,-5.2929,-5.2929,-5.2929,-5.2929,-5.2553,-5.2427,-5.2126,-5.2176,-5.2302,-5.2402,-5.2503,-5.2352,-5.2201,-5.195,-5.18,-5.1724,-5.1599,-5.103,-5.083,-5.0863,-5.082,-5.0645,-5.0619,-5.0544,-5.0343,-5.0142,-5.0117,-5.0147,-5.0077,-5.0078,-5.0359,-5.0816,-5.157,-5.2068,-5.2535,1.8795,1.8187,1.6815,1.605,1.5897,1.4822,1.4053,1.3428,1.2811,1.2501,1.2501,1.2501,1.2501,1.2501,1.2501,1.2037,1.1423,1.1317,1.0398,0.9007,0.894,0.7856,0.6609,0.5526,0.4754,0.364,0.1496,-0.0501,-0.2184,-0.387,-0.5717,-0.7722,-0.9898,-1.1564,-1.3224,-1.5036,-1.6854,-1.8818,-2.0758,-2.2533,-2.4136,-2.5727,-2.7319,-2.8744,-3.0144,-3.1533,-3.2588,-3.3802,-3.5025,-3.5958,-3.6924,-3.7906,-3.8631,-3.9603,-4.066,-4.1346,-4.2604,-4.4335,-4.5838,-4.6455,-4.7196,-4.7859,-4.859,-4.9133,-4.9628,-5.0149,-5.0833,-5.1303,-5.1656,-5.1886,-5.2228,-5.2767,-5.2767,-5.2929,-5.2929,-5.2929,-5.2929,-5.2929,-5.2929,-5.2929,-5.2929,-5.2929,-5.2929,-5.2929,-5.2804,-5.2854,-5.2879,-5.2929,-5.2929,-5.2929,-5.2929,-5.2779,-5.2678,-5.2477,-5.2302,-5.2226,-5.2076,-5.1875,-5.1724,-5.1574,-5.1398,-5.1064,-5.1272,-5.1297,-5.0971,-5.072,-5.0645,-5.0625,-5.0839,-5.0689,-5.0614,-5.1175,-5.1898,-5.2518,-5.2887,1.8339,1.7873,1.6662,1.5897,1.5582,1.4669,1.3898,1.312,1.2656,1.2501,1.2501,1.2501,1.2501,1.2501,1.2508,1.2063,1.1473,1.1415,1.0352,0.9287,0.905,0.7782,0.6689,0.5593,0.4804,0.3324,0.1336,-0.1174,-0.3703,-0.5048,-0.6888,-0.8892,-1.0898,-1.2727,-1.4383,-1.6032,-1.7673,-1.9632,-2.1405,-2.3175,-2.4773,-2.636,-2.7633,-2.9197,-3.0593,-3.1993,-3.3078,-3.4325,-3.5396,-3.6402,-3.7353,-3.8418,-3.9375,-4.0395,-4.1433,-4.2611,-4.4079,-4.5382,-4.6632,-4.7163,-4.8041,-4.8798,-4.9224,-4.9771,-5.0056,-5.0506,-5.0954,-5.1401,-5.182,-5.2238,-5.2654,-5.2792,-5.2929,-5.2929,-5.2929,-5.2929,-5.2929,-5.2929,-5.2929,-5.2929,-5.2929,-5.2929,-5.2929,-5.2929,-5.2929,-5.2929,-5.2929,-5.2929,-5.2929,-5.2929,-5.2929,-5.2929,-5.2854,-5.2879,-5.2779,-5.2603,-5.2553,-5.2352,-5.2251,-5.2101,-5.1925,-5.1665,-5.185,-5.1774,-5.1473,-5.1247,-5.1021,-5.1286,-5.1732,-5.1558,-5.1279,-5.1739,-5.2391,-5.2908,-5.3374,1.8187,1.7426,1.651,1.605,1.5429,1.4361,1.3428,1.2656,1.2501,1.2501,1.2501,1.2501,1.2515,1.2508,1.2298,1.1867,1.1458,1.1054,1.0153,0.9406,0.8824,0.788,0.6605,0.5488,0.4681,0.335,0.1343,-0.1346,-0.387,-0.5717,-0.7558,-0.9392,-1.1397,-1.3224,-1.5036,-1.6854,-1.8491,-2.012,-2.1889,-2.3496,-2.5092,-2.6689,-2.7933,-2.9353,-3.0948,-3.2364,-3.3652,-3.4907,-3.5869,-3.7015,-3.7953,-3.8916,-4.0156,-4.1133,-4.2159,-4.3949,-4.5191,-4.6129,-4.7038,-4.7502,-4.8209,-4.9221,-4.9509,-4.9961,-5.0246,-5.072,-5.1003,-5.1541,-5.182,-5.2238,-5.2654,-5.2792,-5.2929,-5.2929,-5.2929,-5.2929,-5.2929,-5.2929,-5.2929,-5.2929,-5.2929,-5.2929,-5.2929,-5.2929,-5.2929,-5.2929,-5.2929,-5.2929,-5.2929,-5.2929,-5.2929,-5.2929,-5.2929,-5.2929,-5.2929,-5.2804,-5.2854,-5.2829,-5.2678,-5.2578,-5.2503,-5.2427,-5.2427,-5.2302,-5.2026,-5.1649,-5.1272,-5.1772,-5.2399,-5.2225,-5.2077,-5.2386,-5.2886,-5.3512,-5.3997,1.8035,1.7121,1.651,1.5744,1.4822,1.3898,1.312,1.2501,1.2501,1.2501,1.2508,1.2569,1.2589,1.2467,1.2272,1.2026,1.1561,1.1195,1.0449,0.9341,0.8761,0.7639,0.6513,0.536,0.4535,0.3197,0.1346,-0.1346,-0.4038,-0.6385,-0.8395,-1.0065,-1.1896,-1.388,-1.5859,-1.7837,-1.9622,-2.1082,-2.2372,-2.3976,-2.5581,-2.7018,-2.8118,-2.9442,-3.1213,-3.2715,-3.4094,-3.5428,-3.6569,-3.7877,-3.8671,-3.9794,-4.0932,-4.2029,-4.307,-4.4762,-4.5533,-4.6299,-4.7038,-4.7502,-4.8354,-4.9078,-4.9532,-5.0104,-5.0556,-5.0888,-5.1192,-5.1681,-5.182,-5.2099,-5.2515,-5.2929,-5.2929,-5.2929,-5.2929,-5.2929,-5.2929,-5.2929,-5.2929,-5.2929,-5.2929,-5.2929,-5.2929,-5.2955,-5.2929,-5.2929,-5.2929,-5.2929,-5.2929,-5.2929,-5.2929,-5.2929,-5.2929,-5.2929,-5.2929,-5.2929,-5.2929,-5.2929,-5.2879,-5.2829,-5.2929,-5.2879,-5.2729,-5.2653,-5.2603,-5.2251,-5.19,-5.2488,-5.2992,-5.2843,-5.3059,-5.353,-5.3938,-5.4287,-5.4673,1.7873,1.6653,1.6203,1.513,1.3744,1.3296,1.2993,1.2522,1.2556,1.2535,1.2562,1.2684,1.2745,1.2621,1.2262,1.2005,1.1565,1.1167,1.041,0.9095,0.8501,0.7539,0.6205,0.5214,0.4208,0.3029,0.1009,-0.185,-0.4372,-0.6888,-0.923,-1.0904,-1.2893,-1.4871,-1.6681,-1.8654,-2.0465,-2.2151,-2.343,-2.4874,-2.6294,-2.7717,-2.8875,-3.0151,-3.1715,-3.342,-3.4882,-3.6124,-3.7466,-3.8535,-3.9663,-4.0508,-4.1887,-4.3112,-4.4268,-4.4934,-4.5704,-4.6448,-4.7208,-4.7648,-4.8499,-4.9101,-4.9556,-5.0269,-5.0819,-5.1081,-5.141,-5.2147,-5.2386,-5.2808,-5.3228,-5.3507,-5.3507,-5.3507,-5.3507,-5.3507,-5.3507,-5.3507,-5.3507,-5.3507,-5.3507,-5.3482,-5.3293,-5.3343,-5.3003,-5.2967,-5.2867,-5.2892,-5.2955,-5.2955,-5.2929,-5.2929,-5.2929,-5.2929,-5.2929,-5.2929,-5.2929,-5.2929,-5.2929,-5.2929,-5.2929,-5.2929,-5.2929,-5.2854,-5.2779,-5.2854,-5.284,-5.3284,-5.3587,-5.3855,-5.4126,-5.4603,-5.4916,-5.5114,-5.5141,1.7731,1.6203,1.5283,1.4361,1.3759,1.3411,1.2991,1.2684,1.2807,1.2779,1.2718,1.2827,1.2908,1.2929,1.2243,1.1818,1.1685,1.0941,1.0019,0.9188,0.839,0.7223,0.6053,0.5048,0.3871,0.2018,-0.0,-0.269,-0.5544,-0.7889,-0.9893,-1.1736,-1.3721,-1.5365,-1.7173,-1.9144,-2.0984,-2.2912,-2.4392,-2.5892,-2.7227,-2.8835,-3.0175,-3.1495,-3.3106,-3.4603,-3.6043,-3.7156,-3.8161,-3.9182,-4.0318,-4.142,-4.2708,-4.4008,-4.4633,-4.4955,-4.6002,-4.6743,-4.7208,-4.7794,-4.8691,-4.9408,-4.9958,-5.0675,-5.1106,-5.1178,-5.1728,-5.2568,-5.3118,-5.352,-5.3803,-5.3944,-5.4084,-5.4084,-5.4084,-5.4084,-5.4084,-5.4084,-5.4084,-5.411,-5.411,-5.4059,-5.3869,-5.3718,-5.3378,-5.3064,-5.2914,-5.2953,-5.308,-5.3005,-5.3117,-5.3117,-5.2929,-5.2929,-5.2929,-5.3067,-5.3204,-5.3067,-5.3067,-5.3067,-5.2929,-5.2929,-5.3067,-5.2929,-5.2904,-5.3067,-5.3341,-5.3674,-5.392,-5.435,-5.4593,-5.4944,-5.534,-5.5522,-5.5478,1.7578,1.6059,1.4756,1.4011,1.3567,1.3246,1.2992,1.2861,1.299,1.301,1.2942,1.301,1.3057,1.2916,1.2225,1.1946,1.1629,1.0699,0.9888,0.9063,0.8064,0.6888,0.5885,0.488,0.2859,0.1178,-0.1681,-0.4539,-0.6717,-0.8558,-1.0232,-1.2229,-1.4052,-1.5859,-1.7665,-1.9479,-2.1546,-2.3551,-2.5213,-2.6799,-2.8228,-2.9705,-3.1014,-3.2348,-3.3925,-3.5467,-3.6991,-3.8116,-3.89,-3.9872,-4.086,-4.2022,-4.3116,-4.4201,-4.4805,-4.5405,-4.6299,-4.7186,-4.7502,-4.7963,-4.8783,-4.9572,-5.0049,-5.0744,-5.2137,-5.2259,-5.2477,-5.313,-5.3271,-5.3508,-5.4077,-5.4361,-5.4361,-5.4361,-5.4361,-5.4361,-5.4361,-5.4361,-5.4361,-5.4361,-5.4361,-5.4361,-5.431,-5.4285,-5.3994,-5.3969,-5.3653,-5.3683,-5.3596,-5.3457,-5.3381,-5.3417,-5.3255,-5.3204,-5.3204,-5.3341,-5.3452,-5.3452,-5.3316,-5.3341,-5.3341,-5.3204,-5.3204,-5.3067,-5.3067,-5.3204,-5.3478,-5.3861,-5.4106,-5.4376,-5.4805,-5.5046,-5.5498,-5.5736,-5.5835,1.733,1.5992,1.4587,1.3863,1.3569,1.3241,1.299,1.301,1.3139,1.32,1.3186,1.3193,1.32,1.2926,1.2503,1.221,1.157,1.0398,0.9736,0.9068,0.7897,0.6721,0.5549,0.4544,0.2187,-0.0504,-0.3532,-0.5376,-0.7052,-0.8892,-1.0732,-1.2395,-1.4375,-1.6353,-1.8164,-2.0181,-2.2263,-2.4124,-2.6079,-2.7948,-2.92,-3.0425,-3.1588,-3.2986,-3.4432,-3.5949,-3.7614,-3.8816,-3.943,-4.0509,-4.1578,-4.2677,-4.3594,-4.4352,-4.4805,-4.5555,-4.6448,-4.7038,-4.7355,-4.8054,-4.9014,-4.9852,-5.0308,-5.1119,-5.2664,-5.3128,-5.3229,-5.357,-5.3593,-5.3953,-5.4527,-5.4813,-5.4813,-5.4813,-5.4813,-5.4813,-5.4813,-5.4813,-5.4813,-5.4813,-5.4813,-5.4813,-5.4787,-5.4762,-5.4712,-5.4829,-5.487,-5.4708,-5.4569,-5.4214,-5.4123,-5.4031,-5.3853,-5.3827,-5.3614,-5.3725,-5.3861,-5.3725,-5.3725,-5.3725,-5.3589,-5.3589,-5.3452,-5.3316,-5.3341,-5.3614,-5.3861,-5.4132,-5.4376,-5.4511,-5.4805,-5.5099,-5.5232,-5.5631,-5.5868,1.7144,1.6038,1.4646,1.4184,1.4047,1.3394,1.3132,1.3159,1.3288,1.3356,1.3342,1.3356,1.3356,1.3356,1.2382,1.2069,1.1736,1.0404,0.9736,0.924,0.7562,0.6389,0.5211,0.387,0.1009,-0.2017,-0.4539,-0.6047,-0.7554,-0.9397,-1.1392,-1.3217,-1.4871,-1.6854,-1.8692,-2.06,-2.278,-2.4656,-2.6731,-2.8455,-3.0272,-3.1481,-3.2608,-3.4018,-3.546,-3.6815,-3.8004,-3.9114,-4.0059,-4.0997,-4.2082,-4.3157,-4.3898,-4.4504,-4.4955,-4.5704,-4.6596,-4.7105,-4.7592,-4.8429,-4.9484,-5.0373,-5.0972,-5.1858,-5.2899,-5.3461,-5.3811,-5.45,-5.4549,-5.4989,-5.5426,-5.5717,-5.5717,-5.5717,-5.5717,-5.5717,-5.5717,-5.5717,-5.5717,-5.5717,-5.5717,-5.5717,-5.5836,-5.5735,-5.5678,-5.5821,-5.6443,-5.6252,-5.5471,-5.5114,-5.4894,-5.4697,-5.4525,-5.4209,-5.3997,-5.3997,-5.4132,-5.3997,-5.3997,-5.3997,-5.3997,-5.3997,-5.3861,-5.3589,-5.3725,-5.3997,-5.4241,-5.4402,-5.4671,-5.4805,-5.4939,-5.5099,-5.5232,-5.5391,-5.5763]},{"header":{"parameterUnit":"m.s-1","parameterCategory":1,"la1":31.0,"la2":29.5877,"lo1":-88.7671,"lo2":-86.6584,"dy":0.0162,"dx":0.0185,"nx":115,"ny":88,"refTime":"2023-04-14T06:00:00:Z","depth":0,"parameterNumber":3,"parameterNumberName":"V-component_of_WINDS"},"data":[0.0,0.0,0.0,0.0,0.0,0.0,0.0,0.0,0.0,0.0,0.0,0.0,0.0,0.0,0.0,0.0,0.0,0.0,0.0,0.0,0.0,0.0,0.0,0.0,0.0,0.0,0.0,0.0,0.0,0.0,0.0,0.0,0.0,0.0,0.0,0.0,0.0,0.0,0.0,0.0,0.0,0.0,0.0,0.0,0.0,0.0,0.0,0.0,0.0,0.0,0.0,0.0,0.0,0.0,0.0,0.0,0.0,0.0,0.0,0.0,0.0,0.0,0.0,0.0,0.0,0.0,0.0,0.0,0.0,0.0,0.0,0.0,0.0,0.0,0.0,0.0,0.0,0.0,0.0,0.0,0.0,0.0,0.0,0.0,0.0,0.0,0.0,0.0,0.0,0.0,0.0,0.0,0.0,0.0,0.0,0.0,0.0,0.0,0.0,0.0,0.0,0.0,0.0,0.0,0.0,0.0,0.0,0.0,0.0,0.0,0.0,0.0,0.0,0.0,0.0,0.0,0.0,0.0,0.0,0.0,0.0,0.0,0.0,0.0,0.0,0.0,0.0,0.0,0.0,0.0,0.0,0.0,0.0,0.0,0.0,0.0,0.0,0.0,0.0,0.0,0.0,0.0,0.0,0.0,0.0,0.0,0.0,0.0,0.0,0.0,0.0,0.0,0.0,0.0,0.0,0.0,0.0,0.0,0.0,0.0,0.0,0.0,0.0,0.0,0.0,0.0,0.0,0.0,0.0,0.0,0.0,0.0,0.0,0.0,0.0,0.0,0.0,0.0,0.0,0.0,0.0,0.0,0.0,0.0,0.0,0.0,0.0,0.0,0.0,0.0,0.0,0.0,0.0,0.0,0.0,0.0,0.0,0.0,0.0,0.0,0.0,0.0,0.0,0.0,0.0,0.0,0.0,0.0,0.0,0.0,0.0,0.0,0.0,0.0,0.0,0.0,0.0,0.0,0.0,0.0,0.0,0.0,0.0,0.0,0.0,0.0,0.0,0.0,0.0,0.0,0.0,0.0,0.0,0.0,0.0,0.0,0.0,0.0,0.0,0.0,0.0,0.0,0.0,0.0,0.0,0.0,0.0,0.0,0.0,0.0,0.0,0.0,0.0,0.0,0.0,0.0,0.0,0.0,0.0,0.0,0.0,0.0,0.0,0.0,0.0,0.0,0.0,0.0,0.0,0.0,0.0,0.0,0.0,0.0,0.0,0.0,0.0,0.0,0.0,0.0,0.0,0.0,0.0,0.0,0.0,0.0,0.0,0.0,0.0,0.0,0.0,0.0,0.0,0.0,0.0,0.0,0.0,0.0,0.0,0.0,0.0,0.0,0.0,0.0,0.0,0.0,0.0,0.0,0.0,0.0,0.0,0.0,0.0,0.0,0.0,0.0,0.0,0.0,0.0,0.0,0.0,0.0,0.0,0.0,0.0,0.0,0.0,0.0,0.0,0.0,0.0,0.0,0.0,0.0,0.0,0.0,0.0,0.0,0.0,0.0,0.0,0.0,0.0,0.0,0.0,0.0,0.0,0.0,0.0,0.0,0.0,0.0,0.0,0.0,0.0,0.0,0.0,0.0,0.0,0.0,0.0,0.0,0.0,0.0,0.0,0.0,0.0,0.0,0.0,0.0,0.0,0.0,0.0,0.0,0.0,0.0,0.0,0.0,0.0,0.0,0.0,0.0,0.0,0.0,0.0,0.0,0.0,0.0,0.0,0.0,0.0,0.0,0.0,0.0,0.0,0.0,0.0,0.0,0.0,0.0,0.0,0.0,0.0,0.0,0.0,0.0,0.0,0.0,0.0,0.0,0.0,0.0,0.0,0.0,0.0,0.0,0.0,0.0,0.0,0.0,0.0,0.0,0.0,0.0,0.0,0.0,0.0,0.0,0.0,0.0,0.0,0.0,0.0,0.0,0.0,0.0,0.0,0.0,0.0,0.0,0.0,0.0,0.0,0.0,0.0,0.0,0.0,0.0,0.0,0.0,0.0,0.0,0.0,0.0,0.0,0.0,0.0,0.0,0.0,0.0,0.0,0.0,0.0,0.0,0.0,0.0,0.0,0.0,0.0,0.0,0.0,0.0,0.0,0.0,0.0,0.0,0.0,0.0,0.0,0.0,0.0,0.0,0.0,0.0,0.0,0.0,0.0,0.0,0.0,0.0,0.0,0.0,0.0,0.0,0.0,0.0,0.0,0.0,0.0,0.0,0.0,0.0,0.0,0.0,0.0,0.0,0.0,0.0,0.0,0.0,0.0,0.0,0.0,0.0,0.0,0.0,0.0,0.0,0.0,0.0,0.0,0.0,0.0,0.0,0.0,0.0,0.0,0.0,0.0,0.0,0.0,0.0,0.0,0.0,0.0,0.0,0.0,0.0,0.0,0.0,0.0,0.0,0.0,0.0,0.0,0.0,0.0,0.0,0.0,0.0,0.0,0.0,0.0,0.0,0.0,0.0,0.0,0.0,0.0,0.0,0.0,0.0,0.0,0.0,0.0,0.0,0.0,0.0,0.0,0.0,0.0,0.0,0.0,0.0,0.0,0.0,0.0,0.0,0.0,0.0,0.0,0.0,0.0,0.0,0.0,0.0,0.0,0.0,0.0,0.0,0.0,0.0,0.0,0.0,0.0,0.0,0.0,0.0,0.0,0.0,0.0,0.0,0.0,0.0,0.0,0.0,0.0,0.0,0.0,0.0,0.0,0.0,0.0,0.0,0.0,0.0,0.0,0.0,0.0,0.0,0.0,0.0,0.0,0.0,0.0,0.0,0.0,0.0,0.0,0.0,0.0,0.0,0.0,0.0,0.0,0.0,0.0,0.0,0.0,0.0,0.0,0.0,0.0,0.0,0.0,0.0,0.0,0.0,0.0,0.0,0.0,0.0,0.0,0.0,0.0,0.0,0.0,0.0,0.0,0.0,0.0,0.0,0.0,0.0,0.0,0.0,0.0,0.0,0.0,0.0,0.0,0.0,0.0,0.0,0.0,0.0,0.0,0.0,0.0,0.0,0.0,0.0,0.0,0.0,0.0,0.0,0.0,0.0,0.0,0.0,0.0,0.0,0.0,0.0,0.0,0.0,0.0,0.0,0.0,0.0,0.0,0.0,0.0,0.0,0.0,0.0,0.0,0.0,0.0,0.0,0.0,0.0,0.0,0.0,0.0,0.0,0.0,0.0,0.0,0.0,0.0,0.0,0.0,0.0,0.0,0.0,0.0,0.0,0.0,0.0,0.0,0.0,0.0,0.0,0.0,0.0,0.0,0.0,0.0,0.0,0.0,0.0,0.0,0.0,0.0,0.0,0.0,0.0,0.0,0.0,0.0,0.0,0.0,0.0,0.0,0.0,0.0,0.0,0.0,0.0,0.0,0.0,0.0,0.0,0.0,0.0,0.0,0.0,0.0,0.0,0.0,0.0,0.0,0.0,0.0,0.0,0.0,0.0,0.0,0.0,0.0,0.0,0.0,0.0,0.0,0.0,0.0,0.0,0.0,0.0,0.0,0.0,0.0,0.0,0.0,0.0,0.0,0.0,0.0,0.0,0.0,0.0,0.0,0.0,0.0,0.0,0.0,0.0,0.0,0.0,0.0,0.0,0.0,0.0,0.0,0.0,0.0,0.0,0.0,0.0,0.0,0.0,0.0,0.0,0.0,0.0,0.0,0.0,0.0,0.0,0.0,0.0,0.0,0.0,0.0,0.0,0.0,0.0,0.0,0.0,0.0,0.0,0.0,0.0,0.0,0.0,0.0,0.0,0.0,0.0,0.0,0.0,0.0,0.0,0.0,0.0,0.0,0.0,0.0,0.0,0.0,0.0,0.0,0.0,0.0,0.0,0.0,0.0,0.0,0.0,0.0,0.0,0.0,0.0,0.0,0.0,0.0,0.0,0.0,0.0,0.0,0.0,0.0,0.0,0.0,0.0,0.0,0.0,0.0,0.0,0.0,0.0,0.0,0.0,0.0,0.0,0.0,0.0,0.0,0.0,0.0,0.0,0.0,0.0,0.0,0.0,0.0,0.0,0.0,0.0,0.0,0.0,0.0,0.0,0.0,0.0,0.0,0.0,0.0,0.0,0.0,0.0,0.0,0.0,0.0,0.0,0.0,0.0,0.0,0.0,0.0,0.0,0.0,0.0,0.0,0.0,0.0,0.0,0.0,0.0,0.0,0.0,0.0,0.0,0.0,0.0,0.0,0.0,0.0,0.0,0.0,0.0,0.0,0.0,0.0,0.0,0.0,0.0,0.0,0.0,0.0,0.0,0.0,0.0,0.0,0.0,-4.6187,0.0,0.0,0.0,0.0,0.0,0.0,0.0,0.0,0.0,0.0,0.0,0.0,0.0,0.0,0.0,0.0,0.0,0.0,0.0,0.0,0.0,0.0,0.0,0.0,0.0,0.0,0.0,0.0,0.0,0.0,0.0,0.0,0.0,0.0,0.0,0.0,0.0,0.0,0.0,0.0,0.0,0.0,0.0,0.0,0.0,0.0,0.0,0.0,0.0,0.0,0.0,0.0,0.0,0.0,0.0,0.0,0.0,0.0,0.0,0.0,0.0,0.0,0.0,0.0,0.0,0.0,0.0,0.0,0.0,0.0,0.0,0.0,0.0,0.0,0.0,0.0,0.0,0.0,0.0,0.0,0.0,0.0,0.0,0.0,0.0,0.0,0.0,0.0,0.0,0.0,0.0,0.0,0.0,0.0,0.0,0.0,0.0,0.0,0.0,0.0,0.0,0.0,0.0,0.0,0.0,0.0,0.0,0.0,0.0,0.0,-4.6309,-4.63,-4.624,-4.6187,-4.6187,0.0,0.0,0.0,0.0,0.0,0.0,0.0,0.0,0.0,0.0,0.0,0.0,0.0,0.0,0.0,0.0,0.0,0.0,0.0,0.0,0.0,0.0,0.0,0.0,0.0,0.0,0.0,0.0,0.0,0.0,0.0,0.0,0.0,0.0,0.0,0.0,0.0,0.0,0.0,0.0,0.0,0.0,0.0,0.0,0.0,0.0,0.0,0.0,0.0,0.0,0.0,0.0,0.0,0.0,0.0,0.0,0.0,0.0,0.0,0.0,0.0,0.0,0.0,0.0,0.0,0.0,0.0,0.0,0.0,0.0,0.0,0.0,0.0,0.0,0.0,0.0,0.0,0.0,0.0,0.0,0.0,0.0,0.0,0.0,0.0,0.0,0.0,0.0,0.0,0.0,0.0,0.0,0.0,0.0,0.0,0.0,0.0,0.0,0.0,0.0,0.0,0.0,0.0,0.0,0.0,0.0,0.0,0.0,0.0,0.0,0.0,0.0,-4.624,-4.6181,-4.6164,0.0,0.0,0.0,0.0,0.0,0.0,0.0,0.0,0.0,0.0,0.0,0.0,0.0,0.0,0.0,0.0,0.0,0.0,0.0,0.0,0.0,0.0,0.0,0.0,0.0,0.0,0.0,0.0,0.0,0.0,0.0,0.0,0.0,0.0,0.0,0.0,0.0,0.0,0.0,0.0,0.0,0.0,0.0,0.0,0.0,0.0,0.0,0.0,0.0,0.0,0.0,0.0,0.0,0.0,0.0,0.0,0.0,0.0,0.0,0.0,0.0,0.0,0.0,0.0,0.0,0.0,0.0,0.0,0.0,0.0,0.0,0.0,0.0,0.0,0.0,0.0,0.0,0.0,0.0,0.0,0.0,0.0,0.0,0.0,0.0,0.0,0.0,0.0,0.0,0.0,0.0,0.0,0.0,0.0,0.0,0.0,0.0,0.0,0.0,0.0,0.0,0.0,0.0,0.0,0.0,0.0,0.0,0.0,0.0,0.0,-4.63,-4.63,-4.624,0.0,-4.613,0.0,0.0,0.0,0.0,0.0,0.0,0.0,0.0,0.0,0.0,0.0,0.0,0.0,0.0,0.0,0.0,0.0,0.0,0.0,0.0,0.0,0.0,0.0,0.0,0.0,0.0,0.0,0.0,0.0,0.0,0.0,0.0,0.0,0.0,0.0,0.0,0.0,0.0,0.0,0.0,0.0,0.0,0.0,0.0,0.0,0.0,0.0,0.0,0.0,0.0,0.0,0.0,0.0,0.0,0.0,0.0,0.0,0.0,0.0,0.0,0.0,0.0,0.0,0.0,0.0,0.0,0.0,0.0,0.0,0.0,0.0,0.0,0.0,0.0,0.0,0.0,0.0,0.0,0.0,0.0,0.0,0.0,0.0,0.0,0.0,0.0,0.0,0.0,0.0,0.0,0.0,0.0,0.0,0.0,0.0,0.0,0.0,0.0,0.0,0.0,0.0,0.0,0.0,0.0,0.0,0.0,0.0,0.0,0.0,0.0,-4.63,-4.63,-4.6231,-4.619,0.0,0.0,0.0,0.0,0.0,0.0,0.0,0.0,0.0,0.0,0.0,0.0,0.0,0.0,0.0,0.0,0.0,0.0,0.0,0.0,0.0,0.0,0.0,0.0,0.0,0.0,0.0,0.0,0.0,0.0,0.0,0.0,0.0,0.0,0.0,0.0,0.0,0.0,0.0,0.0,0.0,0.0,0.0,0.0,0.0,0.0,0.0,0.0,0.0,0.0,0.0,0.0,0.0,0.0,0.0,0.0,0.0,0.0,0.0,0.0,0.0,0.0,0.0,0.0,0.0,0.0,0.0,0.0,0.0,0.0,0.0,0.0,0.0,0.0,0.0,0.0,0.0,0.0,0.0,0.0,0.0,0.0,0.0,0.0,0.0,0.0,0.0,0.0,0.0,0.0,0.0,0.0,0.0,0.0,0.0,0.0,0.0,0.0,0.0,0.0,0.0,0.0,0.0,0.0,0.0,0.0,0.0,0.0,0.0,0.0,-4.6309,-4.63,-4.6253,-4.6226,-4.6176,-4.6122,0.0,0.0,0.0,0.0,0.0,0.0,0.0,0.0,0.0,0.0,0.0,0.0,0.0,0.0,0.0,0.0,0.0,0.0,0.0,0.0,0.0,0.0,0.0,0.0,0.0,0.0,0.0,0.0,0.0,0.0,0.0,0.0,0.0,0.0,0.0,0.0,0.0,0.0,0.0,0.0,0.0,0.0,0.0,0.0,0.0,0.0,0.0,0.0,0.0,0.0,0.0,0.0,0.0,0.0,0.0,0.0,0.0,0.0,0.0,0.0,0.0,0.0,0.0,0.0,0.0,0.0,0.0,0.0,0.0,0.0,0.0,0.0,0.0,0.0,0.0,0.0,0.0,0.0,0.0,0.0,0.0,0.0,0.0,0.0,0.0,0.0,0.0,0.0,0.0,0.0,0.0,0.0,0.0,0.0,0.0,0.0,0.0,0.0,0.0,0.0,0.0,0.0,0.0,0.0,0.0,0.0,0.0,0.0,-4.6282,-4.6309,-4.6253,-4.6192,-4.6215,-4.6176,0.0,0.0,0.0,0.0,0.0,0.0,0.0,0.0,0.0,0.0,0.0,0.0,0.0,0.0,0.0,0.0,0.0,0.0,0.0,0.0,0.0,0.0,0.0,0.0,0.0,0.0,0.0,0.0,0.0,0.0,0.0,0.0,0.0,0.0,0.0,0.0,0.0,0.0,0.0,0.0,0.0,0.0,0.0,0.0,0.0,0.0,0.0,0.0,0.0,0.0,0.0,0.0,0.0,0.0,0.0,0.0,0.0,0.0,0.0,0.0,0.0,0.0,0.0,0.0,0.0,0.0,0.0,0.0,0.0,0.0,0.0,0.0,0.0,0.0,0.0,0.0,0.0,0.0,0.0,0.0,0.0,0.0,0.0,0.0,0.0,0.0,0.0,0.0,0.0,0.0,0.0,0.0,0.0,0.0,0.0,0.0,0.0,0.0,0.0,0.0,0.0,0.0,0.0,0.0,0.0,0.0,0.0,0.0,0.0,-4.6282,-4.6309,-4.6253,-4.6187,-4.6203,-4.6169,0.0,0.0,0.0,0.0,0.0,0.0,0.0,0.0,0.0,0.0,0.0,0.0,0.0,0.0,0.0,0.0,0.0,0.0,0.0,0.0,0.0,0.0,0.0,0.0,0.0,0.0,0.0,0.0,0.0,0.0,0.0,0.0,0.0,0.0,0.0,0.0,0.0,0.0,0.0,0.0,0.0,0.0,0.0,0.0,0.0,0.0,0.0,0.0,0.0,0.0,0.0,0.0,0.0,0.0,0.0,0.0,0.0,0.0,0.0,0.0,0.0,0.0,0.0,0.0,0.0,0.0,0.0,0.0,0.0,0.0,0.0,0.0,0.0,0.0,0.0,0.0,0.0,0.0,0.0,0.0,0.0,0.0,0.0,0.0,0.0,0.0,0.0,0.0,0.0,0.0,0.0,0.0,0.0,0.0,0.0,0.0,0.0,0.0,0.0,0.0,0.0,0.0,0.0,0.0,0.0,0.0,0.0,0.0,0.0,-4.6315,0.0,-4.6253,-4.6187,-4.6196,-4.6162,0.0,0.0,0.0,0.0,0.0,0.0,0.0,0.0,0.0,0.0,0.0,0.0,0.0,0.0,0.0,0.0,0.0,0.0,0.0,0.0,0.0,0.0,0.0,0.0,0.0,0.0,0.0,0.0,0.0,0.0,0.0,0.0,0.0,0.0,0.0,0.0,0.0,0.0,0.0,0.0,0.0,0.0,0.0,0.0,0.0,0.0,0.0,0.0,0.0,0.0,0.0,0.0,0.0,0.0,0.0,0.0,0.0,0.0,0.0,0.0,0.0,0.0,0.0,0.0,0.0,0.0,0.0,0.0,0.0,0.0,0.0,0.0,0.0,0.0,0.0,0.0,0.0,0.0,0.0,0.0,0.0,0.0,0.0,0.0,0.0,0.0,0.0,0.0,0.0,0.0,0.0,0.0,0.0,0.0,0.0,0.0,0.0,0.0,0.0,0.0,0.0,0.0,0.0,0.0,0.0,0.0,0.0,0.0,-4.6315,-4.6303,-4.63,-4.6253,-4.6187,-4.6196,-4.6162,0.0,0.0,0.0,0.0,0.0,0.0,0.0,0.0,0.0,0.0,0.0,0.0,0.0,0.0,0.0,0.0,0.0,0.0,0.0,0.0,0.0,0.0,0.0,0.0,0.0,0.0,0.0,0.0,0.0,0.0,0.0,0.0,0.0,0.0,0.0,0.0,0.0,0.0,0.0,0.0,0.0,0.0,0.0,0.0,0.0,0.0,0.0,0.0,0.0,0.0,0.0,0.0,0.0,0.0,0.0,0.0,0.0,0.0,0.0,0.0,0.0,0.0,0.0,0.0,0.0,0.0,0.0,0.0,0.0,0.0,0.0,0.0,0.0,0.0,0.0,0.0,0.0,0.0,0.0,0.0,0.0,0.0,0.0,0.0,0.0,0.0,0.0,0.0,0.0,0.0,0.0,0.0,0.0,0.0,0.0,0.0,0.0,0.0,0.0,0.0,0.0,0.0,0.0,0.0,0.0,0.0,0.0,0.0,0.0,-4.63,-4.63,-4.6253,-4.6187,-4.6196,-4.6162,0.0,0.0,0.0,0.0,0.0,0.0,0.0,0.0,0.0,0.0,0.0,0.0,0.0,0.0,0.0,0.0,0.0,0.0,0.0,0.0,0.0,0.0,0.0,0.0,0.0,0.0,0.0,0.0,0.0,0.0,0.0,0.0,0.0,0.0,0.0,0.0,0.0,0.0,0.0,0.0,0.0,0.0,0.0,0.0,0.0,0.0,0.0,0.0,0.0,0.0,0.0,0.0,0.0,0.0,0.0,0.0,0.0,0.0,0.0,0.0,0.0,0.0,0.0,0.0,0.0,0.0,0.0,0.0,0.0,0.0,0.0,0.0,0.0,0.0,0.0,0.0,0.0,0.0,0.0,0.0,0.0,0.0,0.0,0.0,0.0,0.0,0.0,0.0,0.0,0.0,0.0,0.0,0.0,0.0,0.0,0.0,0.0,0.0,0.0,0.0,0.0,0.0,0.0,0.0,0.0,0.0,0.0,0.0,0.0,-4.7276,-4.7233,-4.7221,-4.7162,-4.7164,-4.712,-4.7047,0.0,0.0,0.0,0.0,0.0,0.0,0.0,0.0,0.0,0.0,0.0,0.0,0.0,0.0,0.0,0.0,0.0,0.0,0.0,0.0,0.0,0.0,0.0,0.0,0.0,0.0,0.0,0.0,0.0,0.0,0.0,0.0,0.0,0.0,0.0,0.0,0.0,0.0,0.0,0.0,0.0,0.0,0.0,0.0,0.0,0.0,0.0,0.0,0.0,0.0,0.0,0.0,0.0,0.0,0.0,0.0,0.0,0.0,0.0,0.0,0.0,0.0,0.0,0.0,0.0,0.0,0.0,0.0,0.0,0.0,0.0,0.0,0.0,0.0,0.0,0.0,0.0,0.0,0.0,0.0,0.0,0.0,0.0,0.0,0.0,0.0,0.0,0.0,0.0,0.0,0.0,0.0,0.0,0.0,0.0,0.0,0.0,0.0,0.0,0.0,0.0,0.0,0.0,0.0,0.0,0.0,0.0,0.0,-4.9029,-4.8981,-4.8889,-4.8755,-4.8709,-4.8699,0.0,0.0,0.0,0.0,0.0,0.0,0.0,0.0,0.0,0.0,0.0,0.0,0.0,0.0,0.0,0.0,0.0,0.0,0.0,0.0,0.0,0.0,0.0,0.0,0.0,0.0,0.0,0.0,0.0,0.0,0.0,0.0,0.0,0.0,0.0,0.0,0.0,0.0,0.0,0.0,0.0,0.0,0.0,0.0,0.0,0.0,0.0,0.0,0.0,0.0,0.0,0.0,0.0,0.0,0.0,0.0,0.0,0.0,0.0,0.0,0.0,0.0,0.0,0.0,0.0,0.0,0.0,0.0,0.0,0.0,0.0,0.0,0.0,0.0,0.0,0.0,0.0,0.0,0.0,0.0,0.0,0.0,0.0,0.0,0.0,0.0,0.0,0.0,0.0,0.0,0.0,0.0,0.0,0.0,0.0,0.0,0.0,0.0,0.0,0.0,0.0,0.0,0.0,0.0,0.0,0.0,0.0,0.0,0.0,-5.0711,-5.0738,-5.0104,-4.8878,-4.8748,-4.8699,0.0,0.0,0.0,0.0,0.0,0.0,0.0,0.0,0.0,0.0,0.0,0.0,0.0,0.0,0.0,0.0,0.0,0.0,0.0,0.0,0.0,0.0,0.0,0.0,0.0,0.0,0.0,0.0,0.0,0.0,0.0,0.0,0.0,0.0,0.0,0.0,0.0,0.0,0.0,0.0,0.0,0.0,0.0,0.0,0.0,0.0,0.0,0.0,0.0,0.0,0.0,0.0,0.0,0.0,0.0,0.0,0.0,0.0,0.0,0.0,0.0,0.0,0.0,0.0,0.0,0.0,0.0,0.0,0.0,0.0,0.0,0.0,0.0,0.0,0.0,0.0,0.0,0.0,0.0,0.0,0.0,0.0,0.0,0.0,0.0,0.0,0.0,0.0,0.0,0.0,0.0,0.0,0.0,0.0,0.0,0.0,0.0,0.0,0.0,0.0,0.0,0.0,0.0,0.0,0.0,0.0,0.0,0.0,-5.0884,-5.1375,-5.1406,-5.0923,-4.9931,-4.9839,-4.9798,0.0,0.0,0.0,0.0,0.0,0.0,0.0,0.0,0.0,0.0,0.0,0.0,0.0,0.0,0.0,0.0,0.0,0.0,0.0,0.0,0.0,0.0,0.0,0.0,0.0,0.0,0.0,0.0,0.0,0.0,0.0,0.0,0.0,0.0,0.0,0.0,0.0,0.0,0.0,0.0,0.0,0.0,0.0,0.0,0.0,0.0,0.0,0.0,0.0,0.0,0.0,0.0,0.0,0.0,0.0,0.0,0.0,0.0,0.0,0.0,0.0,0.0,0.0,0.0,0.0,0.0,0.0,0.0,0.0,0.0,0.0,0.0,0.0,0.0,0.0,0.0,0.0,0.0,0.0,0.0,0.0,0.0,0.0,0.0,0.0,0.0,0.0,0.0,0.0,0.0,0.0,0.0,0.0,0.0,0.0,0.0,0.0,0.0,0.0,0.0,0.0,0.0,0.0,0.0,0.0,0.0,0.0,0.0,-5.1391,-5.1375,-5.1406,-5.1391,-5.1375,-5.132,-5.1278,0.0,0.0,0.0,0.0,0.0,0.0,0.0,0.0,0.0,0.0,0.0,0.0,0.0,0.0,0.0,0.0,0.0,0.0,0.0,0.0,0.0,0.0,0.0,0.0,0.0,0.0,0.0,0.0,0.0,0.0,0.0,0.0,0.0,0.0,0.0,0.0,0.0,0.0,0.0,0.0,0.0,0.0,0.0,0.0,0.0,0.0,0.0,0.0,0.0,0.0,0.0,0.0,0.0,0.0,0.0,0.0,0.0,0.0,0.0,0.0,0.0,0.0,0.0,0.0,0.0,0.0,0.0,0.0,0.0,0.0,0.0,0.0,0.0,0.0,0.0,0.0,0.0,0.0,0.0,0.0,0.0,0.0,0.0,0.0,0.0,0.0,0.0,0.0,0.0,0.0,0.0,0.0,0.0,0.0,0.0,0.0,0.0,0.0,0.0,0.0,0.0,0.0,0.0,0.0,0.0,0.0,0.0,0.0,-5.1391,-5.1375,-5.1406,-5.1391,-5.1375,-5.132,-5.1278,0.0,0.0,0.0,0.0,0.0,0.0,0.0,0.0,0.0,0.0,0.0,0.0,0.0,0.0,0.0,0.0,0.0,0.0,0.0,0.0,0.0,0.0,0.0,0.0,0.0,0.0,0.0,0.0,0.0,0.0,0.0,0.0,0.0,0.0,0.0,0.0,0.0,0.0,0.0,0.0,0.0,0.0,0.0,0.0,0.0,0.0,0.0,0.0,-4.4065,0.0,0.0,0.0,0.0,0.0,0.0,0.0,0.0,0.0,0.0,0.0,0.0,0.0,0.0,0.0,0.0,0.0,0.0,0.0,0.0,0.0,0.0,0.0,0.0,0.0,0.0,0.0,0.0,0.0,0.0,0.0,0.0,0.0,0.0,0.0,0.0,0.0,0.0,0.0,0.0,0.0,0.0,0.0,0.0,0.0,0.0,0.0,0.0,0.0,0.0,0.0,0.0,0.0,0.0,0.0,0.0,0.0,0.0,0.0,-5.1391,-5.1375,-5.1406,-5.1391,-5.138,-5.1328,-5.1278,0.0,0.0,0.0,0.0,0.0,0.0,0.0,0.0,0.0,0.0,0.0,0.0,0.0,0.0,0.0,0.0,0.0,0.0,0.0,0.0,0.0,0.0,0.0,0.0,0.0,0.0,0.0,0.0,0.0,0.0,0.0,0.0,0.0,0.0,0.0,0.0,0.0,0.0,0.0,0.0,0.0,0.0,0.0,0.0,0.0,0.0,0.0,0.0,0.0,0.0,0.0,0.0,0.0,0.0,0.0,0.0,0.0,0.0,0.0,0.0,0.0,0.0,0.0,0.0,0.0,0.0,0.0,0.0,0.0,0.0,0.0,0.0,0.0,0.0,0.0,0.0,0.0,0.0,0.0,0.0,0.0,0.0,0.0,0.0,0.0,0.0,0.0,0.0,0.0,0.0,0.0,0.0,0.0,0.0,0.0,0.0,0.0,0.0,0.0,0.0,0.0,0.0,0.0,0.0,0.0,0.0,0.0,-5.1403,-5.1469,-5.157,-5.1596,-5.1664,-5.1776,-5.16,-5.1463,-5.1405,0.0,0.0,0.0,0.0,0.0,0.0,0.0,0.0,0.0,0.0,0.0,0.0,0.0,0.0,0.0,0.0,0.0,0.0,0.0,0.0,0.0,0.0,0.0,0.0,0.0,0.0,0.0,0.0,0.0,0.0,0.0,0.0,0.0,0.0,0.0,0.0,0.0,0.0,-4.4566,-4.5082,0.0,0.0,0.0,0.0,0.0,0.0,0.0,0.0,-4.391,0.0,0.0,0.0,0.0,0.0,0.0,0.0,0.0,0.0,0.0,0.0,0.0,0.0,0.0,0.0,0.0,0.0,0.0,0.0,0.0,0.0,0.0,0.0,0.0,0.0,0.0,0.0,0.0,0.0,0.0,0.0,0.0,0.0,0.0,0.0,0.0,0.0,0.0,0.0,0.0,0.0,0.0,0.0,0.0,0.0,0.0,0.0,0.0,0.0,0.0,0.0,0.0,0.0,0.0,0.0,0.0,-5.1406,-5.1403,-5.1743,-5.2468,-5.2406,-5.274,-5.3442,-5.2706,-5.23,-5.2261,0.0,0.0,0.0,0.0,0.0,0.0,0.0,0.0,0.0,0.0,0.0,0.0,0.0,0.0,0.0,0.0,0.0,0.0,0.0,0.0,0.0,0.0,0.0,0.0,0.0,0.0,0.0,0.0,0.0,0.0,0.0,0.0,0.0,0.0,0.0,0.0,0.0,0.0,0.0,-4.635,-4.6592,0.0,0.0,0.0,0.0,0.0,0.0,0.0,0.0,-4.391,0.0,0.0,0.0,0.0,0.0,0.0,0.0,0.0,0.0,0.0,0.0,0.0,0.0,0.0,0.0,0.0,0.0,0.0,0.0,0.0,0.0,0.0,0.0,0.0,0.0,0.0,0.0,0.0,0.0,0.0,0.0,0.0,0.0,0.0,0.0,0.0,0.0,0.0,0.0,0.0,0.0,0.0,0.0,0.0,0.0,0.0,0.0,0.0,0.0,0.0,0.0,0.0,0.0,0.0,0.0,-5.1406,-5.1403,-5.1821,-5.2663,-5.2635,-5.3007,-5.3858,-5.3437,-5.2951,0.0,0.0,0.0,0.0,0.0,0.0,0.0,0.0,0.0,0.0,0.0,0.0,0.0,0.0,0.0,0.0,0.0,0.0,0.0,0.0,0.0,0.0,0.0,0.0,0.0,0.0,0.0,0.0,0.0,0.0,0.0,0.0,0.0,0.0,0.0,0.0,0.0,0.0,0.0,0.0,-4.6939,-4.6754,-4.6333,0.0,0.0,0.0,0.0,0.0,0.0,-4.4935,-4.494,0.0,0.0,0.0,0.0,0.0,0.0,0.0,0.0,0.0,0.0,0.0,0.0,0.0,0.0,0.0,0.0,0.0,0.0,0.0,0.0,0.0,0.0,0.0,0.0,0.0,0.0,0.0,0.0,0.0,0.0,0.0,0.0,0.0,0.0,0.0,0.0,0.0,0.0,0.0,0.0,0.0,0.0,0.0,0.0,0.0,0.0,0.0,0.0,0.0,0.0,0.0,0.0,0.0,0.0,0.0,-5.1405,-5.1558,-5.2094,-5.2936,-5.3064,-5.3553,-5.4398,-5.4177,-5.368,0.0,0.0,0.0,0.0,0.0,0.0,0.0,0.0,0.0,0.0,0.0,0.0,0.0,0.0,0.0,0.0,0.0,0.0,0.0,0.0,0.0,0.0,0.0,0.0,0.0,0.0,0.0,0.0,0.0,0.0,0.0,0.0,0.0,0.0,0.0,0.0,0.0,0.0,0.0,0.0,0.0,-4.6953,-4.6557,-4.6303,0.0,0.0,0.0,0.0,-4.5646,-4.5788,0.0,0.0,0.0,0.0,0.0,0.0,0.0,0.0,0.0,0.0,0.0,0.0,0.0,0.0,0.0,0.0,0.0,0.0,0.0,0.0,0.0,0.0,0.0,0.0,0.0,0.0,0.0,0.0,0.0,0.0,0.0,0.0,0.0,0.0,0.0,0.0,0.0,0.0,0.0,0.0,0.0,0.0,0.0,0.0,0.0,0.0,0.0,0.0,0.0,0.0,0.0,0.0,0.0,0.0,0.0,0.0,-5.1421,-5.2175,-5.2992,-5.3834,-5.4513,-5.5315,-5.6166,-5.5394,-5.4547,0.0,0.0,0.0,0.0,0.0,0.0,0.0,0.0,0.0,0.0,0.0,0.0,0.0,0.0,0.0,0.0,0.0,0.0,0.0,0.0,0.0,0.0,0.0,0.0,0.0,0.0,0.0,0.0,0.0,0.0,0.0,0.0,0.0,0.0,0.0,0.0,0.0,0.0,0.0,0.0,0.0,-4.741,-4.7301,-4.7221,-4.712,0.0,0.0,-4.6952,-4.648,-4.6223,0.0,0.0,0.0,0.0,0.0,0.0,0.0,0.0,0.0,0.0,0.0,0.0,0.0,0.0,0.0,0.0,0.0,0.0,0.0,0.0,0.0,0.0,0.0,0.0,0.0,0.0,0.0,0.0,0.0,0.0,0.0,0.0,0.0,0.0,0.0,0.0,0.0,0.0,0.0,0.0,0.0,0.0,0.0,0.0,0.0,0.0,0.0,0.0,0.0,0.0,0.0,0.0,0.0,0.0,0.0,-5.1403,-5.1414,-5.2241,-5.31,-5.399,-5.4786,-5.562,-5.6464,-5.6086,-5.5392,0.0,0.0,0.0,0.0,0.0,0.0,0.0,0.0,0.0,0.0,0.0,0.0,0.0,0.0,0.0,0.0,0.0,0.0,0.0,0.0,0.0,0.0,0.0,0.0,0.0,0.0,0.0,0.0,0.0,0.0,0.0,0.0,0.0,0.0,0.0,0.0,0.0,0.0,0.0,0.0,0.0,0.0,-4.7493,-4.7741,0.0,0.0,0.0,-4.7667,-4.7238,0.0,0.0,0.0,0.0,0.0,0.0,0.0,0.0,0.0,0.0,0.0,0.0,0.0,0.0,0.0,0.0,0.0,0.0,0.0,0.0,0.0,0.0,0.0,0.0,0.0,0.0,0.0,0.0,0.0,0.0,0.0,0.0,0.0,0.0,0.0,0.0,0.0,0.0,0.0,0.0,0.0,0.0,0.0,0.0,0.0,0.0,0.0,0.0,0.0,0.0,0.0,0.0,0.0,0.0,0.0,0.0,0.0,-5.1734,-5.2585,-5.344,-5.4298,-5.5132,-5.5808,-5.6449,-5.6427,0.0,0.0,0.0,0.0,0.0,0.0,0.0,0.0,0.0,0.0,0.0,0.0,0.0,0.0,0.0,0.0,0.0,0.0,0.0,0.0,0.0,0.0,0.0,0.0,0.0,0.0,0.0,-4.7429,0.0,0.0,0.0,0.0,0.0,0.0,0.0,0.0,0.0,0.0,0.0,0.0,0.0,0.0,-4.8353,-4.7933,-4.8381,-4.8465,0.0,0.0,-4.8382,-4.7865,-4.7882,-4.7964,0.0,0.0,0.0,0.0,0.0,0.0,0.0,0.0,0.0,0.0,0.0,0.0,0.0,0.0,0.0,0.0,0.0,0.0,0.0,0.0,0.0,0.0,0.0,0.0,0.0,0.0,0.0,0.0,0.0,0.0,0.0,0.0,0.0,0.0,0.0,0.0,0.0,0.0,0.0,0.0,0.0,0.0,0.0,0.0,0.0,0.0,0.0,0.0,0.0,0.0,0.0,0.0,0.0,0.0,0.0,-5.2607,-5.3451,-5.4298,-5.5104,-5.5984,-5.6393,-5.6394,-5.6378,-5.5925,0.0,0.0,0.0,0.0,0.0,0.0,0.0,0.0,0.0,0.0,0.0,0.0,0.0,0.0,0.0,0.0,0.0,0.0,0.0,0.0,0.0,0.0,0.0,0.0,0.0,0.0,0.0,0.0,0.0,0.0,0.0,0.0,0.0,0.0,0.0,0.0,0.0,0.0,0.0,0.0,0.0,-4.8707,-4.9245,-4.9405,-4.9356,0.0,0.0,-4.9035,-4.8377,-4.8103,-4.788,-4.7624,0.0,0.0,0.0,0.0,0.0,0.0,0.0,0.0,0.0,0.0,0.0,0.0,0.0,0.0,0.0,0.0,0.0,0.0,0.0,0.0,0.0,0.0,0.0,0.0,0.0,0.0,0.0,0.0,0.0,0.0,0.0,0.0,0.0,0.0,0.0,0.0,0.0,0.0,0.0,0.0,0.0,0.0,0.0,0.0,0.0,0.0,0.0,0.0,0.0,0.0,0.0,0.0,0.0,-5.1835,-5.2685,-5.3569,-5.4411,-5.5182,-5.6062,-5.6464,-5.6407,-5.6358,-5.6122,0.0,0.0,0.0,0.0,0.0,0.0,0.0,0.0,0.0,0.0,0.0,0.0,0.0,0.0,0.0,0.0,0.0,0.0,0.0,0.0,0.0,0.0,0.0,0.0,0.0,0.0,0.0,0.0,-4.8312,-4.8112,-4.8264,0.0,0.0,0.0,0.0,0.0,0.0,0.0,0.0,0.0,0.0,-4.9512,-4.9501,-4.9655,0.0,0.0,-4.921,-4.8883,-4.8385,-4.8133,-4.788,-4.7624,-4.7482,0.0,0.0,0.0,0.0,0.0,0.0,0.0,0.0,0.0,0.0,0.0,0.0,0.0,0.0,0.0,0.0,0.0,0.0,0.0,0.0,0.0,0.0,0.0,0.0,0.0,0.0,0.0,0.0,0.0,0.0,0.0,0.0,0.0,0.0,0.0,0.0,0.0,0.0,0.0,0.0,0.0,0.0,0.0,0.0,0.0,0.0,0.0,0.0,0.0,0.0,0.0,0.0,-5.2339,-5.3466,-5.4076,-5.4801,-5.5567,-5.6179,-5.6457,-5.6378,-5.6336,-5.6291,0.0,0.0,0.0,0.0,0.0,0.0,0.0,0.0,0.0,0.0,0.0,0.0,0.0,0.0,0.0,0.0,0.0,0.0,0.0,0.0,0.0,0.0,0.0,0.0,0.0,0.0,0.0,0.0,-4.8816,-4.8674,-4.8709,0.0,0.0,0.0,0.0,0.0,0.0,0.0,0.0,0.0,0.0,-4.9987,-4.9885,-4.985,-4.9773,-4.934,-4.9128,-4.8831,-4.8301,-4.8133,-4.788,-4.7538,0.0,0.0,0.0,0.0,0.0,0.0,0.0,0.0,0.0,0.0,0.0,0.0,0.0,0.0,0.0,0.0,0.0,0.0,0.0,0.0,0.0,0.0,0.0,0.0,0.0,0.0,0.0,0.0,0.0,0.0,-5.3087,0.0,0.0,0.0,0.0,0.0,0.0,0.0,0.0,0.0,0.0,0.0,0.0,0.0,0.0,0.0,0.0,0.0,0.0,0.0,0.0,0.0,0.0,-5.353,-5.5185,-5.5208,-5.5655,-5.6407,-5.6485,-5.6449,-5.6397,-5.6325,-5.6253,-5.6218,0.0,0.0,0.0,0.0,0.0,0.0,0.0,0.0,0.0,0.0,0.0,0.0,0.0,0.0,0.0,0.0,0.0,0.0,0.0,0.0,0.0,0.0,0.0,0.0,0.0,0.0,-5.0697,-5.0215,-4.9722,0.0,0.0,0.0,0.0,0.0,0.0,0.0,0.0,0.0,0.0,-5.037,-5.0256,-5.0525,-5.0168,-4.9773,-4.934,-4.9128,-4.8749,-4.8133,-4.7964,-4.7794,0.0,0.0,0.0,0.0,0.0,0.0,0.0,0.0,0.0,0.0,0.0,0.0,0.0,0.0,0.0,0.0,0.0,0.0,0.0,0.0,0.0,0.0,0.0,0.0,0.0,0.0,0.0,-5.2947,-5.2992,0.0,0.0,0.0,0.0,0.0,0.0,0.0,0.0,0.0,0.0,0.0,-5.618,-5.6265,0.0,0.0,0.0,0.0,0.0,0.0,0.0,0.0,0.0,0.0,0.0,0.0,-5.4147,-5.5248,-5.5309,-5.5684,-5.6485,-5.6464,-5.6416,-5.6386,-5.6278,-5.6156,-5.6016,0.0,0.0,0.0,0.0,0.0,0.0,0.0,0.0,0.0,0.0,0.0,0.0,0.0,0.0,0.0,0.0,0.0,0.0,0.0,0.0,0.0,0.0,0.0,0.0,0.0,-5.0981,0.0,0.0,0.0,0.0,0.0,0.0,0.0,0.0,0.0,0.0,0.0,-4.9549,-5.0228,-5.0381,-5.0338,-5.0168,-4.9741,-4.9372,0.0,0.0,0.0,0.0,0.0,0.0,0.0,0.0,0.0,0.0,0.0,0.0,0.0,0.0,-4.9523,-4.9314,-4.9254,-4.9404,-4.9823,0.0,0.0,0.0,0.0,0.0,0.0,0.0,0.0,0.0,0.0,0.0,0.0,0.0,0.0,-5.3805,0.0,-5.3942,0.0,0.0,0.0,0.0,0.0,0.0,0.0,0.0,-5.6033,-5.6101,-5.6164,-5.6223,-5.6278,0.0,-5.6347,-5.5823,0.0,0.0,0.0,0.0,0.0,0.0,0.0,0.0,-5.4892,-5.5708,-5.5733,-5.5951,-5.6446,-5.641,-5.6407,-5.6386,-5.6265,-5.6078,-5.5905,-5.5745,-5.5554,0.0,0.0,0.0,0.0,0.0,0.0,0.0,0.0,0.0,0.0,0.0,0.0,0.0,0.0,0.0,0.0,0.0,0.0,0.0,0.0,0.0,0.0,0.0,-5.0655,0.0,0.0,0.0,0.0,0.0,0.0,0.0,0.0,0.0,-4.9722,-4.9846,-5.0091,-5.0431,-5.053,-5.0466,-5.001,0.0,0.0,0.0,0.0,0.0,0.0,0.0,-4.8892,-4.8715,-4.8952,-4.9342,-4.9552,-4.9761,-5.0092,-5.0511,0.0,0.0,-5.0032,-4.9942,-5.0062,-5.0481,-5.0601,-5.072,-5.1139,-5.1229,-5.1229,0.0,0.0,0.0,0.0,0.0,0.0,0.0,0.0,-5.539,-5.549,0.0,-5.5593,0.0,0.0,0.0,0.0,0.0,-5.5882,0.0,0.0,-5.6116,-5.6111,-5.6195,-5.6281,-5.634,-5.633,-5.6442,-5.6417,-5.6308,-5.5606,0.0,0.0,0.0,0.0,0.0,0.0,-5.5726,-5.6528,-5.6514,-5.6497,-5.6485,-5.6449,-5.6398,-5.6375,-5.6185,-5.6051,-5.5905,-5.5703,-5.5508,-5.5389,-5.5183,0.0,0.0,0.0,0.0,0.0,0.0,0.0,0.0,0.0,0.0,0.0,0.0,0.0,0.0,0.0,0.0,0.0,0.0,0.0,0.0,-5.0729,0.0,0.0,0.0,0.0,0.0,0.0,0.0,0.0,0.0,0.0,-5.09,-5.0785,-5.079,-5.1145,0.0,0.0,0.0,0.0,-4.949,-4.9894,-4.9597,-4.9443,-4.9877,-4.9732,-4.9554,-4.9374,0.0,0.0,-5.0139,-5.0773,-5.1169,-5.1199,-5.1199,-5.1229,-5.1199,-5.1139,-5.1169,-5.1199,-5.1169,-5.1229,-5.1229,-5.1229,-5.1229,-5.8644,0.0,0.0,0.0,0.0,-5.6746,-5.6814,-5.6892,-5.7003,-5.6804,-5.6332,-5.6443,0.0,0.0,0.0,0.0,0.0,0.0,-5.7618,-5.7679,-5.7757,-5.7812,-5.786,-5.7947,-5.7683,-5.7183,-5.7235,-5.6952,-5.6407,-5.6223,-5.6029,-5.5786,0.0,0.0,0.0,0.0,-5.6351,-5.6567,-5.6542,-5.6485,-5.6485,-5.6416,-5.6364,-5.6251,-5.6062,-5.5884,-5.5807,-5.5638,-5.5437,-5.5262,-5.513,0.0,0.0,0.0,0.0,0.0,0.0,0.0,0.0,0.0,0.0,0.0,0.0,0.0,0.0,0.0,0.0,0.0,0.0,0.0,-5.0892,-5.0453,-5.0114,0.0,0.0,0.0,0.0,0.0,0.0,0.0,0.0,0.0,-5.1514,-5.0928,-5.057,0.0,0.0,-4.9962,-4.9533,-4.9646,-4.9687,-4.9566,-4.9652,0.0,-4.9672,-4.9915,-5.0034,-4.9942,-5.0331,-5.075,-5.0926,-5.1046,-5.1229,-5.1229,-5.1229,-5.1229,-5.1229,-5.1229,-5.1229,-5.1229,-5.1229,-5.1229,-5.1229,-5.1229,-5.1229,-6.0124,-5.8422,-5.7978,-5.7745,-5.7578,-5.744,-5.7476,-5.7587,-5.7672,-5.7516,-5.7226,-5.7301,-5.7043,-5.6652,-5.7258,0.0,0.0,0.0,-5.8329,-5.8333,-5.8432,-5.8491,-5.8544,-5.8651,-5.8428,-5.8008,-5.8066,-5.7698,-5.6874,-5.6956,-5.6842,-5.6514,0.0,0.0,-5.6601,-5.6598,-5.6624,-5.6606,-5.6536,-5.6478,-5.6471,-5.6417,-5.6304,-5.618,-5.6012,-5.5847,-5.5787,-5.5615,-5.5389,-5.521,-5.514,-5.4941,0.0,0.0,0.0,0.0,0.0,0.0,0.0,0.0,0.0,0.0,0.0,-5.2717,-5.248,0.0,0.0,0.0,-5.147,-5.1264,-5.0983,-5.0736,0.0,0.0,0.0,0.0,0.0,0.0,0.0,-5.1663,-5.1582,-5.1592,-5.1769,-5.1067,-5.0596,-5.0602,-5.0184,-4.9833,-4.9747,0.0,-5.0036,-5.0044,-5.0296,-5.0395,-5.0366,-5.0545,-5.0631,-5.0631,-5.096,-5.1199,-5.1229,-5.1229,-5.1229,-5.1229,-5.1229,-5.1229,-5.1229,-5.1229,-5.1229,-5.1229,-5.1229,-5.1289,-5.1528,-5.1618,-5.1678,-6.1329,-6.1284,-6.0037,-5.9213,-5.86,-5.7937,-5.7787,-5.7862,-5.7873,-5.7974,-5.8106,-5.8157,-5.8232,-5.8304,-5.8373,0.0,-5.8511,-5.8511,-5.8495,-5.8522,-5.8564,-5.8625,-5.8723,-5.8776,-5.8806,-5.8777,-5.8933,-5.8569,-5.7748,-5.7844,-5.7453,-5.6602,-5.667,-5.6663,-5.6601,-5.6598,-5.6585,-5.6563,-5.6536,-5.6471,-5.6488,-5.6364,-5.6251,-5.618,-5.6012,-5.5847,-5.5787,-5.5577,-5.5389,-5.5183,-5.5085,-5.4882,-5.4705,0.0,0.0,0.0,0.0,0.0,0.0,0.0,0.0,0.0,0.0,0.0,0.0,0.0,0.0,0.0,-5.1335,0.0,-5.1546,-5.136,0.0,0.0,0.0,-5.1447,-5.1124,-5.1598,-5.1797,-5.1625,0.0,0.0,-5.1794,-5.1275,-5.082,-5.0557,-5.0231,-5.0007,-5.0278,-5.0195,-5.0383,-5.1083,-5.109,-5.1183,-5.1361,-5.1233,-5.1169,-5.1169,-5.1229,-5.1229,-5.1229,-5.1229,-5.1229,-5.1229,-5.1229,-5.1229,-5.1229,-5.1229,-5.1229,-5.1229,-5.1289,-5.1498,-5.2007,-5.2217,-5.2426,-6.3057,-6.2048,-6.1969,-6.1539,-6.098,-6.0335,-6.0165,-6.0215,-5.9764,-5.9273,-5.8786,-5.8884,-5.8987,-5.911,-5.9181,-5.955,-6.0204,-6.0204,-6.0227,-6.0294,-6.0359,-6.0401,-6.0423,-6.0517,-6.0278,-5.9708,-5.9799,-5.94,-5.8604,-5.8676,-5.8289,-5.7538,-5.7568,-5.7249,-5.664,-5.6598,-5.6582,-5.6509,-5.653,-5.6496,-5.6417,-5.6278,-5.617,-5.6133,-5.5959,-5.5807,-5.566,-5.5523,-5.5314,-5.513,-5.5,-5.4822,-5.4705,-5.4405,0.0,0.0,0.0,0.0,0.0,0.0,0.0,0.0,0.0,-5.2733,-5.3062,0.0,-5.2763,0.0,-5.2593,-5.2265,-5.2277,-5.1968,0.0,0.0,-5.2085,-5.2227,-5.1832,-5.2336,-5.2497,-5.2113,-5.1954,-5.1721,-5.1392,-5.0972,-5.0512,-5.0089,-5.0133,-5.0184,-5.0289,-5.0715,-5.1019,-5.1149,-5.1304,-5.1421,-5.1263,-5.1229,-5.1229,-5.1229,-5.1229,-5.1229,-5.1229,-5.1229,-5.1229,-5.1229,-5.1229,-5.1229,-5.1229,-5.1229,-5.1229,-5.1259,-5.1618,-5.2007,-5.2187,-5.2576,-5.2995,-6.4372,-6.3363,-6.3631,-6.3318,-6.266,-6.1807,-6.1533,-6.1629,-6.1337,-6.1005,-6.0675,-6.0491,-6.024,-5.9955,-6.0065,-6.0319,-6.0781,-6.0781,-6.0843,-6.0866,-6.0955,-6.1018,-6.1,-6.1118,-6.0958,-6.0599,-6.0638,-6.0255,-5.9499,-5.9572,-5.9225,-5.8396,-5.8426,-5.7991,-5.7148,-5.6788,-5.6571,-5.6503,-5.6464,-5.6416,-5.6386,-5.6278,-5.6141,-5.6117,-5.598,-5.5787,-5.5615,-5.5461,-5.5288,-5.5113,-5.4941,-5.4799,-5.4705,-5.4337,-5.4163,0.0,0.0,0.0,0.0,0.0,0.0,0.0,0.0,0.0,0.0,0.0,-5.3353,-5.3399,-5.2984,-5.2705,-5.2879,-5.2571,-5.2375,-5.2561,-5.2836,-5.2875,-5.2505,-5.2738,-5.2694,-5.2269,-5.2013,-5.1647,-5.1242,-5.0864,-5.0402,-4.9963,-5.0379,-5.0673,-5.0683,-5.1005,-5.133,-5.1395,-5.1545,-5.1509,-5.1229,-5.1229,-5.1229,-5.1229,-5.1229,-5.1229,-5.1229,-5.1229,-5.1229,-5.1229,-5.1229,-5.1229,-5.1229,-5.1229,-5.1229,-5.1289,-5.1738,-5.2247,-5.2576,-5.3174,-5.3683,-6.5386,-6.479,-6.5068,-6.4718,-6.3995,-6.2974,-6.2518,-6.2542,-6.2553,-6.268,-6.2765,-6.223,-6.1608,-6.1031,-6.1104,-6.1127,-6.1127,-6.1127,-6.1127,-6.1127,-6.1125,-6.1152,-6.1152,-6.1138,-6.1173,-6.1297,-6.1376,-6.1033,-6.0355,-6.0516,-6.0137,-5.9293,-5.929,-5.8811,-5.7969,-5.7249,-5.6792,-5.6503,-5.6433,-5.6417,-5.6386,-5.6265,-5.6164,-5.6062,-5.598,-5.5825,-5.5615,-5.5476,-5.5288,-5.5075,-5.4882,-5.4736,-5.4673,-5.4303,-5.4091,0.0,-5.3829,0.0,0.0,0.0,0.0,0.0,0.0,0.0,0.0,-5.4294,-5.3937,-5.3379,-5.3125,-5.3063,-5.3359,-5.3169,-5.3164,-5.3647,-5.3517,-5.328,-5.2972,-5.2903,-5.2624,-5.2086,-5.1868,-5.1647,-5.1167,-5.0743,-5.0324,-4.9915,-5.0485,-5.0932,-5.0955,-5.1138,-5.1515,-5.1911,-5.1695,-5.1386,-5.1229,-5.1229,-5.1229,-5.1229,-5.1229,-5.1229,-5.1229,-5.1229,-5.1229,-5.1229,-5.1229,-5.1229,-5.1229,-5.1229,-5.1229,-5.1229,-5.1738,-5.2336,-5.2875,-5.3593,-5.4371,-6.6186,-6.5496,-6.584,-6.5576,-6.4967,-6.4919,-6.4179,-6.3122,-6.2686,-6.268,-6.2862,-6.2842,-6.277,-6.2643,-6.2771,-6.282,-6.282,-6.282,-6.282,-6.282,-6.2243,-6.2,-6.1923,-6.137,-6.1173,-6.1297,-6.1306,-6.1317,-6.125,-6.1315,-6.0932,-6.0152,-6.0143,-5.9709,-5.8906,0.0,0.0,0.0,-5.6446,-5.6397,-5.6386,-5.6265,-5.6149,-5.6029,-5.5961,0.0,-5.5547,-5.5364,-5.5275,-5.5113,-5.489,0.0,0.0,0.0,0.0,0.0,0.0,0.0,0.0,0.0,0.0,0.0,-5.5433,-5.523,-5.5219,-5.5233,-5.5051,-5.466,-5.4513,-5.4329,-5.4046,-5.3866,-5.3713,-5.3686,-5.345,-5.3179,-5.2903,-5.2764,-5.2412,-5.1941,-5.1647,-5.135,-5.082,-5.0324,-4.9931,-4.9564,-4.9926,-5.0306,-5.0432,-5.1239,-5.1789,-5.1665,-5.1479,-5.1323,-5.1229,-5.1229,-5.1229,-5.1229,-5.1229,-5.1229,-5.1229,-5.1229,-5.1229,-5.1229,-5.1229,-5.1229,-5.1229,-5.1229,-5.1229,-5.1229,-5.1738,-5.2247,-5.2396,-5.3354,-5.4251,-6.6948,0.0,-6.6553,-6.6304,0.0,-6.5464,-6.5035,-6.4483,-6.3944,-6.3574,-6.3444,-6.3646,-6.3499,-6.3115,-6.3245,-6.332,-6.332,-6.332,-6.332,-6.3281,-6.2975,-6.2849,-6.2811,-6.2065,-6.1792,-6.1879,-6.1516,-6.1394,-6.1484,-6.1559,-6.1409,-6.0971,-6.1041,-6.0604,-5.9764,-5.9322,-5.8465,-5.7148,-5.6641,-5.6386,-5.6386,-5.6265,-5.6133,-5.6012,0.0,0.0,0.0,0.0,0.0,0.0,0.0,0.0,0.0,0.0,0.0,-5.4351,-5.46,-5.4944,-5.5537,-5.5716,-5.6018,-5.6536,-5.6149,-5.583,-5.5667,-5.5552,-5.5389,-5.5053,-5.4745,-5.4488,-5.4155,-5.3909,-5.3817,-5.3619,-5.3348,-5.311,-5.2903,-5.2624,-5.2269,-5.1835,-5.1573,-5.1199,-5.0666,-5.0168,-4.9773,-4.9403,-4.9553,-4.9897,-5.014,-5.0908,-5.1486,-5.1419,-5.1323,-5.1229,-5.1229,-5.1229,-5.1229,-5.1229,-5.1229,-5.1229,-5.1229,-5.1229,-5.1229,-5.1229,-5.1229,-5.1229,-5.1229,-5.1229,-5.1229,-5.1259,-5.1468,-5.1708,-5.1768,-5.2785,-5.3713,-6.7598,-6.711,-6.7259,-6.702,-6.6568,-6.5895,-6.5703,-6.5766,0.0,0.0,0.0,-6.4527,-6.4227,-6.3576,-6.3668,-6.3782,-6.3743,-6.3782,-6.3743,-6.3743,-6.3746,-6.3737,-6.3698,-6.2954,-6.2567,-6.246,-6.188,-6.1577,-6.1484,-6.1578,-6.1588,-6.1602,-6.1666,-6.1346,-6.0624,-5.9751,-5.8973,-5.824,-5.7186,-5.6552,-5.6425,-5.6265,-5.6133,-5.6012,-5.5961,-5.5766,-5.5485,-5.5364,-5.5248,-5.5113,-5.486,-5.4641,-5.4472,-5.4345,-5.4503,-5.4907,-5.504,-5.5564,-5.6667,-5.6609,-5.6697,-5.7051,-5.6492,-5.6085,-5.5879,-5.5531,-5.5294,-5.4992,-5.462,-5.4362,-5.4029,-5.3844,-5.3651,-5.345,-5.328,-5.3041,-5.2834,-5.2483,-5.2125,-5.1835,-5.1392,-5.0972,-5.0557,-5.0089,-4.9693,-4.9353,-4.9316,-4.9518,-4.9847,-5.0547,-5.1182,-5.1203,-5.1229,-5.1229,-5.1229,-5.1229,-5.1229,-5.1229,-5.1229,-5.1229,-5.1229,-5.1229,-5.1229,-5.1229,-5.1229,-5.1229,-5.1229,-5.1229,-5.1229,-5.1229,-5.1229,-5.1229,-5.1319,-5.2067,-5.2815,-6.793,-6.7922,-6.8111,-6.7837,-6.7427,-6.7315,-6.6716,-6.5766,-6.5373,-6.5155,-6.5137,-6.5341,-6.5378,-6.5263,-6.5462,-6.5513,-6.5551,-6.5551,-6.5551,-6.5513,-6.4902,-6.4624,-6.4585,-6.3863,-6.3147,-6.2538,-6.2463,-6.2121,-6.1562,-6.1556,-6.1595,-6.1602,-6.1666,-6.1629,-6.1442,-6.064,-6.0143,-5.9996,-5.8373,-5.7157,-5.6425,-5.6265,-5.6133,-5.6012,-5.5943,-5.5805,-5.5485,-5.5364,-5.5222,-5.5028,-5.4829,-5.4576,-5.4268,-5.4798,-5.5025,-5.4814,-5.5908,-5.6573,-5.6463,-5.6843,-5.6927,-5.6546,-5.6162,-5.5822,-5.5566,-5.5234,-5.5026,-5.4842,-5.4494,-5.4141,-5.4011,-5.3815,-5.3551,-5.3278,-5.3039,-5.2834,-5.2694,-5.2373,-5.2013,-5.1794,-5.1275,-5.0788,-5.0292,-4.9741,-4.9372,-4.9078,-4.8943,-4.8858,-4.964,-5.0485,-5.1143,-5.1199,-5.1229,-5.1229,-5.1229,-5.1229,-5.1229,-5.1229,-5.1229,-5.1229,-5.1229,-5.1229,-5.1229,-5.1229,-5.1229,-5.1229,-5.1229,-5.1229,-5.1229,-5.1229,-5.1229,-5.1229,-5.1229,-5.1468,-5.1772,-6.8305,-6.8107,-6.8121,-6.8234,-6.8286,-6.8066,-6.7413,-6.6559,-6.6549,-6.6069,-6.5296,-6.5494,-6.5608,-6.5608,-6.5808,-6.5897,-6.5897,-6.5897,-6.5897,-6.5859,-6.5596,-6.5473,-6.5357,-6.4734,-6.4268,-6.3895,-6.3541,-6.2951,-6.2274,-6.2297,-6.2063,-6.1641,-6.1681,-6.1715,-6.167,-6.1299,-6.0846,-6.0386,-5.9083,-5.7975,-5.7086,-5.6925,-5.6575,-5.6012,-5.5885,-5.5724,-5.5485,-5.5314,-5.5157,-5.5,-5.5215,-5.5183,-5.4945,-5.5548,-5.5914,-5.5992,-5.6558,-5.6923,-5.7036,-5.6921,-5.6707,-5.6308,-5.5879,-5.5531,-5.5234,-5.5113,-5.4869,-5.4655,-5.4303,-5.4011,-5.3878,-5.3683,-5.3484,-5.3276,-5.3004,-5.2764,-5.2483,-5.2125,-5.1794,-5.1466,-5.1048,-5.0589,-5.0058,-4.9613,-4.921,-4.9058,-4.899,-4.927,-4.9463,-5.0453,-5.1229,-5.1229,-5.1229,-5.1229,-5.1229,-5.1229,-5.1229,-5.1229,-5.1229,-5.1229,-5.1229,-5.1229,-5.1229,-5.1229,-5.1229,-5.1229,-5.1229,-5.1229,-5.1229,-5.1229,-5.1229,-5.1229,-5.1229,-5.1229,-5.1289,-6.8583,-6.807,-6.807,-6.8408,-6.8892,-6.8692,-6.8105,-6.7427,-6.78,-6.714,-6.5912,-6.5847,-6.58,-6.5608,-6.5808,-6.5897,-6.5897,-6.5897,-6.5897,-6.5923,-6.5982,-6.6013,-6.5997,-6.5489,-6.5216,-6.5075,-6.4527,-6.3871,-6.3169,-6.296,-6.246,-6.1732,-6.1655,-6.1717,-6.1709,-6.169,-6.1353,-6.0659,-5.9941,-5.8997,-5.7943,-5.7779,-5.735,-5.6631,-5.6445,-5.628,-5.6098,-5.5861,-5.5673,-5.5578,-5.5939,-5.6014,-5.577,-5.6331,-5.6763,-5.7063,-5.7059,-5.7152,-5.7364,-5.6917,-5.6437,-5.6106,-5.5742,-5.5389,-5.5053,-5.493,-5.4745,-5.4431,-5.4175,-5.3912,-5.3744,-5.3583,-5.3382,-5.314,-5.297,-5.2694,-5.234,-5.198,-5.1614,-5.1242,-5.0864,-5.0434,-4.9931,-4.9533,-4.9128,-4.8872,-4.9347,-4.967,-4.9554,-5.0391,-5.1139,-5.1229,-5.1229,-5.1229,-5.1229,-5.1229,-5.1229,-5.1229,-5.1229,-5.1229,-5.1229,-5.1229,-5.1229,-5.1229,-5.1229,-5.1229,-5.1229,-5.1229,-5.1229,-5.1229,-5.1229,-5.1229,-5.1229,-5.1229,-5.1229,-6.8583,-6.8144,-6.807,-6.8408,-6.8929,-6.9298,-6.8973,-6.8258,-6.8599,-6.832,-6.7402,-6.6957,-6.6375,-6.5685,-6.5846,-6.5936,-6.5897,-6.5897,-6.5897,-6.5923,-6.5943,-6.6013,-6.6013,-6.6069,-6.5798,-6.5231,-6.5149,-6.4766,-6.3986,-6.3271,-6.2506,-6.1793,-6.1701,-6.1717,-6.1709,-6.169,-6.1627,-6.1478,-6.1361,-6.0448,-5.8877,-5.8658,-5.8474,-5.8294,-5.8104,-5.8011,-5.7747,-5.7619,-5.7358,-5.7187,-5.697,-5.6772,-5.6594,-5.7072,-5.7274,-5.7007,-5.74,-5.7498,-5.6933,-5.66,-5.6273,-5.5993,-5.5648,-5.5329,-5.4992,-5.478,-5.4431,-5.4274,-5.411,-5.3912,-5.3744,-5.3617,-5.3348,-5.3039,-5.2937,-5.2694,-5.223,-5.1941,-5.1647,-5.1275,-5.082,-5.0356,-4.9741,-4.9452,-4.8996,-4.8424,-4.923,-4.967,-4.9524,-5.0391,-5.1229,-5.1229,-5.1229,-5.1229,-5.1229,-5.1229,-5.1229,-5.1229,-5.1229,-5.1229,-5.1229,-5.1229,-5.1229,-5.1229,-5.1229,-5.1229,-5.1229,-5.1229,-5.1229,-5.1229,-5.1229,-5.1229,-5.1229,-5.1229,-5.1229,-6.8987,-6.8107,-6.807,-6.8408,-6.8929,-6.9411,-6.9428,-6.9168,-6.9509,-6.923,-6.8531,-6.8403,-6.764,-6.6375,-6.6538,-6.6359,-6.5897,-6.5897,-6.5897,-6.5923,-6.5943,-6.6013,-6.6036,-6.6225,-6.6165,-6.5929,-6.5994,-6.5648,-6.4761,-6.36,-6.2792,-6.2462,-6.1963,-6.1713,-6.1711,-6.169,-6.1666,-6.1595,-6.1517,-6.1149,-6.046,-5.9799,-5.9171,-5.8565,-5.8353,-5.8158,-5.8004,-5.7756,-5.7528,-5.7321,-5.7544,-5.7563,-5.7341,-5.781,-5.7968,-5.77,-5.7496,-5.7239,-5.6707,-5.6437,-5.6106,-5.5706,-5.5354,-5.5148,-5.4938,-5.4972,-5.4926,-5.4727,-5.4188,-5.3749,-5.3617,-5.345,-5.3212,-5.297,-5.2797,-5.2516,-5.2013,-5.1721,-5.1424,-5.0864,-5.048,-5.001,-4.9564,-4.9365,-4.914,-4.8773,-4.9478,-5.0001,-4.9884,-5.0631,-5.1139,-5.1229,-5.1229,-5.1229,-5.1229,-5.1229,-5.1229,-5.1229,-5.1229,-5.1229,-5.1229,-5.1229,-5.1229,-5.1229,-5.1229,-5.1229,-5.1229,-5.1229,-5.1229,-5.1229,-5.1229,-5.1229,-5.1229,-5.1229,-5.1229,-6.9483,-6.8476,-6.837,-6.8554,-6.8967,-6.9411,-6.962,-6.9738,-7.0077,-6.9912,-6.9442,-6.9628,-6.8982,-6.7707,-6.7499,-6.7013,-6.632,-6.6205,-6.6115,-6.5986,-6.6005,-6.6013,-6.6058,-6.6284,-6.6415,-6.6411,-6.6514,-6.6178,-6.5377,-6.4318,-6.3578,-6.3286,-6.2505,-6.2061,-6.2024,-6.1846,-6.1666,-6.1595,-6.1556,-6.15,-6.1343,-6.0716,-5.9985,-5.9279,-5.9027,-5.8803,-5.8616,-5.8359,-5.8152,-5.79,-5.8267,-5.8353,-5.8161,-5.828,-5.8268,-5.795,-5.7388,-5.6933,-5.6546,-5.6431,-5.6233,-5.5823,-5.5602,-5.5494,-5.541,-5.5537,-5.5549,-5.5348,-5.4669,-5.4262,-5.3991,-5.3853,-5.3713,-5.3461,-5.3252,-5.2937,-5.2491,-5.216,-5.1847,-5.1243,-5.0946,-5.0259,-4.9739,-4.9553,-4.9396,-4.9326,-4.991,-5.0486,-5.0333,-5.078,-5.1229,-5.1229,-5.1229,-5.1229,-5.1229,-5.1229,-5.1229,-5.1229,-5.1229,-5.1229,-5.1229,-5.1229,-5.1229,-5.1229,-5.1229,-5.1229,-5.1229,-5.1229,-5.1229,-5.1229,-5.1229,-5.1229,-5.1229,-5.1229,-5.1229,-6.9868,-6.923,-6.8985,-6.8875,-6.8967,-6.9411,-6.962,-6.9738,-7.0077,-7.0182,-7.0243,-7.0463,-7.0133,-6.9212,-6.8663,-6.7898,-6.7128,-6.6974,-6.664,-6.6112,-6.6029,-6.6036,-6.6102,-6.6303,-6.6415,-6.6411,-6.6514,-6.6252,-6.5558,-6.5386,-6.4994,-6.4206,-6.3377,-6.2922,-6.2766,-6.2158,-6.1666,-6.1595,-6.1517,-6.145,-6.1396,-6.1283,-6.1087,-6.0824,-6.0745,-6.0468,-6.0283,-6.0053,-5.9728,-5.9564,-5.9251,-5.9025,-5.8825,-5.8443,-5.7914,-5.7338,-5.7021,-5.6707,-5.6525,-5.6702,-5.6681,-5.6606,-5.6628,-5.6794,-5.6426,-5.6267,-5.6099,-5.5927,-5.5788,-5.5511,-5.5373,-5.5097,-5.4946,-5.4634,-5.446,-5.4072,-5.3727,-5.3213,-5.305,-5.2509,-5.1896,-5.1257,-5.0561,-5.0235,-4.9873,-4.9789,-4.9972,-5.0326,-5.0421,-5.084,-5.1169,-5.1229,-5.1229,-5.1229,-5.1229,-5.1229,-5.1229,-5.1229,-5.1229,-5.1229,-5.1229,-5.1229,-5.1229,-5.1229,-5.1229,-5.1229,-5.1229,-5.1229,-5.1229,-5.1229,-5.1229,-5.1229,-5.1229,-5.1229,-5.1229,-6.9626,-6.8666,-6.8846,-6.8929,-6.9027,-6.9411,-6.9737,-6.9929,-7.0114,-7.0255,-7.0386,-7.0578,-7.0516,-7.0209,-7.0074,-6.9244,-6.7975,-6.7359,-6.6962,-6.669,-6.6237,-6.6036,-6.6123,-6.6303,-6.6394,-6.6445,-6.6528,-6.6535,-6.6307,-6.5836,-6.5434,-6.507,-6.4258,-6.3588,-6.3035,-6.2696,-6.2239,-6.1673,-6.1539,-6.1479,-6.1396,-6.1291,-6.1173,-6.0964,-6.0856,-6.066,-6.0398,-6.0099,-5.9847,-5.9581,-5.9328,-5.9061,-5.8777,-5.8179,-5.7631,-5.7261,-5.7244,-5.7188,-5.7036,-5.7246,-5.7307,-5.7095,-5.6888,-5.6771,-5.6641,-5.6645,-5.6745,-5.6673,-5.6867,-5.6853,-5.6432,-5.5828,-5.5074,-5.47,-5.4444,-5.4142,-5.3616,-5.3304,-5.2909,-5.2345,-5.1769,-5.1095,-5.0728,-5.0549,-5.0559,-5.0306,-5.0633,-5.0777,-5.0837,-5.1109,-5.1229,-5.1229,-5.1229,-5.1229,-5.1229,-5.1229,-5.1229,-5.1229,-5.1229,-5.1229,-5.1229,-5.1229,-5.1229,-5.1229,-5.1229,-5.1229,-5.1229,-5.1229,-5.1229,-5.1229,-5.1229,-5.1229,-5.1229,-5.1229,-5.1229,-6.9584,-6.8519,-6.8782,-6.8937,-6.9041,-6.9416,-6.9738,-7.0003,-7.0149,-7.0289,-7.0451,-7.0647,-7.0737,-7.0729,-7.0843,-7.0321,-6.9206,-6.8359,-6.7834,-6.7562,-6.68,-6.6483,-6.6531,-6.6438,-6.6411,-6.6422,-6.6569,-6.6673,-6.6744,-6.6271,-6.6028,-6.5966,-6.5146,-6.4418,-6.3884,-6.3545,-6.2928,-6.2165,-6.1958,-6.1768,-6.1433,-6.1236,-6.1118,-6.0902,-6.0804,-6.0585,-6.0285,-6.0045,-5.9786,-5.951,-5.9253,-5.9014,-5.8732,-5.8223,-5.7833,-5.7778,-5.7818,-5.7747,-5.7565,-5.7842,-5.7926,-5.7642,-5.7524,-5.7294,-5.7227,-5.7361,-5.7423,-5.7416,-5.7471,-5.7514,-5.7197,-5.6311,-5.5521,-5.5147,-5.4919,-5.4612,-5.4096,-5.3777,-5.3291,-5.266,-5.213,-5.1549,-5.0992,-5.1147,-5.1091,-5.0817,-5.1053,-5.1199,-5.1229,-5.1229,-5.1229,-5.1229,-5.1229,-5.1229,-5.1229,-5.1229,-5.1229,-5.1229,-5.1229,-5.1229,-5.1229,-5.1229,-5.1229,-5.1229,-5.1229,-5.1229,-5.1229,-5.1229,-5.1229,-5.1229,-5.1229,-5.1229,-5.1229,-5.1229,-5.1229,-6.9702,-6.8617,-6.8828,-6.8945,-6.9053,-6.9457,-6.9776,-7.0003,-7.0149,-7.0324,-7.0554,-7.0678,-7.0729,-7.0787,-7.0871,-7.0821,-7.0552,-6.986,-6.9207,-6.8574,-6.7711,-6.7354,-6.7346,-6.6805,-6.6489,-6.6439,-6.6591,-6.672,-6.6783,-6.6778,-6.677,-6.6674,-6.6008,-6.5512,-6.5507,-6.4587,-6.378,-6.3085,-6.2844,-6.2367,-6.1453,-6.1458,-6.1351,-6.1065,-6.0916,-6.0655,-6.0373,-5.9961,-5.965,-5.9551,-5.9212,-5.8974,-5.9051,-5.8674,-5.85,-5.8697,-5.8723,-5.8391,-5.8017,-5.8402,-5.8602,-5.8245,-5.8496,-5.8461,-5.8217,-5.8106,-5.7997,-5.778,-5.7594,-5.7514,-5.7214,-5.6778,-5.6371,-5.6336,-5.5903,-5.5585,-5.528,-5.4966,-5.4412,-5.3427,-5.2927,-5.2757,-5.2215,-5.1789,-5.1606,-5.1266,-5.1169,-5.1229,-5.1229,-5.1229,-5.1229,-5.1229,-5.1229,-5.1229,-5.1229,-5.1229,-5.1229,-5.1229,-5.1229,-5.1229,-5.1229,-5.1229,-5.1229,-5.1229,-5.1229,-5.1229,-5.1229,-5.1229,-5.1229,-5.1229,-5.1229,-5.1229,-5.1229,-5.1229,-5.1229,-6.9791,-6.8724,-6.8828,-6.9027,-6.9294,-6.9498,-6.9815,-7.0114,-7.0185,-7.0362,-7.0554,-7.0678,-7.0767,-7.0787,-7.0871,-7.0898,-7.086,-7.0591,-7.0131,-6.9423,-6.8598,-6.7995,-6.7619,-6.7348,-6.695,-6.662,-6.6683,-6.6775,-6.683,-6.6862,-6.6887,-6.6828,-6.6638,-6.6188,-6.5663,-6.5244,-6.4669,-6.3904,-6.3698,-6.3429,-6.302,-6.2897,-6.2716,-6.2488,-6.2257,-6.2069,-6.1755,-6.0392,-5.9847,-6.0116,-5.9763,-5.9627,-5.9591,-5.9269,-5.9042,-5.8816,-5.9064,-5.8991,-5.873,-5.8945,-5.9137,-5.877,-5.8633,-5.8456,-5.8348,-5.8099,-5.7881,-5.7735,-5.7514,-5.7289,-5.6911,-5.668,-5.6402,-5.6244,-5.5846,-5.5409,-5.5031,-5.4359,-5.3671,-5.3233,-5.2788,-5.2427,-5.2063,-5.1911,-5.1604,-5.1293,-5.1229,-5.1229,-5.1229,-5.1229,-5.1229,-5.1229,-5.1229,-5.1379,-5.1528,-5.1618,-5.1618,-5.1498,-5.1379,-5.1229,-5.1229,-5.1229,-5.1229,-5.1229,-5.1229,-5.1229,-5.1229,-5.1229,-5.1229,-5.1229,-5.1229,-5.1229,-5.1229,-5.1229,-5.1229,-6.9804,-6.8735,-6.8875,-6.9116,-6.9382,-6.9539,-6.9815,-7.0149,-7.0185,-7.0358,-7.0616,-7.0678,-7.0729,-7.0815,-7.0871,-7.0898,-7.0898,-7.0898,-7.0709,-7.0232,-6.9485,-6.8845,-6.8394,-6.7885,-6.7285,-6.675,-6.6741,-6.6822,-6.6814,-6.6856,-6.6891,-6.691,-6.6911,-6.6618,-6.6082,-6.5978,-6.5558,-6.4773,-6.4558,-6.424,-6.3839,-6.3631,-6.3438,-6.3156,-6.2911,-6.2642,-6.2273,-6.1049,-6.0454,-6.0631,-6.029,-6.011,-6.0201,-5.9889,-5.9614,-5.9572,-5.9537,-5.9514,-5.9214,-5.9307,-5.9251,-5.8909,-5.8631,-5.8348,-5.8205,-5.7954,-5.7735,-5.7588,-5.7364,-5.7063,-5.6757,-5.648,-5.6165,-5.5846,-5.5572,-5.5164,-5.4613,-5.3813,-5.3321,-5.2966,-5.2608,-5.2246,-5.1941,-5.1758,-5.1452,-5.1293,-5.1229,-5.1229,-5.1229,-5.1229,-5.1319,-5.1468,-5.1648,-5.1828,-5.1977,-5.2037,-5.2007,-5.1828,-5.1618,-5.1379,-5.1229,-5.1229,-5.1229,-5.1229,-5.1229,-5.1229,-5.1229,-5.1229,-5.1229,-5.1229,-5.1349,-5.1229,-5.1229,-5.1229,-5.1229,-6.9804,-6.8782,-6.8838,-6.9122,-6.9391,-6.9579,-6.9815,-7.0149,-7.0185,-7.0391,-7.0609,-7.0708,-7.0758,-7.0871,-7.0898,-7.0898,-7.0898,-7.0925,-7.0979,-7.0811,-7.032,-6.991,-6.9692,-6.859,-6.7631,-6.6918,-6.6936,-6.6892,-6.6814,-6.6862,-6.6898,-6.6914,-6.6908,-6.6887,-6.6694,-6.6752,-6.6282,-6.555,-6.5388,-6.4885,-6.4056,-6.3822,-6.3638,-6.3384,-6.31,-6.2791,-6.2482,-6.1955,-6.1566,-6.1363,-6.0776,-6.0624,-6.0701,-6.0408,-6.0331,-6.0534,-6.03,-5.9896,-5.9582,-5.9249,-5.8978,-5.8771,-5.849,-5.8205,-5.8133,-5.7944,-5.779,-5.7715,-5.7482,-5.7177,-5.69,-5.654,-5.6107,-5.5571,-5.5293,-5.4864,-5.4157,-5.3702,-5.3388,-5.2942,-5.2489,-5.2277,-5.1997,-5.1908,-5.1693,-5.1563,-5.1528,-5.1588,-5.1588,-5.1738,-5.1738,-5.1947,-5.2217,-5.2336,-5.2546,-5.2576,-5.2546,-5.2396,-5.2187,-5.1947,-5.1708,-5.1678,-5.1678,-5.1618,-5.1498,-5.1409,-5.1468,-5.1678,-5.1708,-5.1798,-5.1708,-5.1379,-5.1439,-5.1648,-5.1708,-6.9855,-6.8875,-6.8921,-6.9116,-6.9539,-6.9577,-6.9815,-7.0149,-7.0185,-7.0391,-7.0678,-7.0708,-7.0758,-7.0898,-7.0898,-7.0898,-7.0898,-7.0952,-7.1005,-7.1067,-7.0961,-7.0535,-7.0098,-6.9298,-6.8371,-6.7681,-6.7677,-6.7407,-6.6837,-6.6956,-6.6945,-6.6914,-6.694,-6.6873,-6.6805,-6.6736,-6.6576,-6.6318,-6.615,-6.5946,-6.5548,-6.5264,-6.5128,-6.49,-6.4527,-6.4162,-6.3842,-6.3158,-6.2419,-6.18,-6.1801,-6.1709,-6.1443,-6.1028,-6.0689,-6.0406,-6.0282,-5.9931,-5.9485,-5.9218,-5.8944,-5.8631,-5.8484,-5.8133,-5.7842,-5.8167,-5.8211,-5.8117,-5.8174,-5.8157,-5.7756,-5.7347,-5.6763,-5.5984,-5.5112,-5.4369,-5.3915,-5.3757,-5.3709,-5.3316,-5.3375,-5.3277,-5.2963,-5.2752,-5.2631,-5.2552,-5.2576,-5.2546,-5.2426,-5.2456,-5.2516,-5.2725,-5.2935,-5.2995,-5.3054,-5.3084,-5.3084,-5.2995,-5.2972,-5.2882,-5.2762,-5.2665,-5.2695,-5.2725,-5.2426,-5.2306,-5.2516,-5.2725,-5.2636,-5.2366,-5.2426,-5.2336,-5.2546,-5.2725,-5.2665,-7.0127,-6.9407,-6.907,-6.9153,-6.9577,-6.9617,-6.9853,-7.0149,-7.022,-7.0424,-7.0678,-7.0708,-7.0758,-7.0898,-7.0898,-7.0898,-7.0898,-7.0979,-7.103,-7.113,-7.1247,-7.0911,-7.0308,-6.9818,-6.9292,-6.8561,-6.8553,-6.8344,-6.7936,-6.759,-6.7419,-6.7341,-6.7047,-6.6862,-6.6798,-6.6728,-6.6673,-6.6555,-6.6415,-6.6301,-6.6123,-6.5919,-6.5624,-6.5337,-6.5052,-6.4705,-6.4169,-6.3482,-6.2793,-6.2291,-6.2193,-6.2024,-6.1615,-6.1211,-6.0757,-6.0262,-6.0276,-6.0128,-5.9804,-5.9702,-5.9627,-5.9341,-5.9123,-5.8903,-5.8706,-5.8892,-5.8863,-5.854,-5.8668,-5.8429,-5.7967,-5.7259,-5.6742,-5.6056,-5.5165,-5.4429,-5.4162,-5.4264,-5.4114,-5.3772,-5.3732,-5.3688,-5.3525,-5.332,-5.3224,-5.3181,-5.303,-5.3039,-5.3047,-5.3234,-5.3354,-5.3503,-5.3653,-5.3743,-5.3952,-5.4042,-5.3982,-5.3862,-5.3841,-5.3751,-5.3511,-5.3414,-5.3264,-5.3234,-5.3204,-5.3234,-5.3324,-5.3324,-5.3054,-5.2935,-5.3144,-5.3234,-5.3264,-5.3473,-5.3414,-7.0475,-7.0042,-6.9257,-6.9153,-6.9577,-6.9659,-6.9891,-7.0185,-7.0289,-7.0457,-7.0678,-7.0708,-7.0796,-7.0898,-7.0898,-7.0898,-7.0898,-7.0979,-7.1056,-7.1178,-7.1296,-7.1125,-7.0654,-7.065,-7.0161,-6.9528,-6.9419,-6.9327,-6.9036,-6.8492,-6.828,-6.8117,-6.7585,-6.7247,-6.729,-6.7032,-6.6808,-6.6697,-6.6445,-6.6206,-6.5997,-6.5795,-6.5494,-6.5188,-6.4969,-6.4665,-6.4196,-6.3648,-6.3135,-6.2844,-6.2313,-6.1965,-6.1507,-6.1116,-6.083,-6.0557,-6.0648,-6.0628,-6.0323,-6.0374,-6.0529,-6.0245,-6.002,-5.9962,-5.9598,-5.9466,-5.9318,-5.8999,-5.8822,-5.8558,-5.7882,-5.6973,-5.6594,-5.6388,-5.5686,-5.541,-5.5225,-5.4977,-5.4541,-5.4127,-5.3839,-5.3706,-5.3511,-5.3384,-5.3443,-5.3961,-5.3844,-5.3844,-5.3853,-5.3922,-5.4072,-5.4251,-5.4401,-5.4521,-5.479,-5.5059,-5.497,-5.485,-5.473,-5.4551,-5.4042,-5.3794,-5.3653,-5.3593,-5.3892,-5.3922,-5.3773,-5.3653,-5.3503,-5.3623,-5.3922,-5.3743,-5.3533,-5.3862,-5.3952,-7.0475,-7.0042,-6.9274,-6.9203,-6.9577,-6.9776,-7.0004,-7.0185,-7.0289,-7.0451,-7.0678,-7.0708,-7.0796,-7.0898,-7.0898,-7.0898,-7.0925,-7.103,-7.113,-7.1269,-7.1435,-7.1472,-7.127,-7.1325,-7.0991,-7.0474,-7.0316,-7.0036,-6.9522,-6.9355,-6.914,-6.9052,-6.882,-6.878,-6.8609,-6.793,-6.7592,-6.7369,-6.6799,-6.634,-6.6144,-6.5897,-6.5588,-6.5242,-6.5123,-6.5142,-6.516,-6.4779,-6.44,-6.3875,-6.314,-6.2449,-6.2092,-6.199,-6.1787,-6.152,-6.1212,-6.1083,-6.0834,-6.0687,-6.0478,-6.0544,-6.0241,-5.9766,-5.9644,-5.9785,-5.9694,-5.9581,-5.9676,-5.9328,-5.8542,-5.8101,-5.7459,-5.7027,-5.6684,-5.6398,-5.6111,-5.552,-5.4957,-5.4661,-5.4797,-5.503,-5.48,-5.461,-5.464,-5.473,-5.476,-5.4749,-5.463,-5.4581,-5.467,-5.476,-5.482,-5.488,-5.4999,-5.5299,-5.552,-5.561,-5.5508,-5.5538,-5.4958,-5.466,-5.467,-5.47,-5.482,-5.467,-5.4341,-5.4521,-5.4491,-5.461,-5.464,-5.4491,-5.4401,-5.4521,-5.4491,-7.0809,-7.0565,-6.9514,-6.9289,-6.9617,-6.9853,-7.0041,-7.022,-7.0391,-7.0554,-7.0669,-7.0699,-7.0825,-7.0898,-7.0898,-7.0898,-7.0925,-7.103,-7.1178,-7.1313,-7.1455,-7.1568,-7.163,-7.1651,-7.1459,-7.1204,-7.1183,-7.0941,-7.0626,-7.0224,-7.0,-6.9947,-6.9673,-6.9241,-6.9294,-6.8756,-6.8475,-6.828,-6.7813,-6.7338,-6.7113,-6.6853,-6.6396,-6.5951,-6.5741,-6.5654,-6.5521,-6.5139,-6.4658,-6.4188,-6.3741,-6.3163,-6.2631,-6.244,-6.2255,-6.1882,-6.1915,-6.1606,-6.1444,-6.1495,-6.1413,-6.1163,-6.0897,-6.0695,-6.0411,-6.0455,-6.0258,-6.0055,-5.9859,-5.9596,-5.8701,-5.8119,-5.7778,-5.7401,-5.7019,-5.6634,-5.6213,-5.5841,-5.553,-5.5198,-5.524,-5.529,-5.528,-5.5359,-5.5239,-5.5089,-5.5059,-5.5018,-5.5059,-5.494,-5.4999,-5.5089,-5.5119,-5.5179,-5.5239,-5.5418,-5.576,-5.5969,-5.6179,-5.6329,-5.6166,-5.5987,-5.5867,-5.5688,-5.5359,-5.5149,-5.494,-5.5179,-5.5269,-5.5059,-5.4999,-5.5149,-5.5119,-5.491,-5.4779,-7.1104,-7.0976,-6.9753,-6.9374,-6.9617,-6.9929,-7.0114,-7.022,-7.0457,-7.0616,-7.0708,-7.0758,-7.0815,-7.0898,-7.0898,-7.0898,-7.0979,-7.1056,-7.1201,-7.1355,-7.1455,-7.1568,-7.1684,-7.1704,-7.1743,-7.1885,-7.1807,-7.1753,-7.1641,-7.1322,-7.0936,-7.0803,-7.0258,-7.006,-6.9782,-6.9421,-6.9274,-6.9144,-6.8643,-6.8304,-6.8114,-6.7829,-6.7376,-6.6965,-6.6448,-6.6208,-6.5999,-6.5513,-6.498,-6.4327,-6.4349,-6.396,-6.3282,-6.2807,-6.2437,-6.2021,-6.2335,-6.2223,-6.2084,-6.2198,-6.2257,-6.203,-6.185,-6.1609,-6.1317,-6.092,-6.0619,-6.0206,-5.9814,-5.9351,-5.8493,-5.8217,-5.7837,-5.7422,-5.7002,-5.6579,-5.6282,-5.6183,-5.6113,-5.5732,-5.5651,-5.567,-5.576,-5.5748,-5.5568,-5.5448,-5.5448,-5.5448,-5.5418,-5.5478,-5.5628,-5.5777,-5.5897,-5.5957,-5.5987,-5.6017,-5.6299,-5.6419,-5.6719,-5.6885,-5.7034,-5.6765,-5.6436,-5.6017,-5.5718,-5.5628,-5.5658,-5.5867,-5.5807,-5.5448,-5.5359,-5.5478,-5.5388,-5.5239,-5.5138,-7.0795,-7.0228,-6.9616,-6.9453,-6.9657,-7.0004,-7.0185,-7.022,-7.049,-7.0616,-7.0708,-7.0758,-7.0843,-7.0871,-7.0898,-7.0952,-7.1056,-7.113,-7.1224,-7.1415,-7.1475,-7.1568,-7.1661,-7.1704,-7.1755,-7.1867,-7.1885,-7.1909,-7.1958,-7.1831,-7.1636,-7.1685,-7.148,-7.1321,-7.1009,-7.0655,-7.0098,-6.9905,-6.9275,-6.8732,-6.8426,-6.8062,-6.7808,-6.7492,-6.7067,-6.6837,-6.6883,-6.6624,-6.6211,-6.5689,-6.529,-6.4729,-6.4181,-6.3904,-6.3551,-6.3124,-6.2875,-6.2724,-6.2464,-6.2189,-6.2131,-6.1951,-6.1743,-6.145,-6.1119,-6.0849,-6.0586,-6.0008,-5.9671,-5.9315,-5.9159,-5.8808,-5.8696,-5.8461,-5.797,-5.7699,-5.7293,-5.7028,-5.6877,-5.6402,-5.6239,-5.6107,-5.6196,-5.6316,-5.6286,-5.6286,-5.6243,-5.6376,-5.6346,-5.6466,-5.6615,-5.6735,-5.6855,-5.6855,-5.6885,-5.6855,-5.6944,-5.7019,-5.7154,-5.7272,-5.7302,-5.7139,-5.681,-5.6825,-5.6645,-5.6555,-5.6585,-5.6585,-5.6406,-5.6107,-5.5957,-5.5837,-5.5777,-5.5718,-5.5334,-7.0779,-7.0088,-6.9665,-6.9577,-6.9699,-7.0041,-7.022,-7.0289,-7.0554,-7.0678,-7.0737,-7.0787,-7.0871,-7.0898,-7.0898,-7.0979,-7.1081,-7.1106,-7.1247,-7.1435,-7.1494,-7.1586,-7.1675,-7.1704,-7.1794,-7.1867,-7.1885,-7.1916,-7.2006,-7.1989,-7.1984,-7.1976,-7.1932,-7.1906,-7.1767,-7.1276,-7.0943,-7.0622,-7.0096,-6.9617,-6.9298,-6.8815,-6.848,-6.8152,-6.7691,-6.7405,-6.714,-6.6772,-6.6233,-6.5697,-6.5212,-6.4986,-6.4847,-6.4558,-6.4161,-6.3555,-6.3158,-6.2897,-6.2615,-6.2211,-6.1938,-6.1695,-6.1683,-6.17,-6.1495,-6.1295,-6.0688,-6.0216,-5.9882,-5.9664,-5.928,-5.9135,-5.88,-5.8561,-5.8187,-5.791,-5.757,-5.7467,-5.7228,-5.7064,-5.6915,-5.6825,-5.6825,-5.6915,-5.7109,-5.7094,-5.7109,-5.7139,-5.7244,-5.7304,-5.7393,-5.7334,-5.7363,-5.7363,-5.7453,-5.7573,-5.7603,-5.7708,-5.7723,-5.7839,-5.7988,-5.7915,-5.8082,-5.8171,-5.7932,-5.7393,-5.7094,-5.6915,-5.6825,-5.6765,-5.6645,-5.6526,-5.6376,-5.6093,-5.5738,-7.0714,-6.9827,-6.9675,-6.9657,-6.9815,-7.0077,-7.0255,-7.0358,-7.0578,-7.0708,-7.0737,-7.0815,-7.0898,-7.0898,-7.0925,-7.0979,-7.1106,-7.1106,-7.1247,-7.1455,-7.1494,-7.1547,-7.1675,-7.1745,-7.1755,-7.1876,-7.1932,-7.193,-7.1978,-7.1992,-7.1975,-7.1963,-7.1932,-7.1848,-7.1719,-7.1544,-7.1511,-7.1334,-7.113,-7.0832,-7.0342,-6.974,-6.9128,-6.8754,-6.8296,-6.7924,-6.7482,-6.715,-6.663,-6.6114,-6.5614,-6.5197,-6.5325,-6.5095,-6.4518,-6.381,-6.3512,-6.3169,-6.2843,-6.2623,-6.2431,-6.2116,-6.2164,-6.2022,-6.1754,-6.1426,-6.1142,-6.0551,-6.0326,-6.0132,-5.9545,-5.9201,-5.9021,-5.8807,-5.8395,-5.7888,-5.7978,-5.7888,-5.8098,-5.7872,-5.7663,-5.7633,-5.7723,-5.7812,-5.7932,-5.7932,-5.7975,-5.8022,-5.7992,-5.7872,-5.7902,-5.7782,-5.7752,-5.7752,-5.7902,-5.8201,-5.8231,-5.8308,-5.8518,-5.8573,-5.8722,-5.889,-5.8949,-5.88,-5.8441,-5.7932,-5.7603,-5.7423,-5.7543,-5.7573,-5.7393,-5.7049,-5.6616,-5.6452,-5.6183,-7.0425,-6.914,-6.9491,-6.9697,-6.9891,-7.0114,-7.0255,-7.0358,-7.0578,-7.0708,-7.0737,-7.0815,-7.0898,-7.0898,-7.0898,-7.0979,-7.1056,-7.1106,-7.1247,-7.1475,-7.1494,-7.1564,-7.1704,-7.1758,-7.1817,-7.1924,-7.1971,-7.1976,-7.1981,-7.1991,-7.2002,-7.1987,-7.1945,-7.1856,-7.1874,-7.1769,-7.1417,-7.1286,-7.1082,-7.0685,-7.0005,-6.9407,-6.8958,-6.8668,-6.8525,-6.8438,-6.8051,-6.7806,-6.7552,-6.7121,-6.6673,-6.6237,-6.5821,-6.5551,-6.5206,-6.4834,-6.4608,-6.4495,-6.3997,-6.3551,-6.3215,-6.2828,-6.2835,-6.2497,-6.2035,-6.1427,-6.0931,-6.036,-6.0509,-6.0397,-6.0059,-6.0086,-6.0041,-5.9652,-5.9153,-5.8864,-5.8817,-5.8428,-5.853,-5.862,-5.8381,-5.856,-5.871,-5.88,-5.889,-5.889,-5.886,-5.874,-5.865,-5.8501,-5.8441,-5.8351,-5.8321,-5.8321,-5.8291,-5.862,-5.868,-5.8817,-5.8997,-5.9099,-5.9099,-5.9099,-5.9099,-5.8919,-5.865,-5.856,-5.8441,-5.8381,-5.8441,-5.8291,-5.8052,-5.7421,-5.6763,-5.6687,-5.6758,-7.0022,-6.916,-6.9495,-6.9737,-6.9929,-7.0114,-7.0289,-7.049,-7.0647,-7.0737,-7.0758,-7.0843,-7.0898,-7.0898,-7.0898,-7.0979,-7.1081,-7.1106,-7.1247,-7.1455,-7.1513,-7.1564,-7.169,-7.1758,-7.1817,-7.1915,-7.1979,-7.1987,-7.1986,-7.203,-7.201,-7.1971,-7.2004,-7.2145,-7.2298,-7.2263,-7.2383,-7.2379,-7.211,-7.1588,-7.102,-7.0466,-7.0001,-6.954,-6.9284,-6.9012,-6.862,-6.8163,-6.7888,-6.734,-6.688,-6.6647,-6.6359,-6.622,-6.5972,-6.6276,-6.5963,-6.5226,-6.4254,-6.3918,-6.3577,-6.3297,-6.3111,-6.3056,-6.2579,-6.2014,-6.1435,-6.1038,-6.0989,-6.078,-6.0413,-6.0236,-5.997,-5.9804,-5.9663,-5.9495,-5.9357,-5.9129,-5.9009,-5.9069,-5.9159,-5.9308,-5.9398,-5.9338,-5.9219,-5.9009,-5.8979,-5.8949,-5.8919,-5.889,-5.889,-5.8949,-5.8919,-5.8949,-5.889,-5.8979,-5.8919,-5.8949,-5.8949,-5.9099,-5.9099,-5.9099,-5.9099,-5.9099,-5.8949,-5.8949,-5.9099,-5.9009,-5.88,-5.874,-5.868,-5.8077,-5.7565,-5.7449,-5.729,-6.9814,-6.9369,-6.9536,-6.9776,-7.0077,-7.0149,-7.0324,-7.0585,-7.0678,-7.0729,-7.0787,-7.0871,-7.0898,-7.0898,-7.0898,-7.0979,-7.1106,-7.1106,-7.1247,-7.1435,-7.1513,-7.1564,-7.169,-7.177,-7.1827,-7.1932,-7.1987,-7.2154,-7.2342,-7.2374,-7.2405,-7.2257,-7.2695,-7.2809,-7.3045,-7.3083,-7.3132,-7.3147,-7.2707,-7.2244,-7.1798,-7.135,-7.0859,-7.0454,-7.0088,-6.9648,-6.9156,-6.8863,-6.8359,-6.7834,-6.7469,-6.726,-6.7065,-6.6816,-6.6664,-6.6709,-6.6407,-6.5731,-6.4838,-6.4261,-6.3802,-6.3528,-6.3186,-6.3218,-6.2844,-6.2481,-6.2085,-6.1426,-6.1184,-6.0908,-6.069,-6.0425,-6.0257,-6.0162,-6.0006,-5.9777,-5.9608,-5.9697,-5.9817,-5.9997,-6.0027,-5.9877,-5.9907,-5.9757,-5.9548,-5.9189,-5.9099,-5.9159,-5.9189,-5.9249,-5.9189,-5.9219,-5.9159,-5.9159,-5.9129,-5.9129,-5.9129,-5.9099,-5.9099,-5.9099,-5.9099,-5.9099,-5.9099,-5.9099,-5.9099,-5.9099,-5.9099,-5.9099,-5.9099,-5.8979,-5.8919,-5.8763,-5.8515,-5.8195,-5.7775,-6.9903,-6.9577,-6.9577,-6.9815,-7.0185,-7.0185,-7.0358,-7.0585,-7.0678,-7.0729,-7.0815,-7.0871,-7.0898,-7.0898,-7.0898,-7.0979,-7.1106,-7.1106,-7.1269,-7.1435,-7.1513,-7.1564,-7.169,-7.1782,-7.1877,-7.201,-7.2197,-7.2596,-7.3084,-7.3374,-7.325,-7.3183,-7.357,-7.3911,-7.4084,-7.3992,-7.3729,-7.3607,-7.3074,-7.2541,-7.204,-7.1499,-7.0991,-7.0624,-7.0464,-7.0263,-6.9793,-6.9729,-6.9354,-6.8702,-6.8293,-6.7869,-6.741,-6.7202,-6.7044,-6.6694,-6.6302,-6.5788,-6.5359,-6.5083,-6.486,-6.4414,-6.3829,-6.3164,-6.2868,-6.231,-6.1878,-6.1525,-6.1402,-6.1205,-6.1046,-6.0867,-6.0784,-6.0676,-6.0595,-6.0475,-6.0475,-6.0595,-6.0745,-6.0924,-6.0805,-6.0565,-6.0505,-6.0386,-6.0176,-5.9847,-5.9697,-5.9757,-5.9608,-5.9608,-5.9428,-5.9368,-5.9249,-5.9219,-5.9159,-5.9159,-5.9129,-5.9099,-5.9099,-5.9099,-5.9099,-5.9099,-5.9099,-5.9099,-5.9099,-5.9099,-5.9099,-5.9099,-5.9099,-5.9099,-5.8991,-5.8773,-5.8335,-5.7781,-5.7445,-6.9504,-6.9655,-6.9737,-6.9929,-7.0185,-7.0255,-7.0424,-7.0647,-7.0708,-7.0796,-7.0843,-7.0898,-7.0898,-7.0898,-7.0898,-7.0979,-7.1081,-7.1106,-7.1269,-7.1435,-7.1513,-7.1564,-7.169,-7.1872,-7.2082,-7.2557,-7.2795,-7.3225,-7.3984,-7.4406,-7.4743,-7.4789,-7.4587,-7.4631,-7.4712,-7.492,-7.4755,-7.4423,-7.3953,-7.3458,-7.297,-7.2383,-7.1894,-7.1521,-7.1078,-7.0807,-7.0386,-6.9989,-6.9562,-6.9083,-6.8628,-6.8083,-6.7557,-6.7312,-6.693,-6.6574,-6.6196,-6.6046,-6.5955,-6.5577,-6.4885,-6.4337,-6.371,-6.3246,-6.2978,-6.2856,-6.2727,-6.2372,-6.1963,-6.166,-6.1673,-6.1399,-6.1228,-6.1231,-6.1237,-6.1201,-6.1283,-6.1403,-6.1403,-6.1463,-6.1253,-6.0954,-6.0984,-6.1014,-6.0775,-6.0505,-6.0416,-6.0296,-6.0176,-6.0086,-6.0027,-5.9907,-5.9817,-5.9727,-5.9727,-5.9458,-5.9189,-5.9159,-5.9189,-5.9189,-5.9219,-5.9099,-5.9099,-5.9099,-5.9099,-5.9099,-5.9099,-5.9099,-5.9099,-5.9099,-5.8882,-5.8555,-5.8003,-5.7332,-5.6993,-6.9289,-6.9617,-6.9853,-7.0041,-7.0185,-7.0289,-7.0451,-7.0678,-7.0708,-7.0796,-7.0898,-7.0898,-7.0898,-7.0898,-7.0898,-7.0979,-7.1081,-7.113,-7.1269,-7.1415,-7.1513,-7.1564,-7.1768,-7.2094,-7.2589,-7.3181,-7.3654,-7.4123,-7.4922,-7.5506,-7.5757,-7.5713,-7.5468,-7.5516,-7.5583,-7.5682,-7.5589,-7.5208,-7.4778,-7.426,-7.3677,-7.3119,-7.2576,-7.2021,-7.1485,-7.0907,-7.0404,-6.9849,-6.9344,-6.8857,-6.8397,-6.7959,-6.7475,-6.7097,-6.6829,-6.6537,-6.6356,-6.6178,-6.6304,-6.5936,-6.5078,-6.4642,-6.4087,-6.371,-6.3492,-6.3287,-6.3003,-6.2778,-6.2411,-6.2272,-6.2105,-6.188,-6.1868,-6.2007,-6.2037,-6.2061,-6.2002,-6.2061,-6.1972,-6.1942,-6.1792,-6.1852,-6.1882,-6.1912,-6.1403,-6.1104,-6.0805,-6.0745,-6.0745,-6.0715,-6.0805,-6.0685,-6.0565,-6.0475,-6.0386,-6.0206,-5.9997,-5.9994,-5.9964,-5.9567,-5.9507,-5.9417,-5.9159,-5.9099,-5.9099,-5.9099,-5.9099,-5.9129,-5.9099,-5.9099,-5.8743,-5.8386,-5.7863,-5.7303,-5.6851,-6.9332,-6.9617,-6.9891,-7.0114,-7.0185,-7.0289,-7.049,-7.0708,-7.0737,-7.0787,-7.0898,-7.0898,-7.0898,-7.0898,-7.0898,-7.0979,-7.1081,-7.1106,-7.1247,-7.1455,-7.1688,-7.1642,-7.2079,-7.26,-7.3319,-7.3445,-7.4128,-7.4991,-7.5781,-7.5957,-7.6274,-7.6547,-7.6397,-7.6301,-7.6376,-7.5947,-7.5489,-7.5095,-7.4695,-7.4177,-7.3653,-7.3087,-7.2573,-7.1988,-7.1368,-7.0817,-7.0341,-6.967,-6.9157,-6.8705,-6.8241,-6.7799,-6.751,-6.7116,-6.6963,-6.7087,-6.6723,-6.6667,-6.6828,-6.6289,-6.5772,-6.5119,-6.4381,-6.416,-6.3777,-6.3481,-6.321,-6.3101,-6.2622,-6.2403,-6.2274,-6.2354,-6.2475,-6.263,-6.266,-6.266,-6.26,-6.257,-6.248,-6.2421,-6.275,-6.2989,-6.2959,-6.281,-6.2181,-6.1732,-6.1283,-6.1194,-6.1343,-6.1493,-6.1613,-6.1493,-6.1373,-6.1164,-6.1074,-6.1014,-6.0916,-6.0856,-6.0584,-6.0246,-5.9956,-5.9867,-5.9578,-5.9279,-5.9279,-5.9428,-5.9279,-5.9129,-5.9021,-5.8882,-5.8575,-5.8077,-5.7693,-5.7162,-5.6708,-6.9453,-6.9655,-7.0004,-7.0149,-7.022,-7.0424,-7.0585,-7.0708,-7.0787,-7.0843,-7.0898,-7.0898,-7.0898,-7.0898,-7.0898,-7.0979,-7.1081,-7.1106,-7.1247,-7.1552,-7.2076,-7.2397,-7.2794,-7.3457,-7.4255,-7.4827,-7.5394,-7.5819,-7.6677,-7.6536,-7.6614,-7.6871,-7.6669,-7.645,-7.6199,-7.581,-7.5386,-7.498,-7.4487,-7.3944,-7.3452,-7.2908,-7.238,-7.1842,-7.1175,-7.0579,-7.0132,-6.9452,-6.8932,-6.8474,-6.8073,-6.7741,-6.7467,-6.71,-6.7175,-6.7191,-6.6974,-6.702,-6.7102,-6.6837,-6.6172,-6.5377,-6.4767,-6.457,-6.4146,-6.4321,-6.4118,-6.3758,-6.3335,-6.3173,-6.3213,-6.2912,-6.2899,-6.2929,-6.2959,-6.2959,-6.2929,-6.2959,-6.2929,-6.2869,-6.3079,-6.3079,-6.3079,-6.3079,-6.263,-6.248,-6.2121,-6.2181,-6.2331,-6.245,-6.257,-6.2391,-6.2211,-6.1912,-6.1732,-6.1642,-6.1493,-6.1357,-6.1117,-6.0886,-6.0565,-6.0356,-6.0326,-6.0236,-5.9997,-5.9757,-5.9727,-5.9498,-5.8892,-5.8634,-5.8445,-5.7944,-5.7274,-5.6822,-5.6337,-6.9536,-6.9697,-7.0041,-7.022,-7.0255,-7.049,-7.0647,-7.0729,-7.0843,-7.0898,-7.0898,-7.0898,-7.0898,-7.0898,-7.0898,-7.0979,-7.112,-7.1453,-7.1711,-7.2056,-7.2812,-7.3212,-7.3688,-7.4365,-7.5045,-7.5772,-7.6196,-7.66,-7.7,-7.7051,-7.6936,-7.6682,-7.6471,-7.6237,-7.5967,-7.5589,-7.5245,-7.4778,-7.4222,-7.3703,-7.3193,-7.265,-7.2108,-7.1593,-7.1015,-7.041,-6.9885,-6.9305,-6.874,-6.8344,-6.8005,-6.7686,-6.759,-6.7569,-6.7669,-6.7802,-6.785,-6.7621,-6.7322,-6.7277,-6.6472,-6.5271,-6.507,-6.4907,-6.4677,-6.4768,-6.4482,-6.4209,-6.4075,-6.3789,-6.3357,-6.3164,-6.3164,-6.3079,-6.3079,-6.3079,-6.3079,-6.3079,-6.3079,-6.3079,-6.3079,-6.3079,-6.3079,-6.3079,-6.2929,-6.2989,-6.3019,-6.3079,-6.3079,-6.3079,-6.3079,-6.2899,-6.278,-6.254,-6.2331,-6.2241,-6.2061,-6.1822,-6.1642,-6.1463,-6.1253,-6.1126,-6.1104,-6.1134,-6.0745,-6.0446,-6.0356,-6.0066,-5.9525,-5.9088,-5.8741,-5.8097,-5.7135,-5.6566,-5.6221,-6.9657,-6.9738,-7.0077,-7.0255,-7.0286,-7.0522,-7.0678,-7.0787,-7.0871,-7.0898,-7.0898,-7.0898,-7.0898,-7.0898,-7.0937,-7.1133,-7.1428,-7.207,-7.2507,-7.3005,-7.3704,-7.4045,-7.4583,-7.5261,-7.5824,-7.6138,-7.6512,-7.6866,-7.7098,-7.7022,-7.6801,-7.6555,-7.6335,-7.6052,-7.5756,-7.5424,-7.5056,-7.4568,-7.4038,-7.3503,-7.298,-7.2422,-7.1988,-7.1368,-7.0781,-7.0202,-6.974,-6.9223,-6.8725,-6.8463,-6.8439,-6.825,-6.8199,-6.8236,-6.8617,-6.8858,-6.8858,-6.8241,-6.7535,-6.7356,-6.6733,-6.5647,-6.562,-6.5452,-6.5235,-6.4936,-6.4635,-6.4331,-6.3993,-6.3652,-6.3309,-6.3194,-6.3079,-6.3079,-6.3079,-6.3079,-6.3079,-6.3079,-6.3079,-6.3079,-6.3079,-6.3079,-6.3079,-6.3079,-6.3079,-6.3079,-6.3079,-6.3079,-6.3079,-6.3079,-6.3079,-6.3079,-6.2989,-6.3019,-6.2899,-6.269,-6.263,-6.2391,-6.2271,-6.2091,-6.1882,-6.1845,-6.1792,-6.1702,-6.1343,-6.1074,-6.0805,-6.0581,-6.0304,-5.9836,-5.925,-5.8224,-5.7426,-5.6737,-5.6245,-6.9697,-6.9891,-7.0114,-7.022,-7.0319,-7.0585,-7.0729,-7.0871,-7.0898,-7.0898,-7.0898,-7.0898,-7.0975,-7.0937,-7.1568,-7.1878,-7.234,-7.2877,-7.3403,-7.3935,-7.4558,-7.4977,-7.5493,-7.6091,-7.6536,-7.6724,-7.6941,-7.7097,-7.7051,-7.6936,-7.6738,-7.6496,-7.6262,-7.5967,-7.5589,-7.5245,-7.4859,-7.4438,-7.3896,-7.3401,-7.2871,-7.2343,-7.183,-7.1304,-7.0754,-7.0204,-6.9769,-6.9631,-6.9272,-6.8888,-6.9179,-6.9135,-6.8513,-6.8797,-6.9136,-6.8987,-6.8601,-6.8068,-6.7491,-6.7213,-6.6659,-6.5915,-6.57,-6.5406,-6.5187,-6.4918,-6.4696,-6.4218,-6.3993,-6.3652,-6.3309,-6.3194,-6.3079,-6.3079,-6.3079,-6.3079,-6.3079,-6.3079,-6.3079,-6.3079,-6.3079,-6.3079,-6.3079,-6.3079,-6.3079,-6.3079,-6.3079,-6.3079,-6.3079,-6.3079,-6.3079,-6.3079,-6.3079,-6.3079,-6.3079,-6.2929,-6.2989,-6.2959,-6.278,-6.266,-6.257,-6.248,-6.248,-6.2331,-6.2002,-6.1553,-6.1104,-6.0886,-6.0812,-6.0343,-5.9644,-5.8694,-5.7715,-5.7135,-5.6406,-6.9737,-6.9967,-7.0114,-7.0289,-7.049,-7.0678,-7.0787,-7.0898,-7.0898,-7.0898,-7.0937,-7.1283,-7.1398,-7.1618,-7.2365,-7.2842,-7.2996,-7.3804,-7.4347,-7.4731,-7.543,-7.5866,-7.6363,-7.6649,-7.6897,-7.7082,-7.7097,-7.7097,-7.7043,-7.6844,-7.6651,-7.645,-7.6186,-7.581,-7.5421,-7.5018,-7.453,-7.4131,-7.3752,-7.3246,-7.2742,-7.2263,-7.1842,-7.1521,-7.0936,-7.0558,-7.0293,-7.0287,-6.9876,-6.9399,-6.9764,-6.9625,-6.9144,-6.9261,-6.9263,-6.8928,-6.8468,-6.8,-6.7491,-6.7213,-6.6554,-6.6023,-6.5731,-6.5592,-6.5294,-6.5134,-6.4646,-6.4106,-6.3993,-6.3766,-6.3424,-6.3079,-6.3079,-6.3079,-6.3079,-6.3079,-6.3079,-6.3079,-6.3079,-6.3079,-6.3079,-6.3079,-6.3079,-6.3109,-6.3079,-6.3079,-6.3079,-6.3079,-6.3079,-6.3079,-6.3079,-6.3079,-6.3079,-6.3079,-6.3079,-6.3079,-6.3079,-6.3079,-6.3019,-6.2959,-6.3079,-6.3019,-6.2839,-6.275,-6.269,-6.2271,-6.1852,-6.1456,-6.1229,-6.0789,-6.0237,-5.9451,-5.8605,-5.7961,-5.7112,-6.9738,-7.0039,-7.0185,-7.0424,-7.0708,-7.0873,-7.0969,-7.1014,-7.1206,-7.1091,-7.1245,-7.1937,-7.2283,-7.2503,-7.3278,-7.3716,-7.4063,-7.4717,-7.526,-7.543,-7.6089,-7.6544,-7.6702,-7.6972,-7.7073,-7.7089,-7.7103,-7.7087,-7.6985,-7.6801,-7.6555,-7.6374,-7.6024,-7.5622,-7.5243,-7.4819,-7.4425,-7.4185,-7.375,-7.3276,-7.2737,-7.2206,-7.192,-7.1903,-7.1654,-7.1263,-7.1125,-7.0898,-7.0463,-7.0241,-7.0104,-7.0161,-6.9712,-6.9329,-6.9154,-6.8863,-6.8401,-6.7899,-6.742,-6.7109,-6.6448,-6.6054,-6.5762,-6.5809,-6.5633,-6.538,-6.4922,-6.4684,-6.4691,-6.4347,-6.4,-6.3767,-6.3767,-6.3767,-6.3767,-6.3767,-6.3767,-6.3767,-6.3767,-6.3767,-6.3767,-6.3737,-6.3794,-6.3854,-6.373,-6.3404,-6.3284,-6.3314,-6.3109,-6.3109,-6.3079,-6.3079,-6.3079,-6.3079,-6.3079,-6.3079,-6.3079,-6.3079,-6.3079,-6.3079,-6.3079,-6.3079,-6.3079,-6.2989,-6.2899,-6.2989,-6.2694,-6.2112,-6.1644,-6.141,-6.091,-6.0378,-5.9669,-5.8845,-5.7853,-6.9815,-7.0185,-7.0391,-7.0585,-7.0784,-7.1487,-7.1842,-7.1937,-7.2629,-7.2476,-7.2129,-7.2745,-7.3206,-7.3322,-7.4152,-7.4617,-7.4835,-7.5461,-7.6101,-7.6206,-7.6612,-7.677,-7.691,-7.7022,-7.709,-7.7083,-7.707,-7.7023,-7.687,-7.6665,-7.6433,-7.625,-7.5879,-7.5523,-7.5132,-7.4695,-7.4402,-7.4362,-7.3972,-7.3627,-7.331,-7.2735,-7.2401,-7.2433,-7.2227,-7.1739,-7.1508,-7.1376,-7.1022,-7.0687,-7.09,-7.067,-7.0036,-6.9412,-6.9058,-6.8896,-6.8201,-6.7695,-6.742,-6.7005,-6.6406,-6.6166,-6.5997,-6.604,-6.6004,-6.58,-6.5617,-6.5498,-6.5304,-6.4925,-6.4691,-6.4573,-6.4455,-6.4455,-6.4455,-6.4455,-6.4455,-6.4455,-6.4455,-6.4485,-6.4485,-6.4425,-6.4483,-6.4303,-6.418,-6.4086,-6.3905,-6.367,-6.3258,-6.3169,-6.3023,-6.3023,-6.3079,-6.3079,-6.3079,-6.2963,-6.2847,-6.2963,-6.2963,-6.2963,-6.3079,-6.3079,-6.2963,-6.3079,-6.3049,-6.2963,-6.2731,-6.2292,-6.2028,-6.1703,-6.1436,-6.0754,-6.0393,-5.9801,-5.8718,-6.9853,-7.0258,-7.0942,-7.1252,-7.1458,-7.2352,-7.2755,-7.2937,-7.3668,-7.3783,-7.3399,-7.3783,-7.4053,-7.4197,-7.5066,-7.5427,-7.5555,-7.6127,-7.6394,-7.6575,-7.6726,-7.6801,-7.6923,-7.7033,-7.7056,-7.71,-7.7052,-7.6975,-7.6777,-7.6594,-7.6427,-7.6133,-7.5818,-7.5421,-7.5018,-7.4649,-7.4526,-7.4695,-7.4275,-7.4133,-7.4019,-7.3523,-7.3065,-7.3083,-7.2752,-7.2318,-7.2209,-7.2064,-7.1644,-7.1197,-7.113,-7.0632,-7.0016,-6.9382,-6.8994,-6.86,-6.8,-6.7388,-6.7213,-6.6933,-6.6532,-6.6385,-6.6418,-6.643,-6.7033,-6.6888,-6.6269,-6.6199,-6.5784,-6.549,-6.5021,-6.4784,-6.4784,-6.4784,-6.4784,-6.4784,-6.4784,-6.4784,-6.4784,-6.4784,-6.4784,-6.4784,-6.4725,-6.4695,-6.4633,-6.4603,-6.451,-6.3977,-6.359,-6.3145,-6.3056,-6.282,-6.2907,-6.2847,-6.2847,-6.2731,-6.2585,-6.2585,-6.2701,-6.2731,-6.2731,-6.2847,-6.2847,-6.2963,-6.2963,-6.2847,-6.2615,-6.2234,-6.1969,-6.1732,-6.1404,-6.1135,-6.0831,-6.056,-5.9615,-7.0157,-7.0674,-7.1695,-7.2157,-7.2332,-7.3226,-7.3668,-7.3783,-7.4514,-7.4861,-7.4784,-7.4822,-7.4861,-7.5225,-7.5732,-7.6018,-7.6276,-7.6405,-7.6531,-7.6614,-7.6743,-7.6816,-7.6948,-7.7053,-7.7078,-7.7068,-7.7028,-7.6882,-7.6747,-7.6555,-7.6359,-7.6106,-7.5718,-7.5315,-7.4939,-7.4664,-7.456,-7.48,-7.4679,-7.4751,-7.4606,-7.4368,-7.3967,-7.3654,-7.3421,-7.33,-7.3031,-7.2621,-7.2245,-7.16,-7.094,-7.033,-6.9765,-6.9285,-6.8994,-6.8501,-6.7899,-6.7491,-6.7317,-6.706,-6.6847,-6.6761,-6.6761,-6.7225,-6.7711,-6.7696,-6.7219,-6.6747,-6.6478,-6.6035,-6.5562,-6.5323,-6.5323,-6.5323,-6.5323,-6.5323,-6.5323,-6.5323,-6.5323,-6.5323,-6.5323,-6.5323,-6.5293,-6.5263,-6.5203,-6.5054,-6.4815,-6.4338,-6.3892,-6.3476,-6.3091,-6.2706,-6.2499,-6.2469,-6.2498,-6.2351,-6.2234,-6.2351,-6.2351,-6.2351,-6.2468,-6.2468,-6.2585,-6.2701,-6.2731,-6.2498,-6.2234,-6.1998,-6.1732,-6.1613,-6.1404,-6.1193,-6.1073,-6.071,-6.0438,-7.1408,-7.2345,-7.2799,-7.297,-7.3116,-7.4072,-7.4476,-7.463,-7.5361,-7.5745,-7.5668,-7.5745,-7.5745,-7.5745,-7.6029,-7.6198,-7.625,-7.6444,-7.6531,-7.6632,-7.6777,-7.6883,-7.6933,-7.7051,-7.7064,-7.7044,-7.6975,-7.6833,-7.6699,-7.6534,-7.6224,-7.5928,-7.5622,-7.5245,-7.497,-7.4915,-7.5097,-7.5325,-7.5485,-7.5603,-7.54,-7.5073,-7.4547,-7.4216,-7.3928,-7.3437,-7.3005,-7.2416,-7.1898,-7.1367,-7.0733,-7.0082,-6.9574,-6.9188,-6.8896,-6.8401,-6.7797,-6.7587,-6.7341,-6.7272,-6.718,-6.7152,-6.7336,-6.7889,-6.832,-6.8427,-6.7954,-6.7603,-6.7363,-6.7004,-6.6643,-6.64,-6.64,-6.64,-6.64,-6.64,-6.64,-6.64,-6.64,-6.64,-6.64,-6.64,-6.6249,-6.6129,-6.5769,-6.5647,-6.5217,-6.471,-6.4094,-6.3681,-6.3148,-6.2645,-6.2173,-6.2086,-6.2116,-6.2116,-6.1998,-6.2116,-6.2116,-6.2116,-6.2116,-6.2116,-6.2234,-6.2468,-6.2351,-6.2116,-6.185,-6.1761,-6.1523,-6.1404,-6.1284,-6.1193,-6.1073,-6.0981,-6.0589]}]]